              Height (m), 1500.0000, 1650.0000, 1800.0000, 1950.0000, 2100.0000, 2250.0000, 2400.0000, 2550.0000, 2700.0000, 2850.0000, 3000.0000, 3150.0000, 3300.0000, 3450.0000, 3600.0000, 3750.0000, 3900.0000, 4050.0000, 4200.0000, 4350.0000, 4500.0000, 4650.0000, 4800.0000, 4950.0000, 5100.0000, 5250.0000, 5400.0000, 5550.0000, 5700.0000, 5850.0000, 6000.0000, 6150.0000, 6300.0000, 6450.0000, 6600.0000, 6750.0000, 6900.0000, 7050.0000, 7200.0000, 7350.0000, 7500.0000, 7650.0000, 7800.0000, 7950.0000, 8100.0000, 8250.0000, 8400.0000, 8550.0000, 8700.0000, 8850.0000, 9000.0000, 9150.0000, 9300.0000, 9450.0000, 9600.0000, 9750.0000, 9900.0000,10050.0000,10200.0000,10350.0000,10500.0000,10650.0000,10800.0000,10950.0000,11100.0000,
23-SEP-2002 08:09:56.48 ,    9.4457,   10.2353,   10.8526,   10.6839,   11.0401,   10.0232,    9.8269,   10.4036,   11.8245,   12.3300,   13.9215,   15.2290,   16.0576,   16.4585,   16.7875,   16.5759,   16.2675,   16.7431,   17.3218,   18.2008,   18.9899,   19.9728,   19.7714,   20.6421,   21.8736,   22.9691,   24.9073,   24.7224,   25.9961,   28.8026,   29.9500,   29.6423,   29.7472,   29.8533,   29.7872,   30.2401,   30.7367,   32.6912,   34.6995,   35.7665,   38.0849,   40.8525,   42.0715,   42.7378,   43.6539,   44.3446,   44.5307,   43.0383,   42.4822,   41.8409,   41.9653,   41.5558,   41.1180,   39.8317,   38.1425,   36.8107,   34.6037,   33.8327,   33.5150,   33.6567,   32.9477,   33.7843,   36.0498,   37.8173,   38.7509,
23-SEP-2002 08:12:31.83 ,    7.4896,    9.3230,   10.4464,   10.8962,   11.0376,   10.5054,    9.7330,   10.2343,   12.0319,   12.2758,   14.1114,   15.9431,   17.3852,   17.5215,   17.5744,   17.7905,   17.3989,   17.4601,   17.7829,   18.5577,   19.0505,   19.1739,   19.6656,   19.5928,   19.9579,   20.8505,   22.4256,   22.3188,   24.0212,   26.8094,   28.5377,   29.1110,   29.1808,   30.0781,   30.4813,   31.0083,   31.2515,   35.0066,   36.2639,   37.1049,   38.3647,   38.8564,   39.4676,   40.7421,   42.0358,   43.1956,   43.3846,   41.2925,   39.1929,   39.9123,   40.3047,   38.7308,   39.3520,   38.7521,   38.1377,   37.1485,   36.3746,   35.4863,   34.4241,   34.7857,   34.8706,   35.9429,   37.5191,   39.6188,   39.2961,
23-SEP-2002 08:15:06.89 ,    7.4921,    9.4547,   11.0055,   11.7578,   11.0796,   11.0049,   10.5861,   10.9151,   11.6590,   12.3886,   14.3854,   15.8288,   17.2690,   17.9625,   18.0950,   17.9162,   17.9640,   18.0749,   18.5624,   19.4379,   19.5184,   19.4211,   20.5235,   22.2449,   23.5040,   23.3767,   23.6949,   24.5768,   25.2262,   24.5360,   25.4296,   27.0180,   27.8478,   29.1156,   30.4772,   30.6884,   31.0201,   32.9747,   32.8574,   33.3013,   35.8760,   37.6319,   38.3076,   40.2373,   40.5018,   41.4507,   40.8045,   40.0367,   38.7750,   39.6272,   40.0470,   38.9937,   38.0801,   37.9545,   38.0221,   37.9590,   37.8615,   35.8417,   34.9578,   35.4340,   35.9425,   37.5332,   37.3216,   39.9437,   40.3988,
23-SEP-2002 08:17:42.05 ,    9.5367,   10.2246,   10.9430,   11.0102,   10.2785,   10.4702,   10.3790,   10.5299,   11.2925,   13.2543,   14.7230,   15.0546,   16.7542,   17.6246,   17.9436,   17.5676,   18.0377,   18.5625,   19.3746,   20.2108,   19.5391,   19.1520,   20.1828,   19.6721,   20.0649,   20.4353,   21.4599,   22.3266,   23.5124,   24.6702,   25.6000,   27.3800,   28.1875,   28.9879,   30.1654,   31.1176,   31.8271,   32.0826,   33.1549,   35.5292,   38.0697,   39.5906,   40.0519,   41.5109,   42.6079,   43.2454,   43.5833,   41.7910,   42.1677,   40.5345,   40.1071,   38.6682,   37.8713,   38.8760,   38.7147,   38.1881,   32.6263,   33.9233,   32.6658,   32.8518,   32.9194,   35.7727,   37.8860,   39.3696,   39.4125,
23-SEP-2002 08:20:16.57 ,    9.7785,   10.2465,   11.1392,   11.0087,    9.6966,   10.1005,    9.9800,   10.8571,   12.4073,   13.8428,   14.5892,   14.9641,   16.3488,   16.9636,   17.2973,   17.4072,   17.7011,   18.3907,   19.4819,   19.7346,   19.2648,   19.4425,   19.6076,   19.5021,   17.8310,   15.4745,   14.1134,   22.2104,   23.0026,   24.8567,   29.1256,   27.2353,   26.9846,   27.9039,   28.9045,   28.7858,   28.8541,   29.8556,   31.8360,   33.2953,   36.4807,   38.2036,   39.1279,   40.1478,   40.8931,  999.0000,   40.6173,   40.2111,   41.7380,   38.1752,   38.3936,   37.9748,   37.4518,   37.4767,   38.4985,   38.5235,   34.4212,   32.6078,   33.2355,   33.8154,   35.3693,   37.0883,   39.5178,   40.8629,   40.3807,
23-SEP-2002 08:22:51.46 ,    9.3625,    9.7351,   10.8873,   11.4194,   10.0421,    9.5238,    9.3703,   10.6505,   12.0180,   12.3311,   13.2029,   13.8623,   14.3883,   15.4808,   16.1109,   16.8894,   17.5901,   18.4392,   19.4396,   19.4520,   19.7117,   20.7757,   19.9581,   23.0540,   14.1809,    5.9041,   -0.2190,   25.2703,   26.3824,   26.8685,   34.8745,   28.0931,   26.6378,   27.6224,   28.9930,   29.4270,   29.8171,   30.0749,   31.8397,   33.7332,   36.1062,   38.4268,   39.0124,   39.6716,   42.1840,   42.1776,   43.0011,   43.1265,   42.4585,   39.4581,   37.4350,   37.0159,   36.9604,   36.3649,   36.4873,   37.3190,   35.2169,   33.7113,   35.3286,  999.0000,   37.0095,   39.4866,   41.8683,   41.4159,   38.2951,
23-SEP-2002 08:25:25.97 ,   10.1628,   10.4013,   11.4078,   12.1297,   11.0647,    9.0801,    8.9150,    9.4605,   10.3358,   11.0467,   12.1345,   13.1086,   13.9521,   15.5342,   16.3165,   17.0929,   17.8874,   18.7824,   19.4191,   19.7700,   20.2527,   21.1973,   22.2777,   20.8529,   22.2526,   21.7051,   21.5354,   22.4893,   24.7102,   26.5290,   27.4625,   27.5682,   27.8060,   28.9914,   29.4529,   30.0059,   30.6848,   30.7472,   31.9662,   34.0075,   36.1065,   37.7978,   39.1723,   40.2903,   42.4367,   42.8617,   44.1358,   44.2703,   44.2719,  999.0000,   40.0239,   38.2188,   36.9077,   35.9570,   35.0503,   34.1456,   34.5971,  999.0000,   34.4820,   35.4488,   36.7633,   40.1660,   43.1312,   43.3583,   42.6530,
23-SEP-2002 08:28:00.80 ,   10.3120,   10.5477,   11.8487,   12.4219,   11.4657,    8.8427,    9.2269,    9.2023,    9.8806,   10.7880,   12.6501,   13.9269,   14.7483,   15.9428,   16.9090,   17.1488,   17.4207,   18.1971,   19.0417,   19.6815,   20.1575,   21.1561,   22.3826,   22.7510,   24.6685,   24.1397,   22.1998,   23.5452,   25.0388,   26.2620,   26.8214,   27.3638,   28.9748,   30.5799,   31.6684,   31.6962,   31.0129,   30.3873,   32.1636,   34.7042,   36.3483,   39.9866,   40.8606,   42.5266,   43.3107,   43.3245,   44.2742,   43.5556,   43.7764,   41.8750,   41.9553,  999.0000,   39.3935,  999.0000,   37.2686,   34.7505,   34.0570,   33.3339,   33.7386,   33.4883,   37.2593,   39.1361,   40.3025,   45.3957,   49.1600,
23-SEP-2002 08:30:35.68 ,    9.2547,    9.7871,   11.2564,   11.4491,   11.1574,    8.9958,    9.0840,    8.9868,    9.8178,   10.3952,   11.6186,   13.0526,   13.8291,   15.3072,   16.3994,   16.3243,   16.5617,   17.5176,   19.3009,   20.4641,   21.2648,   22.1055,   20.6907,   21.6088,   22.4525,   23.3816,   24.4206,   25.3985,   26.7066,   27.6132,   28.4271,   29.3495,   30.6180,   31.9703,   32.4252,   31.8849,   31.8651,   31.7874,   33.2875,   36.8140,   39.4605,   41.1829,   41.8297,   43.5269,   44.9645,   44.4890,   43.8596,   43.7245,   42.4075,   42.2731,   41.5897,   41.1623,   41.8349,   40.2636,   39.8067,   38.0479,   37.5261,   36.5102,   37.9944,   38.4716,   41.8475,   42.4262,   44.0563,   44.7742,   41.6511,
23-SEP-2002 08:33:10.68 ,    9.1442,    9.7569,   10.6855,   11.2313,   10.7357,    9.4862,    9.2964,    9.6698,   10.5845,   10.9204,   11.4978,   12.6568,   13.4372,   15.5628,   16.9432,   17.2305,   17.2659,   18.1737,   19.7851,   21.0766,   21.5692,   22.0061,   22.7293,   21.9670,   23.0965,   23.2605,   23.6751,   25.3605,   26.7724,   27.7279,   28.3267,   28.8476,   29.4832,   31.3622,   31.5701,   31.9334,   32.6183,   33.2643,   35.1558,   38.8044,   41.6583,   43.1713,   43.2564,   44.9369,   46.4369,   44.0779,   42.5394,   43.5432,   43.1704,   41.9784,   41.7862,   40.2957,   40.8644,   39.7183,   37.6221,   37.0260,   35.3407,   34.6363,   37.2095,   39.8445,   42.3302,   40.7921,   43.6114,   43.5959,   41.3016,
23-SEP-2002 08:35:45.36 ,    8.1955,    9.2600,   10.7712,   11.5628,   10.6306,   10.7238,   10.9588,   10.6687,   11.0248,   11.5663,   12.4393,   13.3642,   14.0573,   15.5292,   17.4252,   17.6320,   17.5863,   18.9968,   19.9847,   20.2480,   20.1108,   20.4921,   21.1967,   21.7718,   21.4979,   21.3664,   21.7348,   23.7148,   24.7516,   24.9264,   25.6662,   27.3083,   29.2389,   30.3911,   33.0384,   32.1387,   32.4854,   33.0814,   34.2127,   36.7036,   40.5512,   46.7554,   43.1659,   45.0889,   47.2383,   45.0887,   44.2867,   43.4588,  999.0000,   40.6706,   18.4455,   19.4494,  999.0000,  999.0000,   35.5269,   35.1810,   35.8869,   37.8853,   18.5689,   35.6557,   21.2081,   35.2366,   32.9029,   38.1969,   36.2518,
23-SEP-2002 08:38:20.34 ,    8.3888,    9.4763,   10.5658,   11.6150,   10.9413,   11.7711,   10.7375,   10.5728,   11.2340,   11.5207,   12.4229,   13.6437,   14.4723,   15.2897,   17.3504,   17.6418,   17.9137,   19.2362,   20.2718,   20.8344,   21.4788,   22.0196,   20.9957,   21.0273,   21.9202,   23.0094,   23.7356,   25.4035,   25.2515,   23.9293,   24.4654,   26.7431,   29.9742,   29.6656,   35.6600,   33.5064,   35.8354,   37.2979,   40.7672,   42.0947,   42.3812,   52.7255,   43.8006,   44.7699,   47.4274,   47.6883,   48.7861,   50.5613,   43.3997,   43.1759,   41.4511,   41.1793,   39.8326,   38.5074,   38.0607,   37.6946,   36.2895,   38.2195,   37.5613,   36.3033,   24.3517,   23.3848,  999.0000,   23.6122,   20.8645,
23-SEP-2002 08:40:55.44 ,    9.1902,    9.9019,   10.5229,   10.8485,   10.3551,    9.8706,    8.7382,    9.3992,   10.5304,   10.6771,   11.3616,   12.6741,   14.0818,   15.5222,   17.0952,   17.9382,   18.7381,   19.5847,   20.5104,   21.7859,   23.0663,   23.8903,   22.0697,   22.3392,   23.2042,   24.5003,   25.6247,   26.8056,   27.3877,   27.4132,   27.5624,   27.9143,   28.7262,   29.3629,   30.2401,   30.1175,   32.7668,   33.5512,   33.0248,   35.8712,   38.4316,   37.3380,   37.5986,   39.9616,   41.7125,   42.8281,  999.0000,   42.8785,   42.2602,   45.3705,   44.4618,   44.5241,   45.9507,   39.6982,   40.2621,   41.1915,   40.4607,  999.0000,   45.4173,  999.0000,    4.2461,    3.8881,    6.8106,    3.0849,    7.1170,
23-SEP-2002 08:43:30.19 ,    9.4786,   10.3638,   11.1331,   11.2449,   10.6507,    9.0906,    9.0497,   10.0481,   10.9836,   11.2236,   11.4570,   12.3194,   14.6396,   15.9148,   17.1147,   17.7802,   18.2937,   19.0618,   19.5655,   20.7009,   21.8282,   22.6239,   24.2266,   22.8596,   23.1695,   23.8308,   25.4151,   26.5028,   26.5895,   26.9704,   27.0663,   27.2174,   28.1087,   29.1480,   29.8903,   30.3373,   30.6878,   31.4409,   34.2636,   36.4434,   39.5931,   39.4211,   40.0516,   41.7414,   43.9776,   44.5377,   44.7515,   42.3745,   41.1494,   40.8449,   40.3750,   40.9842,   40.5994,   39.1184,   38.1611,   37.9299,   37.9901,   38.7462,   38.9441,   38.3051,   38.0136,   37.7996,   39.6949,   40.4453,   38.7052,
23-SEP-2002 08:46:06.04 ,    9.6140,   11.1510,   11.6288,   12.0213,   11.6607,    9.9550,    9.7834,   10.6927,   11.3291,   11.3262,   11.7494,   12.3936,   14.2616,   15.4970,   16.3617,   17.4363,   17.8576,   18.3542,   19.0527,   20.1185,   21.2004,   21.9882,   23.2118,   22.2092,   22.9820,   23.2812,   24.2398,   25.7480,   26.1481,   25.9790,   25.9649,   27.0105,   28.7866,   30.2585,   31.2903,   32.4853,   34.9903,   38.0413,   37.5216,   42.1749,   40.4082,   41.8237,   41.1298,   40.7318,   42.5181,   43.7554,   44.7790,   42.9751,   41.9234,   42.1922,   41.4607,   40.7922,   40.0063,   39.6002,   37.1327,   37.5895,   39.1435,   38.6809,   39.2358,   37.9228,   37.5142,   39.7301,   41.7957,   41.5704,   40.6306,
23-SEP-2002 08:48:41.05 ,   -0.8704,  999.0000,  999.0000,  999.0000,   20.7060,   16.3933,   13.6049,   11.8521,   10.9114,   11.0776,   11.5848,   12.0344,   12.8107,   14.2617,   15.1036,   16.1668,   16.8217,   18.0886,   19.6871,   20.7910,   21.0611,   21.4338,   22.4905,   14.9799,   22.1962,   22.4779,   22.7706,   24.4441,   24.6299,   24.4952,   24.6120,   26.3968,   28.7955,   30.0295,   32.0747,   33.1518,   32.7893,   33.0630,   33.7547,   37.5576,   37.6853,   39.3835,   39.5194,   39.4522,   42.8576,   43.5591,   45.4518,   44.2122,   42.7530,   42.3895,   42.7456,   40.9327,   41.9230,   42.7059,   41.0133,   38.7168,   26.5599,   38.2271,   38.6818,   37.1975,   36.8638,   38.0579,   37.3025,   38.6951,   38.4269,
23-SEP-2002 08:51:16.69 ,   -2.0500,  999.0000,  999.0000,  999.0000,   20.8903,   16.2347,   13.9078,   11.6054,   10.5115,   11.0345,   11.4196,   11.9593,   13.3007,   14.5755,   15.4905,   15.9783,   16.7924,   18.6169,   20.2636,   21.1959,   21.0539,   20.7545,   21.6177,   -1.1681,   23.2433,   23.8913,   24.6886,   24.9522,   23.5933,   25.1480,   26.3440,   28.0862,   29.4434,   30.1214,   31.9964,   33.5359,   32.7534,   33.7237,   36.0017,   40.3809,   42.5212,   42.5542,   42.7172,   43.0610,   45.6230,   15.2522,  999.0000,  999.0000,  999.0000,  999.0000,   41.1338,  999.0000,   40.2360,   40.3968,   38.5340,   38.8599,   -0.6582,  999.0000,   41.5952,   36.7133,   38.8439,   37.9327,   37.6957,   38.0364,   38.0539,
23-SEP-2002 08:53:52.09 ,    9.5953,   10.4000,   11.0248,   11.3883,   12.4433,   10.4116,   10.2033,    9.8002,    9.6812,   10.3256,   10.4812,   11.2368,   13.0698,   14.4066,   16.3251,   16.8325,   18.6188,   20.3234,   21.0582,   21.3118,   21.0460,   21.0539,   21.1561,   21.7931,   20.2988,   20.3512,   22.2481,   23.6371,   24.1188,   24.9170,   27.5738,   29.6827,   29.3433,   29.9482,   31.9912,   33.0213,   33.1875,   34.4382,   37.4490,   40.7075,   42.9159,   43.2603,   43.4771,   43.2475,   43.6572,   44.0177,   44.9362,   42.5989,   43.3288,   44.7263,   44.5916,   40.6943,   39.8830,   41.4443,   43.1911,   42.0358,   38.8728,   40.8438,   39.0112,   38.2869,   36.9593,   37.4885,   40.4218,   40.8197,   37.1626,
23-SEP-2002 08:56:27.92 ,    8.8776,   10.2604,   12.1354,   13.3130,   14.2486,   11.7780,   11.4933,   11.1078,    9.8780,   10.5854,   10.8060,   11.5519,   12.6268,   13.3998,   16.0802,   17.1539,   19.1425,   20.2658,   20.2554,   20.1892,   20.2521,   20.6579,   21.1171,   20.2535,   19.6770,   19.6092,   21.2764,   22.3340,   22.8933,   24.1671,   25.8763,   28.0385,   29.4451,   30.6475,   31.3065,   31.5951,   32.1514,   33.6439,   36.0627,   39.3959,   40.2113,   40.7784,   40.8908,   41.9666,   42.7634,   43.0307,   42.9589,   42.8969,   43.9455,   44.8304,   45.2459,   42.9862,   40.1658,   40.1182,   42.2134,   41.0133,   40.1439,   41.6688,   42.0718,   41.4087,   38.9152,   39.1551,   41.2136,   41.6490,   39.3883,
23-SEP-2002 08:59:03.16 ,    8.7789,   10.0869,   12.0278,   13.1206,   13.3804,   11.0479,   11.2416,   11.5348,   10.7191,   11.3414,   12.1639,   12.7762,   13.6665,   14.9660,   16.9200,   18.1548,   19.1371,   20.2338,   21.1868,   21.1467,   20.7169,   20.3267,   20.9435,   20.0182,   19.7857,   20.2055,   21.2266,   22.6595,   23.0623,   24.2000,   26.1361,   28.5846,   30.0172,   30.7044,   31.3399,   31.3453,   31.5851,   32.9353,   35.4438,   37.8155,   37.7294,   39.0872,   38.9773,   40.8493,   42.0755,   44.0653,   43.7757,   44.1079,   43.9525,   42.9663,   43.0623,   43.2359,   42.3996,   42.4369,   42.9732,   42.4374,   40.1976,   40.0558,   38.8030,   39.6062,   39.1765,   39.9257,   42.4324,   40.1576,   39.9921,
23-SEP-2002 09:01:38.82 ,    7.9017,    8.2974,    8.9830,   10.2964,   11.3466,   10.1093,    9.7230,   10.4213,   11.0852,   11.7366,   12.3932,   12.6827,   14.0952,   16.6269,   18.1357,   18.8576,   19.3257,   20.2185,   21.2391,   21.3679,   20.7007,   19.7837,   20.5514,   19.0861,   19.0044,   19.4490,   20.6034,   22.3498,   23.6273,   25.3103,   26.8905,   28.9518,   30.8500,   32.4601,   32.8032,   31.6003,   31.9520,   33.3476,   34.5297,   36.6954,   38.2184,   39.4580,   39.5318,   41.8398,   42.4335,   43.3071,   43.9373,   44.7398,   42.7562,   42.9048,   44.0316,   44.1809,   42.1744,   40.9460,   40.9625,   42.7694,   44.0196,   42.6383,   40.7101,   39.9732,   39.0155,   39.3102,   41.4408,   41.4296,   37.5384,
23-SEP-2002 09:04:13.33 ,    8.1552,    8.5721,    9.0741,   10.6625,   11.2385,    9.7220,    9.7248,   10.2310,   10.7195,   11.1441,   12.0237,   13.4605,   15.0974,   17.0923,   18.8421,   19.8413,   20.8068,   21.5179,   21.5096,   21.4445,   21.3827,   20.8348,   19.3878,   18.0597,   17.6582,   17.7448,   18.5781,   21.8904,   24.6106,   25.8370,   27.3502,   29.0616,   30.5982,   32.8745,   33.4696,   32.0406,   31.2663,   32.2618,   34.7982,   37.3821,   37.5903,   39.7305,   40.9195,   41.1462,   43.7235,   44.6807,   45.4329,   46.6823,   45.2121,   44.2363,   44.9871,   44.8627,   43.1949,   42.4898,   43.3637,   43.1018,   42.9540,   38.9159,   41.1147,   38.9628,   39.9438,   40.1413,   39.9253,   39.2566,   37.4644,
23-SEP-2002 09:06:47.93 ,    8.7948,    9.6778,   10.6991,  999.0000,   12.0242,    9.7721,   10.3767,   10.3068,   10.7934,   11.4996,   12.6888,   14.3651,   16.0209,   17.4694,   19.0941,   20.0663,   20.7472,   21.3180,   21.3164,   21.5874,   22.0936,   21.6532,   23.9642,   21.9119,   21.0641,   20.8831,   21.6634,   22.5843,   23.9565,   25.1905,   26.2057,   29.3646,   32.1365,   33.5401,   34.8695,   32.9609,   32.6445,   34.6409,   37.3991,   39.3762,   40.2673,   41.4062,   42.5464,   42.3412,   44.5769,   46.5027,   46.5072,   46.8247,   47.4605,   46.6275,  999.0000,   44.8586,   42.5834,   41.7854,   43.6352,   43.2530,   42.9065,   42.4962,   40.4906,   39.4426,   39.6961,   40.3674,   39.7464,   38.7383,   39.1152,
23-SEP-2002 09:09:22.70 ,   -2.0043,  999.0000,   15.5336,  999.0000,   10.8786,    9.4511,    9.7806,   10.0548,   10.8002,   11.4112,   12.3644,   12.9563,   14.1810,   15.9796,   17.9545,   18.7196,   18.9767,   19.0008,   18.8385,   19.2454,   19.5145,   19.0832,   18.6941,   19.8416,   20.6383,   21.5111,   21.8998,   22.9517,   22.8340,   22.8156,   23.5472,   25.9394,   28.5309,   30.5528,   32.4154,   31.6233,   31.9317,   33.7612,   35.7087,   41.9040,   38.9415,   40.7001,   42.9790,   42.4456,   44.4858,   45.6430,   45.6645,   46.5639,   44.1237,   43.9851,   45.5177,   46.3776,   45.9071,   43.5189,   43.6763,   43.5772,   43.8137,   40.3196,   41.2307,   40.5786,   41.2547,   41.7212,   42.9836,   42.3238,   41.5959,
23-SEP-2002 09:11:57.42 ,   -3.4579,  999.0000,   14.9411,  999.0000,   10.7020,   10.0563,    8.8338,    9.7443,   10.2757,   10.4845,   11.6949,   12.3437,   13.4300,   15.1329,   17.2377,   19.0470,   19.3638,   19.8735,   20.2799,   19.9678,   18.6398,   18.3961,   18.8706,   17.9892,   18.9197,   19.9143,   21.8331,   22.9686,   22.6191,   23.0246,   24.5888,   26.6229,   29.0612,   30.9797,   31.6307,   30.5265,   30.7631,   31.8682,   35.1259,   34.3666,   34.8260,   39.6994,   41.7972,   42.1833,   42.8095,   42.8734,   44.0592,   44.0234,   42.6377,   41.9040,   42.9769,   43.7190,   44.3100,   42.7209,   42.7589,   44.2310,   44.5792,   42.4583,   40.9301,   40.1369,   40.7045,   41.3282,   42.7089,   42.5004,   40.8075,
23-SEP-2002 09:14:32.91 ,    8.2969,    7.8759,    8.7547,    9.9274,   11.5718,   10.3241,    9.5757,   10.1430,   10.4794,   10.7696,   11.6843,   12.7620,   14.9647,   16.2456,   17.8567,   19.9058,   19.6476,   20.0415,   20.9412,   20.6241,   19.1027,   19.0166,   20.0389,   17.3294,   17.8048,   18.6969,   20.6559,   21.8327,   22.4332,   23.0587,   25.0366,   26.6286,   28.5140,   30.7870,   30.6446,   30.5654,   30.9558,   31.7173,   34.2186,   10.2827,   11.4154,   40.9005,   43.4502,   44.7380,   46.5772,   46.1433,   46.2526,   46.1888,   42.5059,   44.3676,   42.6321,   43.8322,   44.4311,   43.7745,   44.4154,   43.5408,   39.5959,   43.6901,   41.7793,   41.0811,   41.3993,   42.0063,   43.1783,   41.1911,   41.4549,
23-SEP-2002 09:17:53.31 ,    8.2492,    8.3290,    9.0092,    9.7842,   10.2741,    9.8540,    9.9571,   10.7062,   10.5657,   10.6278,   11.0189,   12.2732,   14.6061,   15.6099,   17.6008,   19.6498,   19.9021,   19.8802,   19.6157,   19.3942,   19.0686,   19.1142,   17.8249,   16.9682,   17.3155,   17.9040,   19.6358,   21.4205,   22.3027,   22.7070,   23.9135,   24.8603,   26.8055,   28.5524,   28.9147,   29.1032,   29.8053,   30.7378,   32.9995,   35.7118,   44.6663,   38.8754,   42.2377,   44.9765,   44.9862,   45.0935,   44.9134,   43.3278,   43.0433,   42.9973,   42.5830,   43.8404,   45.0516,   45.4383,   46.9584,   41.2864,   42.9701,   41.2904,   41.6193,   41.7274,   42.3179,   43.1386,   42.2765,   43.5371,   43.9996,
23-SEP-2002 09:20:34.57 ,    6.9523,    6.6420,    8.0124,    8.8726,    9.6795,    9.8734,    9.5613,   10.6284,   10.5167,   10.4396,   11.3182,   12.1916,   13.3087,   14.8523,   16.8029,   18.4789,   19.7590,   19.9338,   19.3239,   18.7211,   19.1017,   20.0373,   17.2570,   15.7857,   15.8403,   16.7024,   18.7716,   21.9281,   23.2605,   23.5731,   24.0022,   24.4813,   25.5280,   27.5385,   28.3028,   29.2924,   31.0513,   33.2927,   36.0472,   38.2756,   38.3690,   38.6045,   44.4462,   43.5166,   45.3918,   45.2971,   45.6443,   44.3922,   42.8927,   42.4688,   43.2145,   44.4575,   45.9600,   45.9559,   45.9357,   45.3847,   44.3611,   40.5253,   42.2712,   41.4590,   43.3601,   45.1033,   45.4933,   47.7882,   49.6398,
23-SEP-2002 09:23:15.67 ,    4.0194,    4.5644,    6.1548,    6.8620,    7.8471,    8.7758,    9.1134,   10.3226,   11.0039,   10.9458,   11.8651,   12.5927,   13.5039,   14.9717,   16.6334,   18.1841,   18.8753,   18.6023,   18.4334,   18.0847,   18.1042,   18.8941,   20.3120,   16.5945,   17.3898,   19.5611,   21.1717,   24.4369,   25.5811,   25.3156,   26.3504,   27.5764,   28.9807,   30.4262,   30.9417,   31.5663,   32.9934,   36.8884,   39.5471,   39.5040,   41.4046,   45.0388,   47.8097,   47.8600,   45.3457,   45.1127,   43.2682,   42.7120,   40.4737,   39.4844,   37.9295,   43.0521,   43.6522,   44.8068,   44.2045,   43.4112,   42.3613,   43.4399,   42.3641,   40.8465,   41.6739,   43.1349,   42.5199,   41.2915,   40.1058,
23-SEP-2002 09:26:02.91 ,    6.2499,    7.5118,    7.8222,    8.1714,    8.4144,    9.2203,    9.5748,   10.2821,   10.8792,   11.0202,   11.4449,   12.4986,   14.2722,   15.1413,   16.8760,   18.5660,   18.8403,   18.9935,   18.8297,   19.0700,   19.9652,   20.2199,   20.6371,   21.2303,   22.9489,   24.7522,   21.7553,   24.1271,   27.0360,   27.7288,   27.8042,   28.6963,   29.9373,   30.5102,   30.9856,   32.1345,   32.8177,   34.7561,   36.0263,   37.5052,   43.3298,   44.9338,   45.5619,   46.4950,   43.7437,   43.5022,   43.1108,   40.3160,   34.5228,   31.2340,   27.6943,   44.0842,   45.3061,   43.8076,   42.5169,   44.9612,   43.1134,   42.6273,   40.1485,   41.4721,   41.4736,   41.2715,   43.0819,   42.2138,   42.7246,
23-SEP-2002 09:28:45.53 ,    8.3888,    9.2699,   10.0230,   11.3520,   12.2372,   11.6802,   11.8903,   12.0390,   11.9511,   11.3691,   11.5820,   12.0064,   13.5004,   15.0740,   17.1431,   19.3432,   19.5424,   19.8432,   19.9711,   20.5010,   22.0990,   23.2614,   19.8059,   20.0966,   20.3403,   21.3726,   22.6858,   23.7079,   26.3140,   27.9735,   27.8940,   28.6760,   30.8800,   31.4884,   31.4205,   32.2825,   32.8872,   33.4688,   34.8603,   37.5016,   44.3118,   43.4372,   44.6143,   45.8905,   44.9200,   43.0184,   44.6598,   46.0782,   44.1573,   42.6248,   41.4593,   43.1855,   45.9067,   45.7777,   43.4831,   42.4199,   42.8462,   42.1610,   41.6355,   40.7504,   41.0845,   42.5462,   42.0664,   42.8377,   42.0046,
23-SEP-2002 09:31:27.52 ,    7.5652,    7.1931,    8.9818,    9.9061,   11.8994,   11.9349,   11.9847,   12.1366,   12.1216,   11.4776,   11.8163,   12.2298,   13.1784,   14.8943,   16.7438,   18.4468,   18.4213,   18.7587,   19.3538,   19.9531,   20.1129,   20.1793,   21.1580,   19.5675,   21.0730,   22.2788,   23.4387,   25.0314,   26.1125,   26.5843,   28.1532,   28.7118,   30.7272,   30.4293,   31.5988,   32.5441,   33.0231,   33.7421,   35.0423,   36.5685,   42.5703,   41.9101,   41.9891,   44.2782,   45.2219,   43.4461,   43.8811,   45.2445,   45.1277,   43.9881,   43.7685,   43.3328,   44.8240,   44.6921,   42.0998,   42.1098,   43.1521,   42.1808,   39.6526,   39.5050,   41.8122,   43.4622,   45.0893,   43.9621,   40.9882,
23-SEP-2002 09:34:08.64 ,    9.1446,    9.5332,   10.8166,   10.8704,   12.9471,  999.0000,   12.1336,   12.2482,   12.2121,   12.2298,   12.7739,   13.4524,   14.1018,   14.9840,   16.2509,   17.3117,   17.1583,   17.4402,   17.9301,   18.8171,   18.7765,   18.1695,   18.4627,   16.6165,   17.0681,   18.2840,   20.0132,   23.6016,   24.8574,   25.8322,   27.6457,   28.9144,   29.6895,   30.1892,   30.6209,   30.8268,   31.0961,   31.7885,   32.5434,   34.2233,   36.6595,   39.8856,   41.6780,   44.4181,   42.8404,   44.3730,   44.4984,   44.8453,   45.7956,   44.9497,   43.2397,   42.2241,   42.9553,   41.5462,   39.3405,   39.9838,   41.4159,   40.4099,   39.8577,   39.7817,   41.5279,   42.5921,   43.2913,   43.7423,   43.1079,
23-SEP-2002 09:36:50.00 ,    6.6011,    8.8160,   10.0415,   11.5038,   13.1678,  999.0000,   11.9316,   12.3177,   12.8222,   13.0853,   13.4330,   13.9818,   14.5118,   15.4224,   17.0503,   17.8344,   17.2482,   17.2504,   17.3114,   18.0436,   19.2016,   19.8671,   19.1001,   19.7270,   21.8595,   23.5859,   25.3719,   24.7767,   24.8112,   25.4933,   28.4068,   28.3950,   28.9806,   30.0245,   31.1029,   30.6468,   30.9311,   31.9531,   32.7432,   34.6308,   37.4748,   40.9732,   43.7943,   45.4870,   45.8464,   46.3264,   46.6663,   45.2098,   45.7793,   44.7788,   43.6684,   40.0945,   38.8795,   40.0377,   40.2785,   40.2604,   40.7258,   40.2533,   38.7056,   38.9768,   42.3247,   43.3756,   43.9925,   42.8284,   43.9384,
23-SEP-2002 09:39:31.23 ,    3.6272,    6.1080,    7.4596,    8.4913,    9.9335,   10.9057,   10.7721,   11.4712,   12.4785,   13.2917,   13.7109,   14.3593,   15.2639,   16.8466,   19.3301,   20.0407,   19.5436,   18.9398,   18.0695,   17.9639,   19.0616,   20.4232,   19.6925,   16.1482,   16.2305,   18.4010,   20.7387,   22.2172,   23.7834,   24.6376,   26.7547,   26.8439,   28.0320,   29.5662,   30.1281,   29.0875,   29.7015,   31.0765,   32.7259,   34.7150,   43.4395,   40.7259,   43.2280,   44.1308,   45.6038,   44.7922,   43.0166,   42.6219,   42.8898,   42.0208,   40.5276,   41.9304,   42.3652,   41.0975,   42.1890,   43.0448,   41.4100,   41.3554,   40.8335,   41.0037,   42.9019,   44.6131,   46.3299,   45.4297,   44.3732,
23-SEP-2002 09:42:12.66 ,    9.0593,    8.2286,    9.2331,    9.9829,   10.9592,   11.4298,   11.6315,   11.9315,   12.5866,   13.0928,   13.7312,   14.2151,   15.2543,   17.2897,   19.9722,   20.3533,   20.4105,   18.9962,   17.6837,   18.3882,   19.0297,   19.7876,   17.8455,   17.0656,   16.5789,   18.6284,   22.5161,   24.3661,   25.3448,   26.0925,   26.4271,   26.6818,   27.4720,   28.8552,   29.9185,   30.4589,   31.5217,   32.4296,   33.7969,   36.4612,   44.7242,   40.0709,   42.9510,   44.2175,   45.7715,   46.7674,   45.8688,   43.4837,   43.9514,   43.0011,   42.2364,   42.5608,   43.2351,   42.9369,   45.1899,   44.2053,   42.2004,   39.8265,   41.7098,   42.6185,   43.7659,   44.5540,   45.6527,   45.1493,   44.3468,
23-SEP-2002 09:45:27.92 ,    8.9465,  999.0000,    7.9138,    9.1221,    9.2111,    9.9273,   10.9995,   10.5345,   11.1126,   11.5861,   12.4194,   13.0490,   13.5431,   14.4432,   16.2449,   16.3671,   16.5349,   16.1968,   15.5697,   16.5763,   17.7486,   18.6998,   16.5521,   17.8260,   17.0927,   17.2682,   19.9118,   21.6964,   22.8833,   24.4466,   26.2591,   27.7642,   29.3698,   31.1375,   32.1202,   33.1846,   33.7857,   34.4550,   36.3017,   39.3816,   42.3762,   42.8302,   45.2893,   48.4491,   48.4860,   48.0468,   47.8776,   44.6934,   44.5888,   43.9292,   41.0900,   41.1712,  999.0000,   41.5952,   41.5336,   41.2289,   41.5687,   42.5012,   41.9426,   41.6753,   42.6418,   44.7776,   45.3610,   44.2601,   45.2548,
23-SEP-2002 09:48:09.52 ,   -2.1097,  999.0000,   14.7103,  999.0000,    8.6173,    9.4366,   11.0752,   11.1035,   10.8063,   11.4911,   11.8326,   12.1231,   12.7607,   13.1544,   14.6153,   15.3524,   15.2547,   15.4533,   15.4805,   15.7369,   16.7912,   18.2918,   13.3569,   14.3153,   15.6296,   16.1166,   18.4363,   19.3548,   21.6299,   23.9149,   24.4857,   26.3894,   28.4724,   30.7319,   32.5072,   33.9503,   34.1567,   35.9056,   36.9462,   38.6285,   38.9243,   41.6726,   42.1475,   47.2739,   49.2435,   48.4592,   49.0333,   45.7147,   44.0426,   42.4164,   42.5315,   41.4261,   41.3236,   41.5567,   42.8433,   41.9972,   41.6067,   41.0679,   41.9730,   42.6664,   43.0366,   44.5235,   44.8524,   43.4844,   43.1992,
23-SEP-2002 09:50:50.59 ,   -3.9333,  999.0000,   16.5495,  999.0000,    9.4599,    9.7845,   10.8090,   11.1697,   11.5879,   13.1084,   12.6663,   12.3758,   12.7855,   13.4668,   14.5841,   15.8518,   16.3897,   16.3575,   16.1729,   16.4467,   16.2221,   15.8419,   16.4262,   17.7742,   19.1963,   20.3608,   21.1201,   18.7760,   20.1279,   22.4850,   24.2674,   25.1806,   26.7448,   29.9232,   33.8847,   35.8672,   34.9939,   36.0338,   36.7840,   37.0793,   37.8845,   39.6676,   48.3811,   46.3023,   48.1039,   48.2091,   48.3708,   45.7924,   44.3144,   40.9954,   42.6463,   40.3904,   41.4634,   41.3718,   40.9205,   42.1695,   41.6306,   40.1043,   41.2342,   41.9775,   41.7587,   43.0567,   45.0175,   43.8171,   44.4325,
23-SEP-2002 09:53:31.58 ,    7.6279,    9.7699,    9.8703,    9.9738,    9.9526,    9.6560,   10.3126,   11.1415,   12.2110,   13.3857,   13.1943,   12.9920,   12.7148,   12.8799,   13.9865,   16.3483,   16.7296,   16.3609,   16.7551,   17.4325,   17.3336,   16.9122,   15.9160,   15.7018,   16.8050,   17.9845,   18.3660,   19.2120,   21.0385,   23.3702,   24.4984,   25.5550,   28.1999,   31.7163,   33.2849,   34.4887,   33.2506,   32.8800,   34.1263,   36.0633,   46.5765,   46.7386,   40.2165,   42.7645,   44.5423,   44.5227,   44.9443,   43.7377,   43.1351,   42.1678,   43.1321,   43.2268,   42.5409,   42.4424,   42.2141,   43.1948,   44.2552,   41.8329,   42.0213,   42.4477,   42.3267,   42.9330,   43.2459,   43.6843,   43.9656,
23-SEP-2002 09:56:12.76 ,    8.9257,   11.0917,   12.6177,   12.3875,   13.3149,   13.6160,   12.9924,   13.2915,   13.0658,   12.9660,   12.5676,   12.6008,   12.5609,   12.6515,   13.7111,   15.7355,   16.2953,   16.1241,   16.6776,   17.6523,   17.8575,   17.5805,   15.6228,   15.6271,   17.0924,   18.5298,   19.7566,   20.6146,   22.1903,   23.7589,   24.0534,   25.0437,   27.7674,   29.0845,   31.2319,   33.4683,   32.3173,   32.5008,   33.3096,   34.5263,   36.5347,   35.2082,   46.3543,   45.2356,   46.3697,   45.0476,   45.5594,   42.7323,   41.5991,   42.3574,   43.7937,   44.4299,   41.9259,   41.2383,   40.4151,   42.0606,   42.6635,   39.5461,   39.7267,   41.5699,   42.2355,   43.1416,   44.4793,   43.7985,   43.3484,
23-SEP-2002 09:58:54.10 ,    6.0031,    7.0568,    9.5279,    9.8955,   11.8895,   13.1946,   12.6805,   12.8309,   12.5816,   12.4590,   11.7789,   12.0785,   12.4583,   12.6229,   13.7263,   14.8763,   15.0133,   15.0224,   15.3767,   15.7542,   15.5608,   15.5669,   16.7354,   17.5328,   17.0677,   18.2492,   19.0651,   19.9688,   20.6553,   21.5605,   22.2635,   23.8138,   25.9438,   28.0040,   28.6738,   30.5511,   32.2090,   33.1465,   39.6178,   34.7001,   37.4373,   45.9795,   45.9406,   41.3277,   45.9202,   46.9769,   46.0092,   43.3266,   42.4555,   44.3435,   45.3483,   44.8420,   41.8530,   39.9351,   40.6741,   42.5534,   41.9113,   39.5572,   39.3636,   39.6777,   40.3489,   41.5014,   43.1285,   42.9646,   42.8744,
23-SEP-2002 10:01:35.37 ,    7.6629,    5.9104,    6.2507,    6.8178,    6.8977,    7.8227,    9.8961,   10.3322,   10.7622,   11.5192,   11.7963,   12.0211,   13.1090,   14.1633,   15.2574,   16.0328,   15.4344,   15.5303,   15.3487,   15.1593,   14.9661,   15.1120,   16.1820,   16.8653,   15.5018,   16.3896,   17.7127,   19.0321,   20.1166,   20.8700,   20.9486,   21.4981,   23.6645,   31.8433,   27.5023,   29.4207,   31.3624,   32.0548,   32.8568,   34.6173,   36.9809,   47.5154,   46.7790,   46.3719,   47.6756,   48.3671,   47.5625,   45.4005,   44.3874,   44.9419,   43.9434,   42.2680,   42.4399,   41.4816,   41.7218,   41.6041,   42.1608,   41.2191,   40.3729,   39.9463,   40.8642,   43.8286,   46.5408,   42.7143,   42.3551,
23-SEP-2002 10:04:16.68 ,   10.6858,    8.3679,    8.2535,    8.0806,    6.5375,    6.8245,    9.0410,    9.1788,    9.9947,   11.0280,   11.8565,   12.1403,   13.2970,   15.1429,   16.4937,   17.0280,   15.8792,   16.3406,   16.8804,   17.3222,   17.3766,   17.0224,   14.4670,   15.5774,   16.9067,   17.9591,   19.1046,   19.8115,   20.8344,   22.3232,   23.0414,   23.8442,   25.3009,   27.2713,   29.9615,   32.1960,   31.5783,   37.8323,   31.4228,   35.3430,   35.0531,   48.5724,   48.0909,   47.3303,   46.8988,   48.1139,   44.4494,   43.8802,   42.3583,   42.7418,   41.4286,   42.0486,   43.2719,   41.9109,   40.2724,   40.9137,   40.8451,   39.6648,   40.6766,   40.2806,   41.7246,   43.6488,   46.7896,   47.5832,   45.6059,
23-SEP-2002 10:06:58.37 ,    8.3988,    7.6148,    8.7191,    8.9432,    8.8315,    9.2886,   10.3997,   11.2295,   11.9657,   12.5666,   13.2394,   13.7910,   14.8387,   16.9676,   18.7624,   18.4035,   16.5829,   16.5546,   17.2736,   17.8414,   18.0889,   17.8789,   18.2073,   19.9680,   18.6057,   19.6312,   20.8620,   21.8414,   22.7062,   23.4334,   23.9298,   24.8215,   26.2200,   27.5941,   31.0042,   32.4645,   32.2773,   36.9508,   39.9142,   35.7435,   36.1191,   39.0544,   47.7056,   47.4078,   47.4697,   48.2331,   47.3570,   45.9346,   46.0043,   43.5386,   42.8585,   42.4310,   41.5884,   43.6895,   43.3871,   41.8045,   41.4935,   40.8690,   39.0906,   40.1623,   40.8705,   44.1104,   46.2621,   46.7863,   45.7511,
23-SEP-2002 10:09:40.68 ,    7.1375,    7.0462,    8.2336,    8.6376,    9.4302,    9.7767,   11.2275,   12.3757,   12.7300,   13.6885,   14.6257,   14.7829,   15.8631,   18.8950,   20.2958,   19.6218,   18.1508,   17.8078,   17.4833,   16.8675,   17.0178,   17.6341,   17.0371,   18.0697,   18.9016,   20.1093,   21.2799,   21.9434,   22.5772,   22.7395,   23.3531,   25.2576,   27.0117,   28.6904,   30.9522,   32.9853,   33.3913,   31.9396,   31.9825,   33.5696,   36.6070,   40.6175,   43.5893,   46.4928,   45.5126,   46.8764,   44.2786,   44.2561,   43.1999,   45.9455,   42.3376,   42.6991,   41.7032,   43.1934,   43.2198,   41.0000,   41.3088,   40.5965,   38.0969,   39.3426,   40.9682,   43.5940,   45.1917,   45.1787,   44.7217,
23-SEP-2002 10:12:27.64 ,    7.7192,    7.8702,    9.2673,    9.7611,   10.0788,   10.4146,   11.3480,   12.3945,   12.8089,   13.8519,   15.3663,   16.0955,   16.1559,   18.8549,   20.3427,   19.7293,   18.4247,   18.2878,   18.0979,   17.3505,   17.1876,   17.6693,   18.2875,   18.9083,   19.7531,   20.2752,   21.0885,   22.2380,   22.7726,   22.1219,   22.7129,   24.2589,   25.6915,   27.5356,   29.2954,   31.6334,   31.8882,   31.8202,   31.9929,   33.5072,   36.7428,   38.4022,   40.6945,   43.6614,   44.3861,   44.9356,   43.9795,   45.3163,   47.0729,   44.5449,   44.5263,   44.6964,   44.6246,   37.8518,   37.0932,   41.2450,   36.7642,   38.6991,   32.7089,   38.8898,   41.6456,   43.8599,   44.2466,   44.7095,   45.6067,
23-SEP-2002 10:17:34.53 ,    7.2229,    7.8317,    9.3151,    9.8994,    8.5999,    9.6213,   10.2360,   11.2353,   11.9601,   12.3393,   13.1168,   15.2653,   16.2396,   17.1221,   18.2843,   18.4223,   16.5656,   16.0159,   15.4537,   15.7886,   16.3219,   16.5266,   15.5919,   16.6841,   17.6284,   18.2660,   18.5239,   19.0185,   19.6151,   19.3180,   19.4581,   21.2533,   23.5061,   25.9187,   27.7916,   29.4068,   30.0308,   29.0613,   28.1252,   43.1127,   26.8758,   27.7785,   29.6976,   31.8674,   33.9006,   35.1817,   37.1044,   42.1975,   44.5937,   45.4263,   44.9625,   42.1720,   41.4255,    2.4879,    6.9391,   39.5682,    7.5482,   40.6903,    9.1651,   44.5708,   44.9025,   45.0531,   46.0573,   47.3740,   46.9826,
23-SEP-2002 10:20:16.02 ,    6.3194,    6.9062,    6.4900,  999.0000,  999.0000,  999.0000,    9.3379,   10.4213,   12.1171,   12.7102,   12.4778,   13.8924,   16.9171,   17.6706,   17.9806,   18.4781,   17.7954,   17.0861,   15.6274,   16.2566,   17.3512,   17.7218,   15.5071,   16.4043,   17.1863,   17.7594,   18.2794,   19.2264,   19.5814,   19.2951,   20.2253,   20.9480,   21.4135,   24.6581,   26.6316,   24.2011,   29.4174,   22.8118,   30.4817,   42.7143,   28.0451,   33.4145,   36.7210,   39.8109,   48.1098,   46.7019,   44.1878,   44.0866,   43.0435,   42.8812,   43.5549,   43.7045,   43.0298,   42.9432,   41.5407,   43.1945,   37.9626,   39.4271,   39.3628,   41.3889,   43.0529,   43.5012,   45.2720,   44.2753,  999.0000,
23-SEP-2002 10:22:57.12 ,    7.4885,    7.5174,    7.2765,  999.0000,  999.0000,  999.0000,    8.6350,    9.3807,   11.1800,   11.5652,   11.9984,   13.4838,   16.1345,   17.9115,   18.5466,   18.8897,   19.0542,   18.7122,   17.4985,   17.4173,   17.8011,   18.1154,   18.8418,   18.2152,   18.5704,   18.5757,   19.0121,   19.7204,   19.8904,   20.2522,   21.1997,   20.0410,   18.7847,   29.2119,   29.6494,   16.2448,  999.0000,   11.1725,   39.8820,   43.8689,   12.7836,   16.7676,   21.1913,   25.6574,  999.0000,   43.6409,   37.6203,   37.0366,   38.0888,   37.5578,   39.8421,   41.1345,   43.1223,  999.0000,  999.0000,   42.2769,   41.2963,   39.4981,   41.2363,   43.1085,   43.5890,   44.0590,   45.7865,   46.4761,   46.2118,
23-SEP-2002 10:25:38.69 ,    9.2824,    9.8415,   10.3824,   10.9742,   10.4989,    9.8515,   10.3438,   11.1789,   12.3828,   12.0413,   12.6535,   13.5322,   15.5265,   17.7390,   18.5744,   18.5546,   19.1245,   19.2884,   18.1881,   17.5645,   17.8533,   17.8236,   17.9347,   18.4239,   18.9031,   19.2356,   19.2901,   19.1434,   19.4059,   19.8356,   21.1414,   23.6430,   25.8899,   28.0115,   28.9283,   29.6862,   30.5752,   31.2716,   31.8186,   40.3737,   36.6153,   42.8271,   46.0029,   47.9451,   47.8399,   46.5922,   45.9941,   45.3870,   45.3574,   29.6302,   46.1888,   43.7703,   43.1173,   42.5616,   40.6462,   41.4046,   42.2978,   40.3469,   40.9742,   41.4984,   42.8281,   45.5665,   47.4375,   46.9229,   45.2697,
23-SEP-2002 10:28:20.00 ,    9.7834,   10.9268,   12.0707,   13.2847,   11.5943,   11.1456,   11.2675,   11.6455,   12.8790,   12.6093,   13.2826,   13.5480,   14.9051,   17.0522,   18.3584,   18.0486,   18.7271,   19.2906,   18.1478,   17.5554,   18.4728,   18.5424,   17.5485,   18.6200,   19.0264,   19.2995,   19.1806,   19.1863,   19.2226,   19.2904,   20.2609,   23.1104,   25.4456,   27.0262,   28.4154,   28.7846,   30.1508,   31.9535,   33.6344,   40.3429,   42.0662,   39.2648,   44.6218,   46.8853,   48.3044,   44.7667,   45.3923,   45.8088,   45.0108,   -0.6820,   43.9829,   42.5707,   41.9649,   40.9600,   41.0279,  999.0000,   41.9641,   43.7515,   42.8248,   43.4604,   44.7729,   45.9064,   46.7679,   47.6209,   45.6713,
23-SEP-2002 10:31:01.21 ,   11.7559,   13.0975,   16.1167,   16.3657,   13.8318,   13.6991,   13.5315,   12.8236,   13.1198,   14.0837,   14.2157,   14.3026,   14.7792,   16.3466,   18.1753,   18.4559,   18.7507,   18.3811,   17.7216,   17.7750,   18.2812,   18.4720,   19.5237,   18.0791,   18.8667,   19.5282,   19.0614,   18.5294,   18.8843,   20.5811,   22.2056,   24.6496,   26.5901,   28.5802,   28.9402,   28.5849,   29.0642,   28.9609,   29.4531,   32.2672,   33.8330,   35.3384,  999.0000,   47.3700,   46.3160,   46.6335,   46.9056,   47.4809,   47.1672,   45.8674,   45.3399,   42.2681,   41.4903,   43.3815,   43.2626,   42.5565,   41.6271,   41.7718,   42.9640,   43.2071,   43.4963,   43.9804,   46.5275,   47.5771,   46.8062,
23-SEP-2002 10:33:43.35 ,   11.3633,   13.0528,   14.5029,   14.4676,   13.7766,   13.4088,   13.2775,   13.1218,   12.8790,   14.4351,   14.8469,   15.3774,   15.9656,   17.5345,   18.6395,   19.4272,   19.1139,   18.0775,   17.1141,   17.1322,   17.8146,   18.7037,   19.7498,   19.5759,   19.7129,   20.3109,   19.8095,   19.5000,   20.0709,   22.4188,   27.9145,   26.4177,   27.4429,   29.7395,   30.3749,   30.1018,   29.7214,   28.1726,   29.0789,   33.1027,   36.0148,   39.5265,   42.0091,   45.5295,   46.6573,   46.2361,   47.3326,   46.5757,   45.4274,   45.2424,   45.3814,   44.6012,   43.6408,   43.5638,   43.7221,   43.1626,   41.1717,   40.6278,   43.4013,   43.0018,   44.2327,   44.7902,   46.5656,   46.2462,   46.6583,
23-SEP-2002 10:36:26.08 ,    9.3199,   10.3398,    9.9835,   10.7972,   10.7390,   10.6768,   10.6110,   11.4410,   12.3824,   13.2880,   13.9655,   15.0600,   15.9697,   17.5296,   18.5203,   19.1228,   19.1458,   18.5775,   17.7466,   17.3595,   18.3302,   19.4560,   20.1385,   19.8502,   20.7380,   21.8119,   21.1358,   20.0833,   20.6991,   21.6330,   23.2359,   26.1268,   27.6952,   29.2347,   30.5438,   31.0537,   30.1775,   29.5662,   32.0106,  999.0000,  999.0000,  999.0000,   42.0405,   45.4003,   47.9380,   47.5287,   47.9173,   47.7130,   47.3852,   47.6615,   47.2791,   43.9856,   43.2607,   42.5999,   43.9392,   44.4155,   41.2897,   40.4315,   41.7478,   43.1288,   45.4984,   46.1943,   47.3260,   47.7844,   46.5385,
23-SEP-2002 10:39:07.55 ,    8.7940,    9.2497,    9.9848,   11.0635,   11.1138,   11.1412,   11.2829,   11.8568,   12.7553,   13.3156,   13.5920,   14.4502,   15.6381,   16.9658,   17.9586,   18.2678,   18.5345,   18.4446,   17.4622,   16.8037,   17.5667,   18.6718,   19.3743,   18.3585,   19.3736,   20.9127,   21.3143,   20.1442,   19.7142,   20.2010,   21.3514,   24.5874,   25.0714,   27.5419,   29.2458,   28.9092,   30.3485,   31.9929,   33.7398,   36.7301,   40.4935,   42.1409,  999.0000,   45.6157,   44.8933,   48.0250,   47.1890,   47.7384,   47.3129,   47.3485,   47.0746,   44.1913,   43.4500,  999.0000,   42.4044,   43.8176,   41.9237,   40.2701,   39.6703,   42.2590,   45.3237,   46.6221,   47.8402,   48.2949,   47.9645,
23-SEP-2002 10:41:48.67 ,    7.5991,    8.3531,    9.4114,  999.0000,   10.6833,   10.8131,   11.2465,   11.1650,   11.6327,   12.0617,   12.3536,   13.1391,   14.1135,   15.6829,   17.4879,   18.2082,   17.8431,   17.3417,   16.0438,   15.5936,   16.4451,   17.4198,   15.5099,   16.3957,   17.2950,   19.2850,   19.7822,   19.1192,   19.5934,   20.3713,   20.7918,   22.2234,   23.5540,   24.9866,   27.0149,   28.1489,   30.6679,   26.8728,   34.2618,   36.9859,   39.8026,   40.4316,   34.7791,   45.7865,   47.1146,   47.9346,   46.8592,   46.5289,   47.6209,   46.9383,   47.5792,   48.5204,   46.7782,   44.7993,   43.1089,   44.4478,   43.4216,   42.0895,   41.5990,   42.9475,   44.0596,   45.5965,   47.3845,   48.7218,   49.2355,
23-SEP-2002 10:44:30.08 ,    7.8749,    8.7941,   10.1866,  999.0000,   10.4166,   10.8939,   11.4649,   11.4081,   11.6891,   11.9851,   12.1214,   12.6247,   13.5729,   14.7108,   16.4489,   17.5122,   17.0667,   16.2132,   14.9137,   14.7982,   15.4607,   15.8354,   16.6510,   17.2739,   16.2055,    8.4888,    8.8832,    8.3393,    7.9064,   19.4317,    8.3182,    9.8723,   11.5333,   13.1598,   28.5523,   29.0993,   18.3151,   37.3178,   34.6913,   38.0273,   45.8075,  999.0000,   46.1825,   52.2106,   50.3310,   48.7877,   47.5904,   41.8192,   47.3946,   48.6409,   49.6644,   49.8784,   29.7222,   47.1924,   44.5721,   44.2994,   42.7752,   43.4275,   44.3239,   44.9890,   46.2439,   47.4945,   48.6430,   49.5285,   48.6876,
23-SEP-2002 10:47:11.86 ,    8.6319,    9.7841,   10.5611,   10.8112,   10.2539,   10.9526,   11.6347,   11.6397,   11.7116,   12.3225,   12.7809,   12.8828,   13.5309,   14.6903,   16.0171,   16.5028,   15.8865,   15.0259,   14.0193,   14.3640,   14.8847,   15.2936,   15.5640,   16.5661,   17.7979,  -10.0056,  -11.4966,  -12.9478,  -13.8968,   22.1885,  -16.4217,  -15.6327,  -14.8264,  -14.7422,   29.1063,   29.3739,   -5.2222,  -11.3382,   41.0960,   43.0238,   44.2277,  999.0000,   -3.7010,   45.9137,   43.9865,   42.8813,   40.8427,   39.7435,  999.0000,   55.5439,   54.4592,   53.9250,   51.7403,   49.8944,   46.6401,   46.2287,  999.0000,   46.1099,   45.1575,   45.2550,   46.0118,   47.5906,   47.4032,   45.3278,   44.1720,
23-SEP-2002 10:49:53.06 ,    8.2620,   10.5448,   11.1989,   11.3137,   10.9714,   10.9180,   11.2661,   11.1765,   10.6623,   11.0540,   11.8876,   12.7165,   13.6719,   15.2077,   16.6876,   17.3029,   16.8546,   16.2563,   15.6471,   15.5929,   15.6909,   16.2958,   15.6111,   16.3142,   17.0936,   17.7710,   18.0898,   18.3172,   19.0260,   19.4204,   19.4956,   20.7359,   23.0238,   25.1900,   26.4620,   27.0922,   27.0999,   35.7181,   31.8995,   42.5689,   38.8318,   40.1849,   43.2626,   48.0473,  999.0000,   46.7634,   46.4679,   45.5848,   45.9276,   47.6355,   45.8042,   45.2799,   45.4749,   45.6578,   45.2319,   43.2939,  999.0000,   43.7369,   42.7199,   43.2342,   43.1984,   46.0996,   47.5548,   48.3000,   48.7846,
23-SEP-2002 10:52:35.17 ,  999.0000,   10.4241,   11.1281,   11.4153,   11.3885,   10.6158,   10.7695,   10.8179,   10.4585,   11.2454,   11.5475,   12.5344,   13.6392,   14.8187,   15.9396,   16.9132,   16.8721,   16.4412,   16.1331,   15.8606,   15.8648,   16.7173,   16.5562,   16.4513,   17.4332,   18.7443,   18.7268,   18.7651,   18.9750,   19.6005,   20.0694,   20.7745,   21.5323,   22.8289,   24.2841,   24.9432,   25.7853,   26.9785,   28.9458,   32.3784,   35.4475,   41.9753,   44.8018,   46.8795,   46.8080,   45.7245,   45.6987,   45.2247,   46.5018,   46.5230,   45.3000,   47.7410,   43.2032,   44.8072,   44.1851,   42.5512,   43.8419,   43.1775,   43.8850,   44.5189,   43.6812,   46.0239,   47.0931,   47.6184,   47.8925,
23-SEP-2002 10:55:16.66 ,  999.0000,    7.7965,    8.6628,    9.4367,    9.5724,    9.2746,    9.4936,    9.5533,    9.3607,   10.3352,   11.1817,   11.9926,   13.4255,   14.2690,   15.1016,   16.1764,   16.3852,   15.9611,   15.9973,   16.2480,   16.4053,   17.3261,   15.7362,   16.1050,   17.6195,   19.3278,   19.3302,   19.2911,   19.7525,   20.5687,   20.9136,   22.3375,   23.4834,   25.1258,   26.4582,   26.9236,   27.4448,   29.1755,   30.5085,   33.6248,   34.7699,   46.9465,   44.7818,   47.1725,   47.0690,   46.4756,   47.4243,   47.4302,   46.8906,   45.7141,   45.8530,   42.4155,   42.2288,   43.9717,   44.3757,   43.5404,   43.0739,   42.9464,   41.4662,   43.5298,   44.8765,   46.7442,   46.1371,   45.6525,   46.5003,
23-SEP-2002 10:57:58.14 ,    6.8224,    8.4013,    9.5395,   10.7089,    9.6859,    9.3552,    9.8007,    9.7120,    9.2932,    9.6577,   11.0449,   12.1928,   13.7162,   14.6661,   15.1237,   15.7616,   16.2417,   16.2839,   16.6793,   17.0704,   17.2229,   17.9417,   19.0442,   17.9176,   19.2943,   21.2844,   20.6502,   19.9542,   21.3658,   20.6587,   21.1197,   22.3612,   24.2017,   25.6678,   26.0298,   27.9864,   29.0590,   30.3274,   31.9897,   35.9293,   47.8136,   42.5355,   45.6100,   49.0997,   47.4834,   49.4330,   49.2249,   48.0789,   45.8230,   45.6489,   46.0737,   45.5649,   43.6259,   43.4697,   44.6043,   44.4615,   44.4650,   41.4315,   42.7987,   43.5447,   43.7429,   44.8348,   46.5890,   45.0871,   45.4342,
23-SEP-2002 11:00:39.52 ,   10.0541,   10.5843,   10.8934,   12.0001,   10.3131,   10.3910,   10.5687,   10.3836,   10.0614,   10.7229,   11.4053,   12.7832,   13.8747,   14.4791,   15.2451,   16.1209,   16.1980,   16.3765,   16.4383,   16.6509,   17.0418,   17.9297,   16.7595,   17.4318,   18.0291,   18.3031,   18.0680,   18.5596,   19.6174,   20.1982,   20.9778,   21.9881,   24.3937,   26.0711,   27.5261,   27.8688,   27.9438,   28.4342,   31.8988,   35.3244,   40.0505,   41.7734,   43.3505,   44.2938,   46.5868,   47.5557,   47.7933,   46.7004,   46.8192,   46.4640,   44.3494,   43.9963,   43.1126,   43.3921,   43.9019,   42.1927,   41.1147,   40.9262,   42.1663,   43.0334,   42.2229,   43.3183,   44.5643,   45.7283,   44.8629,
23-SEP-2002 11:03:20.55 ,   11.2688,   11.2648,   11.0988,   11.3244,   10.3348,   10.9100,   10.2843,   10.0406,    9.7284,   10.6279,   11.5217,   12.9359,   14.1667,   14.5365,   15.3007,   16.1462,   15.6190,   15.3613,   15.0967,   15.6114,   16.0734,   17.0665,   18.0608,   17.4601,   17.7960,   17.9298,   18.4016,   18.7115,   19.3877,   20.2571,   20.7393,   22.1058,   23.9382,   25.3761,   26.4191,   26.3419,   26.2749,   28.2294,   31.0161,   35.5989,   40.2429,   43.3089,   45.3741,   45.6289,   46.6420,   48.7773,   48.5144,   49.1511,   48.5955,   47.2927,   46.0437,   45.6143,   43.1819,   42.3797,   42.4407,   41.4914,   42.4338,   39.5357,   40.8383,   43.1247,   43.3740,   44.0244,   45.4151,   46.4698,   45.0645,
23-SEP-2002 11:06:01.59 ,    9.6216,    9.7572,   10.2453,   11.0337,   10.4389,   10.5605,   10.2070,    9.9517,   10.1434,   11.3096,   12.9192,   13.2657,   14.5411,   14.8893,   14.8463,   14.8594,   14.7217,   14.4495,   14.5045,   15.3903,   15.9235,   16.3680,   16.7274,   16.1559,   16.6041,   17.2752,   18.0062,   18.0035,   19.0778,   20.4143,   21.1611,   22.1324,   23.8613,   25.2719,   26.4140,   27.1354,   27.2245,   30.0268,   31.2543,   35.1809,   39.5184,  999.0000,   47.5028,   48.3491,   48.7843,   49.7382,   48.7341,   48.4241,   47.6619,   46.7313,   46.7434,   46.0239,   44.6018,   45.1038,   42.8585,   42.0845,   41.5127,   41.6649,   42.1524,   43.2154,   40.9010,   44.8603,   46.3359,   45.3128,   45.3036,
23-SEP-2002 11:08:43.27 ,    8.7135,    9.6588,  999.0000,   11.9981,   11.9825,   11.4289,   11.5035,   11.4185,   11.9746,   13.0262,   13.9263,   14.5829,   15.9509,   16.0277,   15.8695,   15.4473,   15.4284,   15.4589,   15.9943,   16.8579,   17.4395,   18.0389,   14.3808,   15.2314,   15.9474,   16.2746,   16.3292,   16.4404,   16.9480,   17.7899,   18.2008,   17.8678,   20.5546,   22.4096,   23.1252,   27.2688,   26.1237,   31.2093,   32.4044,   37.4207,   39.0890,  999.0000,  999.0000,   48.7379,   49.0608,   47.7126,   47.4688,   45.9992,   48.2358,   45.5279,   45.9436,   45.9483,   45.0888,   46.2793,   43.6349,   42.3023,   42.6644,   42.1098,   33.3712,   33.4353,   46.9468,   35.3939,   44.2865,   44.3832,   33.5293,
23-SEP-2002 11:11:24.37 ,    8.5039,    9.3399,  999.0000,   11.8587,   12.2293,   11.3815,   11.4649,   11.8928,   12.4228,   13.0285,   13.1322,   14.2687,   14.7173,   15.1381,   15.0818,   14.5111,   14.7544,   15.1791,   15.8850,   16.8508,   17.6691,   18.6150,    8.1213,    9.0653,   11.1375,   11.2655,   11.7093,   11.8919,   12.0662,   12.4828,   12.9301,   13.3526,   14.3381,   14.9409,   16.6625,   33.2485,   22.8033,   30.8454,   40.9165,   37.8022,   46.9758,   46.7181,   48.7470,   49.9529,   48.3928,   47.0125,   46.4209,   47.0795,   55.6770,   45.8146,   45.3237,   44.5287,   44.7856,   44.8006,  999.0000,   45.2596,   45.8527,   44.8560,   16.4845,   19.9227,   20.5813,   21.3082,  999.0000,  999.0000,    9.8831,
23-SEP-2002 11:14:05.83 ,    6.5395,    7.2312,    8.2885,    9.5173,   10.0543,   10.0846,   10.2377,   10.7637,   11.4511,   12.1972,   12.4320,   12.4782,   12.9494,   13.3751,   13.0344,   12.8216,   13.3448,   14.0791,   14.9211,   16.0702,   17.2387,   18.4857,   19.4289,   19.9343,   19.8004,   20.4177,   20.2888,   20.1683,   20.2489,   20.7725,   21.5912,   22.8735,   23.8071,   23.6066,   24.3113,   24.8718,   25.5559,   26.9133,   31.4641,   33.7679,  999.0000,   42.6367,   46.7673,   47.9730,   48.3226,   48.4147,   49.5240,   51.2819,   48.8083,   47.3592,   49.4163,   49.3185,   35.5550,   46.2437,   43.6974,   34.5305,   34.5277,   42.9822,   45.9305,   44.3536,   44.9623,   44.0335,   44.2836,   45.0213,   44.3429,
23-SEP-2002 11:16:47.05 ,    8.1212,    8.8561,    9.5143,    9.4695,   11.0014,   11.0372,   11.3806,   11.7898,   12.6382,   13.1302,   13.1520,   13.5813,   14.5841,   14.2557,   13.2573,   13.2678,   13.5532,   14.2050,   14.8514,   15.6347,   16.9748,   18.4046,   16.3104,   17.3105,   18.6728,   19.1039,   18.7701,   18.3666,   18.3805,   19.2687,   20.0756,   20.2262,   21.5085,   21.7162,   21.7748,   22.2103,   22.7534,   23.4156,   38.8096,   42.8536,   38.5182,   41.7296,   46.1249,   48.7442,   51.1967,   49.2225,   47.8068,   56.0832,   47.8920,   47.2232,   46.9755,   46.3717,   12.5909,   45.3712,   45.7118,   16.4395,   18.7708,   44.7099,   46.7086,   45.0897,   45.9145,   45.0259,   46.1591,   47.2509,   48.2966,
23-SEP-2002 11:19:28.12 ,    9.9192,   11.0153,   11.2564,   11.2155,   12.3101,   12.0648,   12.5390,   13.1915,   13.0391,   12.6603,   13.0726,   13.9049,   14.5508,   13.8212,   13.2267,   13.4742,   14.0352,   14.8041,   15.7192,   16.2229,   16.9459,   17.7501,   17.7959,   15.8074,   15.4216,   15.5232,   15.9524,   15.9892,   15.7060,   16.4111,   17.4690,   17.7975,   18.4588,   19.2797,   20.2725,   24.4937,   25.9305,   26.4695,   30.3177,   31.0814,   33.1299,   36.7832,   45.3222,   45.5745,   50.6229,   49.1713,   47.8546,   47.0784,   48.3035,   48.8007,   49.4029,   48.0710,   47.4286,   46.0260,   47.1344,   46.4213,   45.5873,   46.6218,   47.1387,   49.7195,   49.6912,   50.6771,   48.6973,   49.5875,   53.8238,
23-SEP-2002 11:22:09.11 ,  999.0000,  999.0000,   11.5521,   12.7705,   12.3082,   11.9800,   12.1718,   12.6715,   12.4620,   12.2798,   12.8224,   13.6173,   13.8368,   13.2287,   13.1028,   13.1157,   13.5579,   14.8526,   16.5141,   17.3194,   17.7591,   18.7318,   20.0318,   11.7812,   10.9360,   11.1606,   11.5057,   11.7780,   11.7502,   11.4388,   11.8008,   12.6405,   13.3320,   14.3443,   15.2353,   26.5047,   29.2337,   26.4783,   28.2340,   37.5154,   40.0472,   42.4793,   39.7494,   44.3941,   47.7551,   47.5551,   46.9598,   45.5371,   46.0077,   46.4857,   47.5048,   48.2143,   47.2784,   47.1528,   45.3646,   44.8434,   47.1191,   46.9657,   46.5849,   47.5149,   46.4687,   47.7687,   48.0782,   48.4534,   47.8362,
23-SEP-2002 11:24:50.35 ,  999.0000,  999.0000,   12.3158,   13.4491,   12.5692,   12.2104,   12.4196,   11.9256,   12.1881,   12.9195,   13.5295,   13.9683,   14.0614,   14.3857,   14.8169,   15.1479,   15.2836,   16.3281,   18.3582,   18.8968,   19.1113,   20.4758,   16.8729,   17.3607,   18.4376,   18.8017,   18.3379,   18.4032,   18.2143,   17.8460,   18.6760,   19.9217,   20.7675,   22.2210,   23.7063,   25.5665,   27.2131,   28.0906,   28.5151,   31.3343,   42.3019,   36.6058,   41.0932,   42.4588,   46.7657,   49.0665,   48.1995,   47.2520,   47.5407,   46.4176,   46.0653,   46.8200,   48.0015,   45.9689,   44.1217,   46.3887,   46.7025,   44.4427,   44.1540,   45.1690,   41.1877,   47.6395,   49.4883,   47.6308,   47.0580,
23-SEP-2002 11:27:32.21 ,    9.2697,   10.5765,   11.1378,   11.8730,   11.8787,   11.9145,   12.3371,   12.0595,   12.2008,   12.3441,   12.7423,   12.9240,   12.9999,   13.7158,   14.3014,   14.8705,   15.5993,   16.2433,   17.4050,   18.4209,   19.0326,   20.3231,   12.2764,   13.3728,   14.0275,   13.6197,   12.7415,   12.5593,   12.9204,   13.1701,   13.9046,   14.7937,   15.3699,   18.4158,   21.2560,   24.8704,   26.7653,   26.6882,   27.8554,   31.1494,   35.1291,   35.7115,  999.0000,   40.7440,   44.9696,   46.5749,   48.3420,   46.6633,   45.4922,   45.2773,   44.8519,   46.7616,   47.9168,   37.0244,   46.5079,   36.2564,   34.4360,   33.0522,   32.3201,   33.9407,   48.6536,   34.9719,   36.8952,   36.7686,   43.0758,
23-SEP-2002 11:30:13.38 ,    8.2320,    9.3945,    9.5697,   10.5240,   11.2966,   11.3047,   10.8251,   11.0230,   11.4154,   11.8443,   12.0640,   12.4787,   12.4258,   13.2516,   13.8388,   13.5541,   13.8179,   14.5783,   15.4930,   16.9103,   17.8512,   18.6542,   18.7800,   20.1954,   21.1416,   20.9058,   20.1821,   19.9023,   20.1054,   20.8051,   22.3587,   22.3110,   23.2152,   24.9053,   25.4593,   25.7030,   25.2457,   24.9897,   27.3553,   38.9901,   33.9578,   43.0477,   44.9265,   44.7130,   45.6588,   47.0556,   47.2525,   45.3577,   43.3684,   41.9115,   40.2797,   46.6042,   45.4291,   14.6906,   44.9064,   10.9975,   11.4726,   11.2444,   11.1307,   11.2615,   11.3034,   10.6831,   10.9170,   11.2282,   43.5102,
23-SEP-2002 11:32:55.80 ,    6.8396,  999.0000,    9.4893,   11.2664,   12.5158,   13.3800,   12.5555,   12.7057,   12.5792,   12.1876,   12.2575,   12.1521,   11.5880,   12.6567,   13.6876,   13.7229,   13.3699,   14.1587,   15.0782,   16.1918,   17.3517,   17.5251,   16.5530,   17.2629,   18.2734,   19.2975,   19.7603,   19.6627,   19.8983,   20.3267,   20.7304,   21.0867,   21.9595,   23.2346,   23.9718,   24.9760,   25.3485,   25.6646,   26.9190,   28.6548,   41.9766,   36.9669,   42.0621,   45.1195,   46.1385,   46.7886,   47.0102,   47.1470,   46.9698,   46.7718,   46.0258,   46.4685,   47.2236,   47.7643,   46.9317,   45.0527,   46.0262,   43.9693,   43.6575,   45.4622,   47.7358,   49.8323,   51.0240,   49.0434,   48.4595,
23-SEP-2002 11:35:36.86 ,    6.5576,  999.0000,    9.2966,   10.8437,   11.0061,   12.0987,  999.0000,   12.3381,   12.1190,   11.1667,   11.1249,   11.1543,   10.8229,   11.1171,   12.0723,   12.9194,   13.2821,   14.3144,   14.9867,   15.8785,   16.9597,   17.5313,   17.9709,   17.3972,   17.9838,   18.5968,   19.2625,   19.6958,   19.8045,   20.4272,   21.4608,   22.5604,   22.3279,   23.7207,   25.1027,   25.1851,   25.2475,   26.5614,   28.5534,   32.6380,   34.9930,   39.4998,   43.9735,   45.8430,   46.7636,   48.0782,   47.4915,   48.3446,   47.7522,   47.8798,   47.1386,   48.0327,   48.5906,   49.1510,   47.1384,   46.0810,   45.5515,   43.6548,   44.4206,   45.6436,   47.8062,   48.5488,   50.5486,   50.8691,   50.0244,
23-SEP-2002 11:38:17.75 ,   -4.8460,  999.0000,  999.0000,   16.2928,  999.0000,   10.1374,  999.0000,    9.8840,    9.9463,    9.9671,   10.2751,   10.2585,   10.8634,   10.7608,   11.4519,   12.1971,   13.0108,   13.9514,   14.9363,   15.7493,   16.4706,   17.3088,   15.8710,   16.5105,   17.4517,   17.9710,   18.4885,   18.4826,   18.9985,   19.3637,   19.6790,   20.0908,   21.5261,   22.6028,   23.3441,   23.5036,   23.6064,   25.3310,   28.3935,   33.9851,   37.1328,   49.6987,  999.0000,  999.0000,  999.0000,   49.5496,   50.4181,   49.0038,   47.9287,   49.0789,   47.8407,   48.8874,   51.1111,   51.7247,   49.3773,   48.8221,   49.4904,   46.6516,   49.0476,   50.1528,   51.7446,   50.5304,   50.5783,   50.2905,   49.7965,
23-SEP-2002 11:40:59.35 ,   -5.4192,  999.0000,  999.0000,   18.0505,  999.0000,   11.0763,   10.5865,   10.3864,   10.8856,   11.7399,   12.5106,   11.6376,   11.6219,   11.4087,   12.2019,   12.7561,   13.1859,   14.4583,   15.7398,   16.6771,   17.2236,   17.5393,   16.1362,   16.6130,   17.1667,   17.7448,   18.6023,   19.1313,   19.6299,   19.9688,   19.9946,   20.6404,   21.7550,   22.9179,   24.4987,   24.9925,   24.7174,   25.3496,   27.5257,   30.9326,   35.4086,   41.5867,   45.1443,   47.3508,   49.6469,   48.4246,   46.4585,   46.9313,   46.9772,   48.2348,   48.8316,   47.8974,   48.3988,   46.5191,   46.5016,   54.7931,   54.8286,   46.1639,   53.1342,   53.6217,   53.8488,   52.1236,   51.4570,   50.6307,  999.0000,
23-SEP-2002 11:43:40.59 ,    7.6961,  999.0000,  999.0000,   11.5147,   11.2839,   11.3980,   10.9438,   10.6284,   10.6580,   11.4770,   12.5761,   12.2848,   12.6130,   13.0524,   13.6570,   13.7253,   14.7714,   17.2636,   18.3087,   18.5293,   18.4195,   18.2984,   18.5618,   18.7611,   19.3324,   18.5666,   17.6634,   16.8515,   16.9140,   17.1730,   17.1191,   17.4018,   18.3146,   18.9172,   19.0887,   18.7899,   25.4464,   20.9269,   28.2819,   28.5485,   33.3105,   37.3558,   43.0521,   46.2283,   48.1707,   48.3518,   49.4257,   47.6175,   47.9833,   47.7129,   47.7111,   48.9005,   49.1444,   48.9849,   50.1691,   50.3475,  999.0000,   46.7242,   45.1098,   46.7074,   49.0212,   49.4991,   50.8136,   50.0208,   48.1618,
23-SEP-2002 11:46:21.98 ,    4.2913,  999.0000,  999.0000,    9.4070,  999.0000,   11.9225,   11.4610,   10.8239,   10.3338,   10.5445,   11.2494,   11.9830,   12.6662,   13.0503,   13.0506,   13.2602,   14.9661,   16.9594,   18.0501,   18.3946,   18.3053,   18.4275,   18.9475,   19.5375,   20.2470,   15.3433,   12.1316,    8.9218,    5.8703,    4.9244,    5.2564,    5.2600,    5.3305,    5.8149,    5.7788,    6.3026,   32.1253,   11.9785,   36.4968,   23.7993,   28.6631,   34.7263,   39.4827,   45.2898,   48.3636,   50.1605,   49.8194,   48.0366,   49.1192,   47.3574,   47.4469,   48.0620,   50.2860,   50.5513,   50.1107,   50.4515,   48.9018,   48.0054,   46.8693,   47.7197,   47.7919,   49.4591,   49.4894,   48.1093,   47.4923,
23-SEP-2002 11:49:04.06 ,   -2.6051,  999.0000,  999.0000,   15.3404,  999.0000,   11.2859,   11.0422,   10.3672,   10.3422,   11.6251,   12.7755,   13.6646,   14.3055,   14.0133,   13.8410,   14.3618,   15.7396,   16.3232,   17.2826,   18.6091,   18.9725,   19.5418,   19.6525,   19.4732,   20.2990,   19.8454,   18.8969,   18.0159,   17.5004,   18.4476,   19.9297,   19.9044,   20.0020,   20.9772,   21.6190,   22.9341,   23.4684,   23.6568,   29.3978,   30.5169,   33.0938,   37.9402,  999.0000,   47.1824,   48.9719,   51.0586,   50.4562,   48.5870,   48.5690,   47.5311,   48.8085,   49.7366,   50.0490,   48.9732,   49.0339,   48.5404,   47.2722,   46.9603,   46.8246,   48.6231,   46.4680,   47.5700,   49.3132,   51.2401,   50.0557,
23-SEP-2002 11:51:45.64 ,   -1.0461,  999.0000,  999.0000,   20.7409,  999.0000,   14.6536,   13.8783,   11.7696,   10.8741,   11.6635,   12.6715,   13.7103,   14.2548,   13.8735,   13.5777,   13.5683,   14.7298,   15.7921,   16.6381,   18.0720,   18.8753,   20.2939,   18.2073,   19.8715,   20.5689,   18.6897,   16.3263,   14.2156,   13.0407,   12.8738,   13.1407,   13.1753,   12.9665,   13.4600,   14.0797,   14.4907,   14.8289,   15.6331,   35.3065,   20.2481,   26.2483,   35.0028,   43.7878,   46.7410,   49.5613,   50.4433,   48.6088,   48.1455,   46.5863,   48.1532,   48.7086,   49.2025,   47.5956,   48.2633,   47.0962,   47.4151,   46.2182,   45.8258,   44.0843,   45.5844,   46.8464,   48.1077,   49.1206,   49.7324,   49.5637,
23-SEP-2002 11:54:26.78 ,    9.7948,   10.2314,   11.7567,   12.5596,   12.8821,   13.4500,   13.1553,   11.4857,   10.5092,   10.7315,   10.9903,   11.8557,   12.5485,   12.4749,   12.3020,   12.4135,   13.2283,   14.7539,   15.9767,   16.9860,   18.2462,   19.7375,   20.0321,   17.3164,   17.9098,   17.8720,   17.6704,   17.3715,   17.8455,   18.4292,   18.7087,   19.0864,   19.2077,   19.2947,   19.9011,   20.9576,   21.0858,   26.2950,   28.8585,   37.8135,   40.1906,   39.8452,  999.0000,   46.0871,   46.3802,   48.6466,   46.7304,   48.0240,   46.7867,   48.5531,   49.4833,   49.9808,   48.8250,   42.8138,   49.3512,   49.2511,   46.5720,   40.8267,   40.9852,   41.9801,   43.8382,   44.4367,   44.4401,   43.9287,   41.7953,
23-SEP-2002 11:57:08.87 ,    8.6485,    8.8323,    9.5311,   10.9412,   11.4048,   11.9608,   12.4232,   12.3443,   11.9807,   12.3683,   12.8441,   13.2354,   13.4615,   13.2963,   13.2718,   14.0233,   15.3527,   16.5575,   17.4955,   18.1176,   18.8857,   19.8805,   10.7812,   13.0669,   12.9880,   12.7704,   12.3436,   12.3122,   12.6637,   12.9245,   13.1175,   13.5068,   13.5437,   13.2986,   13.8474,   14.3721,   15.1462,   34.0197,  999.0000,   33.4519,   43.7526,   36.8067,   38.0670,   41.5641,   51.0700,   52.2124,   45.9309,   50.5779,   49.4706,   50.0567,   49.7354,   46.7562,   45.9728,   29.4811,  999.0000,   45.6142,   44.2525,   32.8555,   33.8571,   35.0245,   36.7836,   38.0952,   37.0622,   35.2156,   30.5836,
23-SEP-2002 11:59:50.22 ,  999.0000,  999.0000,  999.0000,  999.0000,   13.0654,   12.4905,   12.6485,   12.3524,   12.0529,   12.4085,   12.8303,   13.6375,   13.7559,   13.6261,   13.5741,   14.5043,   15.8220,   16.7332,   18.2418,   19.0166,   19.8231,   20.9295,   21.0194,   17.8456,   18.0829,   17.8344,   17.7448,   17.5154,   17.5588,   18.1901,   18.5683,   18.9628,   19.3409,   18.8895,   20.8154,   24.6161,   25.4878,   27.5276,   29.7150,   42.9211,   26.4182,   24.8104,   22.1082,   22.4655,   48.4145,  999.0000,   47.8515,   48.2234,   48.9352,   49.2612,   49.8171,   49.0847,   47.1512,   46.4287,   48.2173,   47.9484,   46.6189,   46.4670,   46.4657,   46.3660,   47.7127,   46.5963,   47.6394,   47.7258,   47.6795,
23-SEP-2002 12:02:31.34 ,  999.0000,  999.0000,  999.0000,  999.0000,   14.5401,   13.3884,   12.6878,   12.0497,   11.4035,   12.0729,   12.0059,   12.3268,   12.6770,   13.1230,   13.2386,   14.2534,   15.0109,   16.3594,   17.7535,   18.6052,   20.7679,   22.2836,   22.4820,   13.6102,   13.8239,   13.7811,   13.6792,   13.3843,   13.2007,   13.3425,   13.9377,   14.0175,   13.8174,   14.3263,   14.5315,  999.0000,   32.0915,   27.1833,   29.3696,   33.6683,   34.5902,   39.4702,   43.3830,   47.5075,   48.7823,   49.8282,   49.2866,   50.0511,   48.2325,   47.4559,   47.8850,   49.3001,   48.5009,   46.1609,   46.8410,   47.7828,   48.5846,   47.7728,   47.0232,   44.4228,   46.3584,   45.7050,   49.0156,   49.6532,   49.0169,
23-SEP-2002 12:05:13.27 ,    9.4633,   10.0120,   10.7754,   11.5458,   12.2638,   12.0660,   10.9600,   10.5122,    9.8968,   10.4124,   10.1518,    9.7690,   10.2384,   10.8535,   11.3575,   11.9564,   13.3860,   14.9284,   15.0936,   15.7581,   18.0385,   20.0610,   19.5991,   20.5899,   21.7312,   23.1835,   22.0173,   25.8483,   25.8304,   26.4758,   27.1307,   26.3744,   25.7730,   25.4050,   25.1476,   26.0683,   26.5329,   26.3117,   26.7856,   40.3937,   35.9898,   40.2144,   41.9671,   46.0072,   47.0747,   49.0296,   49.1086,   48.2386,   46.6263,   45.3953,   46.8299,   48.9576,   46.5525,   47.9527,   47.0483,   46.9508,   46.9676,  999.0000,   46.1028,   44.2265,   45.5588,   46.0396,   48.4087,   49.5397,   49.7608,
23-SEP-2002 12:07:55.93 ,    9.6446,   10.8219,   11.2214,   11.9185,   12.8446,   13.6501,   12.5139,   12.1580,   10.4089,   10.0677,    9.9676,    9.3969,    9.4864,    9.8114,   10.6331,   10.6745,   11.9963,   13.3506,   13.2032,   13.3676,   14.5394,   16.2843,   16.3145,   17.1229,   17.9791,   22.9931,   19.3141,   34.1975,   34.8140,   35.4819,   36.4943,   37.5276,   37.3495,   35.0332,   33.6815,   31.3423,   29.3379,   27.3803,   36.3228,   31.6698,   37.6412,   40.5109,   44.3178,   47.7653,   50.5425,   49.3947,   50.7158,   50.4103,   47.1983,   47.5706,   49.5384,   49.0224,   47.3975,   46.2837,   47.3056,   48.5369,   48.2476,   46.6322,   46.0005,   46.1206,   45.8123,   46.6231,   47.6913,   49.0036,   45.3665,
23-SEP-2002 12:10:37.18 ,    8.5897,    9.2323,    9.7449,   10.3444,   11.9728,   13.3351,   12.5805,   12.0357,   10.3907,   10.1180,    9.6808,    9.3441,    9.6015,   10.3469,   10.9079,   11.8558,   13.1436,   14.0404,   14.4372,   14.7405,   15.2839,   16.4497,   17.3933,   17.0947,   18.1809,   19.0131,   19.3231,   19.4028,   19.4155,   20.2030,   21.9367,   22.6950,   22.6516,   22.7236,   23.2405,   23.8811,   23.9672,   25.1312,   27.2917,   37.7465,   34.6898,  999.0000,   40.8587,   42.5842,   45.5215,   48.4759,   47.8337,   48.4259,   47.2923,   47.0926,   47.4071,   49.5218,   48.6196,  999.0000,   46.7132,   46.8519,   47.5075,   47.4029,   46.7834,   46.3507,   46.0294,   45.8047,   48.5113,   50.9907,   50.7418,
23-SEP-2002 12:13:19.63 ,    7.6062,    7.4776,    7.3497,    8.0361,    9.2550,    9.9715,   10.2836,    9.7621,    9.5316,   10.6514,   10.5554,   11.2561,   11.9909,   12.2563,   12.6543,   13.4656,   15.0034,   16.3847,   17.1514,   17.4974,   18.0549,   19.0248,   19.0579,   19.4600,   19.6285,   19.8893,   20.4402,   20.9311,   20.7382,   20.5490,   21.3316,   21.1123,   20.2028,   20.2408,   21.7786,   23.4857,   24.7376,   25.4896,   27.7296,   30.3495,   34.5366,   38.4592,   44.1326,   46.5931,   48.9968,   49.6856,   48.8347,   48.3706,   48.6443,   49.2481,   48.4755,   49.0123,   47.4505,   47.2628,   47.3600,   46.7687,   45.7819,   45.4818,   46.6884,   46.6733,   45.2691,   44.8439,   47.0371,   49.4193,   49.0847,
23-SEP-2002 12:16:01.16 ,   10.2073,    9.4704,    8.8701,    9.9034,   10.8064,   11.0369,   10.3576,    9.7081,    9.7654,   11.7554,   12.4049,   13.1365,   13.3629,   13.5034,   14.4085,   15.0749,   16.2900,   17.6131,   18.2719,   18.3712,   18.4439,   19.7515,   19.6484,   20.5010,   21.3382,   22.1582,   22.8668,   23.3134,   22.6606,   21.6134,   22.6802,   22.7895,   21.7837,   21.7449,   23.1281,   25.0000,   25.8891,   26.6096,   29.4314,   32.4296,   35.3003,   39.8215,   45.1374,   46.8232,  999.0000,   48.5730,   48.1375,   49.6334,   49.5949,   50.6927,   48.6090,   48.8812,  999.0000,   47.1081,   49.2206,  999.0000,   46.4638,   44.9383,   44.8148,   46.0037,   45.2252,   45.3621,   47.1391,   48.7858,   46.8423,
23-SEP-2002 12:18:42.31 ,   17.6437,  999.0000,  999.0000,   11.0171,   11.4942,   11.0343,    9.7347,    9.7506,   10.3193,   11.3235,   11.6724,   12.0096,   12.1683,   12.7258,   14.5728,   15.0599,   15.5296,   16.0358,   16.2138,   16.2011,   16.2311,   17.8272,   19.8780,   17.4385,   18.1503,   18.6464,   19.5199,   20.5168,   20.9617,   21.4762,   22.1407,   22.9457,   22.7057,   23.4678,   24.1585,   25.6502,   26.7242,   27.4040,   30.3507,   32.8630,   42.7683,   38.6061,   44.2435,  999.0000,   49.5547,   48.3436,   48.4646,   48.5885,   48.5139,   49.3651,   49.5751,   52.1571,   48.3035,   49.9891,   50.8674,   49.0360,   47.9066,   45.8606,   45.8740,   46.8840,   44.4556,   45.0820,   47.6932,   48.9581,   48.4515,
23-SEP-2002 12:21:23.82 ,   15.6303,  999.0000,  999.0000,    7.4465,    6.9613,    6.7842,    7.0142,    7.8749,    8.6102,    8.9903,    8.9213,    9.4360,   10.3668,   11.0034,   12.7100,   13.1322,   13.7648,   14.4714,   14.4889,   14.3484,   14.7163,   16.1987,   17.5989,   15.4176,   16.6327,   17.2644,   17.6913,   18.1415,   18.6155,   20.1653,   21.1481,   22.0495,   22.1099,   23.7626,   23.3414,   25.8581,   27.9006,   29.2237,   31.2031,   34.1124,  999.0000,   40.8029,   42.8239,   43.4567,   46.6008,   48.5214,   49.6996,   48.0628,   48.8549,   49.6185,   52.1240,   50.8117,  999.0000,   50.3836,   52.3378,   50.5348,   47.1145,  999.0000,   46.6336,   45.4689,   46.8057,   42.2601,   48.4683,   50.7255,   50.3381,
23-SEP-2002 12:24:05.23 ,    6.1465,    4.7071,    4.7800,    4.9647,    5.4503,    6.4059,    6.9345,    7.4337,    7.9387,    8.2494,    8.4541,    8.5948,    9.3299,   10.5836,   11.1766,   11.9367,   13.1332,   14.3686,   14.2106,   14.2477,   14.9799,   16.1502,   14.2144,   15.3360,   16.5419,   16.5224,   16.2153,   16.9658,   17.1748,   17.1492,   17.5390,   18.0157,   19.5506,   21.3652,   22.8908,   25.6371,   27.8794,   29.6928,   31.9262,   33.2900,   34.7432,   45.9394,   46.2951,   44.2631,   47.4558,   48.0832,   49.1030,   47.7622,   48.5362,   48.9558,   50.4688,   55.5819,   49.0362,   50.2479,   52.0468,   50.6324,   47.5414,   40.3732,   40.4008,   53.1089,   47.2917,  999.0000,   39.9101,   40.3273,   39.0436,
23-SEP-2002 12:26:47.14 ,    4.3468,    5.6511,    5.5545,    6.1346,    7.4385,    8.7834,    9.5967,   10.2959,   10.2698,   10.4133,   10.9142,   11.4961,   12.5382,   13.3834,   13.0875,   14.2576,   15.0446,   15.9564,   16.0904,   16.3930,   17.1887,   17.7176,   16.4943,   18.1937,   19.8668,   17.2777,   14.4657,   14.3488,   14.4098,   14.0415,   13.9906,   15.3139,   17.3509,   20.2110,   23.4543,   26.8930,   28.4286,   30.2974,   32.8683,   34.8070,   38.4786,   41.8241,   44.8836,   46.4679,   49.2544,   48.6514,   48.9595,   48.2435,   49.3265,   49.9178,   49.4961,   56.1259,   46.1448,   55.0945,   55.6297,   56.1796,   55.8746,   24.5794,   23.8787,  999.0000,  999.0000,   21.3900,   20.5146,   18.9593,   11.3064,
23-SEP-2002 12:29:28.69 ,    2.7120,    5.3875,    7.0483,    8.4821,   10.0902,   11.6493,   11.9516,   12.3767,   12.4711,   12.6821,   12.7360,   13.3208,   13.8567,   14.7780,   15.0650,   16.3043,   16.7433,   17.1069,   17.7574,   18.3428,   18.8564,   19.4256,   19.9972,   20.4557,   22.0404,   22.8459,   22.6267,   22.1868,   21.7694,   21.0911,   21.4655,   22.1770,   22.3803,   22.7269,   23.5033,   24.3435,   26.4850,   28.1091,   32.0716,   34.1072,   38.8884,   42.2517,   44.4652,   46.6989,   50.2525,   50.0104,   49.6382,   48.6818,   49.1424,   50.6429,   49.3870,   48.6090,   46.4829,   46.6805,   47.7612,   48.3541,   48.4722,   46.2043,   47.4038,   47.6702,   46.5242,   47.0396,   48.0428,   49.6570,   47.8414,
23-SEP-2002 12:32:10.08 ,    4.8589,    8.1526,  999.0000,   11.8173,   12.8728,   14.7448,   14.1036,   14.0047,   14.4197,   14.6794,   14.0887,   14.0612,   13.7813,   14.5948,   15.9366,   16.6045,   16.6052,   16.3552,   17.2424,   17.9366,   18.1395,   19.3173,   20.2645,   19.9498,   21.2047,   21.7056,   22.1582,   21.8064,   21.5904,   21.5551,   21.8870,   22.2418,   22.5012,   22.7413,   23.5152,   24.3520,   26.3482,   29.3927,   34.3340,   35.8816,   38.0720,   40.5784,   44.2629,   47.3881,   49.5933,   50.0415,   50.0970,   49.7639,   48.2197,   49.0897,   49.2026,   47.1598,   46.4714,   47.6191,   49.4545,   50.2676,   47.7415,  999.0000,   47.4040,   47.5225,   48.7862,   47.7364,   45.5796,   49.9111,   47.2295,
23-SEP-2002 12:34:51.00 ,    6.8640,    9.2636,  999.0000,   11.4009,   12.1498,   12.6776,   12.2816,   13.0857,   13.2153,   12.8443,   12.3109,   11.4723,   10.8190,   12.0189,   13.3079,   13.7121,   14.1807,   15.0169,   16.1365,   16.7075,   17.4667,   18.7225,   19.5148,   20.4041,   21.3781,   21.3530,   21.9637,   22.3630,   21.7710,   21.9440,   22.8570,   22.2216,   22.0341,   22.5397,   23.3006,   24.3076,   24.8096,   29.7214,   31.9479,   33.4688,   39.0975,   40.7543,   42.4347,   44.7709,   46.3486,  999.0000,   49.2288,   49.5228,   50.5479,   52.1670,   50.0668,   47.9943,  999.0000,   49.0404,   49.4359,   50.0699,   49.4031,  999.0000,   48.9539,   49.7701,   49.9854,   51.6621,   40.0093,   49.7175,   39.6196,
23-SEP-2002 12:37:32.21 ,    6.7880,    7.4779,  999.0000,    9.6782,   10.7996,   11.1160,   11.7882,   11.8947,   12.4295,   12.9297,   13.0552,   11.9233,   10.8776,   11.8112,   12.9224,   13.7843,   14.6269,   15.7632,   16.5941,   17.2148,   18.6595,   20.1968,   18.4491,   19.9090,   21.5379,   22.6983,   23.0852,   23.0049,   22.4568,   22.6700,   23.2169,   22.8227,   22.5510,   22.7710,   23.4860,   24.3848,   25.6959,   28.1828,   30.0481,   33.2936,   36.9473,   39.7600,   44.0722,   46.5824,   47.2348,   48.6341,   50.0372,   50.4452,   52.2494,   52.1018,   51.1668,   49.4197,   49.6469,   48.2279,   48.3373,   48.2339,   47.3396,   45.9328,   47.5796,   48.2643,   48.1829,   47.6546,   49.6208,   51.7231,   49.4090,
23-SEP-2002 12:40:14.16 ,    6.6671,    7.7448,    8.8881,   10.0193,   11.4357,  999.0000,   12.6790,   11.7752,   12.1475,   12.3955,   12.5111,   11.6391,   11.7263,   12.5223,   13.6366,   14.6034,   15.4234,   15.8883,   16.9268,   18.2593,   19.3905,   21.1054,   19.1924,   20.2825,   22.1947,   23.1438,   23.0895,   23.3932,   23.5530,   23.8380,   24.1029,   23.4669,   22.6030,   22.8261,   22.9924,   23.3475,   25.2413,   27.1156,   28.4205,   32.1749,   39.6788,   40.3721,   44.1904,   46.8031,   47.6846,   49.5310,   48.5843,   50.3318,   52.3960,   51.1322,   51.8096,   49.6100,   49.0230,   48.6823,   47.9453,  999.0000,   46.6651,   45.9240,   48.3126,   47.9128,   48.0530,   48.8499,   49.7365,   52.1736,   48.6497,
23-SEP-2002 12:42:55.23 ,    8.0285,    8.6528,    9.7358,   10.4392,   10.6991,  999.0000,   11.6573,   12.1303,   12.4014,   11.8721,   11.4208,   10.6918,   11.2872,   12.8272,   14.1524,   14.5826,   14.8009,   15.1049,   16.3201,   17.6141,   18.6531,   20.4779,   17.8916,   16.1155,   16.7141,   18.2021,   19.2230,   19.2030,   18.9619,   19.5913,   20.2336,   20.1887,   19.6676,   19.5094,   19.4581,   19.5777,   20.6511,   26.4964,   26.0219,   35.5899,   32.4363,   36.6648,   40.4148,   44.3520,   45.4469,   49.9106,   47.6166,   48.4970,   49.4961,   49.6437,   51.2399,   50.1984,   46.9619,   46.8260,   48.0392,   47.8923,   46.1974,   45.0608,   48.1420,   49.0993,   48.5599,   48.9069,   50.2174,   51.6201,   52.8534,
23-SEP-2002 12:45:37.36 ,    8.3439,    8.5122,    8.1060,    8.2681,    8.0487,    9.4735,   10.3894,   11.5561,   12.6144,   12.4269,   12.2853,   11.8662,   12.1144,   13.4141,   14.4726,   14.5179,   14.4946,   15.2468,   16.3285,   17.1843,   18.1250,   19.8479,   21.2287,   10.6433,   11.4604,   11.8267,   11.9479,   12.0917,   11.9637,   11.7348,   12.2820,   12.8486,   12.9956,   13.2403,   13.6789,   14.4760,   15.5078,   30.7405,   21.4611,   26.7862,   34.0268,   37.2314,   43.1919,   45.3743,   46.8395,   47.7650,   47.3287,   48.1794,   48.1904,   48.7511,   49.4513,   49.4061,   45.9806,   45.5355,   47.5078,   46.4209,   44.1547,   43.6422,   46.1997,   48.7193,   46.4288,   46.1412,   47.8753,   49.6764,   48.6435,
23-SEP-2002 12:48:19.27 ,    6.5183,    7.6574,    7.8863,    9.2553,   10.3888,   11.9769,   12.6133,   12.5570,   13.0802,   13.2434,   13.0160,   12.1917,   12.2359,   12.6904,   13.2384,   13.1716,   13.4477,   14.1305,   14.8282,   15.3056,   16.1447,   17.4338,   17.1936,   17.8261,   17.8468,   18.1024,   18.2474,   19.0540,   19.4726,   19.8123,   21.7001,   23.4328,   24.0561,   25.3498,   27.1875,   29.0028,   30.6313,   27.7219,   28.6258,   30.9039,   34.9155,   36.1721,  999.0000,   43.2684,   43.8604,   46.1487,   46.8412,   49.0376,   49.2037,   49.2170,   50.1024,   48.5358,  999.0000,  999.0000,  999.0000,   44.4939,   43.5521,   44.1728,   46.0249,   45.4552,   46.0229,   47.5084,   48.0731,   48.5998,   50.9084,
23-SEP-2002 12:51:00.84 ,    5.7178,    7.0801,    8.5080,   10.3988,   12.0326,   13.5834,   13.6952,   13.7173,   14.2266,   14.7226,   14.3007,   13.1508,   13.1731,   13.6632,   14.2348,   13.9962,   14.0254,   13.9283,   14.2708,   14.8580,   15.4112,   16.4312,   17.2079,   17.4815,   15.8064,   15.4239,   14.7534,   16.5611,   19.3719,   21.9775,   25.4154,   29.2532,   32.0447,   34.3771,   37.0308,   39.6991,   40.5694,   12.9686,   13.4047,   13.8896,  999.0000,  999.0000,   48.0154,   47.2800,   53.8762,  999.0000,   47.6136,   49.8598,   50.2829,   49.7369,  999.0000,   48.2824,   48.5247,   46.6357,   46.5850,   54.8986,   47.0458,   47.6300,   46.6794,   47.8684,   46.4573,   47.8121,   47.2590,   49.3763,   50.8703,
23-SEP-2002 12:53:42.57 ,  999.0000,  999.0000,    8.9622,   11.0973,   12.7354,   14.7031,   14.7107,   13.6065,   14.4280,   14.9727,   14.7392,   14.0731,   14.5367,   15.5186,   15.8525,   15.8414,   16.0868,   15.5484,   16.7457,   17.5593,   17.5400,   18.5290,   19.7703,   18.0046,   19.4607,   20.4281,   20.5151,   19.8304,   19.8152,   20.1349,   19.9455,   19.7971,   20.5848,   21.1551,   22.7673,   24.5796,   26.2719,   27.1065,   29.4730,   31.9069,   33.7297,   38.4260,   42.8248,   45.1074,   45.5139,   47.9093,   48.7863,   50.5818,   51.7915,   51.4552,   52.4887,   50.0961,   49.2071,   50.1839,   47.6165,   47.2124,   44.8391,   49.0453,   45.4111,   46.2257,   45.8380,   45.7465,   46.9815,   49.6316,   50.6957,
23-SEP-2002 12:56:23.68 ,  999.0000,  999.0000,   10.8504,   12.9233,   14.1616,   15.6251,   15.6495,   14.4943,   14.9766,   14.7328,   14.0576,   14.0270,   14.7792,   15.5330,   15.6425,   16.0923,   16.9574,   17.2744,   18.7240,   19.4513,   19.6187,   20.6345,   18.3283,   19.2010,   20.6999,   21.7906,   21.8795,   21.4876,   21.5194,   21.7579,   20.8752,   20.2630,   20.5952,   21.2894,   22.5376,   24.4548,   26.2194,   28.2877,   30.4986,   40.6016,   43.6544,   40.7446,   44.2381,   46.0737,   47.4137,   48.6553,   49.3097,   51.5971,   51.9301,   51.9762,   50.1126,   48.3362,   48.9638,   49.7742,   49.2526,   47.6512,   46.3532,   45.6216,   47.1583,   49.1156,   48.6363,   47.9046,   48.8784,   50.5302,   51.1988,
23-SEP-2002 12:59:04.89 ,    5.9526,    7.2636,    9.9974,   11.3746,   12.1561,   12.4651,   12.1737,   13.7492,   15.0533,   14.3178,   13.9506,   14.3899,   15.4983,   15.9922,   15.8190,   15.6827,   16.0407,   17.2564,   18.3806,   18.6216,   18.6041,   19.1328,   18.6673,   16.8900,   17.5023,   19.0527,   20.1300,   19.8829,   19.8168,   20.8835,   20.1907,   20.3578,   21.3984,   22.4106,   23.8263,   25.1366,   25.9957,   28.4449,   36.5622,   38.3389,   43.6031,   41.0976,   46.0958,   46.1662,   48.0067,   49.3357,   49.0331,   50.2188,   51.0206,   49.9454,   48.9347,   48.0548,   47.0474,   47.7386,   47.5997,   47.0257,   46.2381,   46.7511,   47.3529,   48.2606,   48.5299,   49.1037,   50.5832,   51.6153,   53.5581,
23-SEP-2002 13:01:46.12 ,    6.6869,    8.0087,    8.9884,    9.4523,   11.1327,   11.7349,   11.7230,   13.1262,   14.2801,   13.0642,   13.3257,   13.3229,   13.9635,   14.6553,   14.7508,   14.6850,   14.7510,   15.2006,   16.0028,   16.2351,   15.9129,   15.9319,   16.8771,   11.3790,   11.3650,   11.0584,   12.0217,   12.3124,   11.7092,   13.5436,   15.4846,   19.3674,   21.9008,   22.0113,   22.5088,   23.2227,   24.6761,   26.8667,   31.7655,   35.4102,   37.2274,   39.6407,   41.2663,   43.8998,   46.7179,   49.0305,   47.0536,   48.1724,   49.5925,   50.0345,   48.5769,   47.2627,   46.7637,   48.2552,   46.5528,   45.2764,   44.1403,   44.7505,   44.7852,   46.4075,   45.0676,   46.4078,   47.8788,   50.4801,   52.0858,
23-SEP-2002 13:04:27.28 ,    8.3190,    8.6239,    7.3660,    7.5851,   10.1519,   12.5923,   13.5783,   14.2312,   15.2964,   14.8609,   13.7744,   12.7745,   12.4875,   13.1814,   14.0445,   14.3417,   14.5290,   15.0844,   16.0427,   16.1252,   16.1579,   16.5959,   16.7183,   17.1450,   17.0735,   17.4810,   18.4085,   18.5856,   18.5339,   19.2181,   20.3145,   21.0424,   21.7275,   22.9659,   23.8315,   24.4506,   25.3854,   26.0797,   26.6270,   30.1605,   33.7854,   40.3305,   39.9266,   41.3031,   43.3237,   46.9311,   47.3400,   48.6752,   50.1885,   49.6694,   49.4226,   49.4251,   49.4624,   46.3425,   45.7907,   47.0326,   45.1548,   44.7276,   45.6915,   47.4409,   47.1965,   48.2298,   48.8254,   50.9692,   53.3483,
23-SEP-2002 13:07:08.50 ,    7.4798,    7.2216,    5.6092,    6.1882,    6.5853,    8.9428,    9.9681,   11.9783,   13.8040,   14.4943,   13.7454,   13.3011,   13.7558,   14.7132,   15.4890,   15.7770,   15.9219,   16.1432,   17.1260,   17.2231,   17.3295,   18.1234,   14.5128,   14.7992,   15.2075,   15.7848,   17.1796,   17.2951,   16.9101,   16.9854,   18.2142,   18.6576,   19.5315,   20.5777,   21.1519,   23.4594,   23.6138,   25.6160,   27.1881,   30.2057,   34.2922,   37.0201,   38.3427,   41.7010,   45.8079,   47.2951,   47.4033,   47.4339,   48.1984,   48.6450,   48.4903,   48.5644,   48.6756,   47.9617,  999.0000,   48.2484,   47.0399,   45.2890,   44.9911,   47.5828,   47.6425,  999.0000,   47.6866,   49.1282,   50.7670,
23-SEP-2002 13:09:49.61 ,   -2.7896,  999.0000,  999.0000,   17.5520,   13.4615,   10.4922,  999.0000,    9.9320,   10.8988,   11.1194,   11.9586,   12.0431,   12.8446,   14.2207,   14.7917,   14.9936,   15.2453,   15.9230,   16.8348,   17.3562,   17.0124,   17.5207,   11.0382,   10.5272,   10.3961,   10.3590,   10.2745,   10.0560,   10.0110,   10.1219,   10.2107,   10.1488,   10.8284,   11.6064,   12.0295,   24.1719,   16.5953,   21.9308,   27.3999,   30.5239,   33.6654,   36.8138,   38.0328,   40.4321,   43.0064,   46.8356,   47.7774,   48.2626,   48.8089,   50.3352,   49.7322,   49.6472,   49.0938,   46.9351,   45.7547,   45.1661,   45.4450,   44.2404,   43.2864,   45.3685,   47.2269,   47.7532,   50.4136,   50.5175,   51.3765,
23-SEP-2002 13:12:31.29 ,   -5.5685,  999.0000,  999.0000,   20.7031,   18.1437,   15.5478,  999.0000,   13.6989,   14.5550,   14.7905,   15.1387,   14.2083,   14.6144,   16.1581,   16.3661,   16.4382,   16.8423,   17.6316,   18.3010,   18.7129,  999.0000,   14.6976,   18.4997,   17.9334,   16.5331,   14.8867,   13.9863,   12.5377,   11.8775,   12.5092,   12.9443,   12.8106,   13.0556,   13.7262,   14.1980,   14.3804,   25.4272,   21.7218,   26.8584,   29.3270,   32.0936,   35.0973,   38.2928,   43.1609,  999.0000,   47.6576,  999.0000,   47.9173,   48.6328,   48.2473,   47.9450,   47.8897,   47.5948,   47.0045,   45.8175,   46.0302,   46.6590,   44.0325,   44.1154,   44.4530,   46.5813,   48.5074,   49.5861,   50.5995,   52.8027,
23-SEP-2002 13:15:12.83 ,    7.3943,    8.0336,    9.6824,   10.3534,   11.0562,   12.2208,   13.0757,   13.1399,   14.1082,   14.7319,   14.2910,   13.6105,   13.4807,   14.7333,   15.1230,   15.9315,   16.7820,   17.1757,   17.9702,   18.3783,  999.0000,   13.8886,    8.3124,   18.5363,   19.1781,   19.3551,   20.0871,   20.3294,   20.6180,   21.1169,   21.0483,   20.1160,   20.2025,   21.1525,   21.9105,   22.2173,   22.8319,   23.0446,   25.3376,   35.0095,   30.0868,   33.1015,   35.3761,   45.3904,   40.5971,   47.3698,   45.3908,   46.3466,   47.8839,   47.5123,   46.7725,   46.3046,   46.4815,   46.9985,   46.5784,   45.6091,   46.5069,   45.4536,   43.7772,   45.1805,   47.8057,   48.8182,   49.1780,   49.2206,   51.2285,
23-SEP-2002 13:17:53.95 ,    9.0874,    9.5223,    9.4269,    9.5227,   10.3534,   11.1171,   11.8596,   12.5426,   13.2254,   14.1193,   13.3772,   13.0453,   13.1279,   13.7864,   14.1660,   15.0262,   15.9735,   16.3636,   17.0277,   17.1942,   16.9765,   17.3127,   16.9650,   17.0645,   17.4117,   17.8633,   18.5300,   18.9708,   19.8406,   20.3978,   19.6221,   19.6637,   20.7252,   21.6238,   22.0064,   21.8518,   22.5042,   22.7428,   25.2205,   27.8955,   30.6746,   34.5105,   38.1101,   40.6870,   43.7285,   46.9802,   47.6548,   47.8141,   46.9415,   47.5383,   48.5652,   49.1931,   50.1561,   50.4217,   49.0877,   49.1785,   49.2087,   49.8809,   51.2151,   52.1789,   50.8070,   50.8646,   51.7572,   49.9055,   49.2419,
23-SEP-2002 13:20:35.05 ,    8.8315,    9.3188,    9.5217,    9.5334,   10.3331,   11.4941,   12.2486,   13.3026,   13.9647,   14.7917,   14.6693,   14.6595,   15.1335,   15.9635,   17.0058,   17.8356,   18.1398,   18.2899,   18.7388,   18.7791,   18.6184,   18.9664,   18.2337,   18.5631,   19.1460,   19.5167,   19.2412,   19.5011,   20.9012,   21.8477,   21.1547,   20.7533,   21.1376,   21.6977,   21.7202,   22.0125,   22.9736,   23.1329,   25.4084,   34.8199,   30.3406,   35.0746,   38.5285,   42.9742,   45.9743,   48.1279,   48.8712,   48.0973,   47.2806,   48.6204,   49.8279,   44.6674,   47.8318,   47.4655,   45.8968,   45.7454,   44.5897,   43.6134,   44.7171,   45.4371,   46.8894,   48.4076,   47.8740,   48.6868,   49.3345,
23-SEP-2002 13:23:16.58 ,    7.0370,    8.2401,  999.0000,   10.0906,   10.0770,   11.6441,   13.5323,   13.7990,   13.8678,   14.1650,   13.8093,   14.1720,   14.8202,   16.2152,   17.5058,   18.4935,   18.7118,   19.1513,   19.6123,   19.3207,   18.9082,   19.0403,   18.0395,   18.4506,   19.0429,   18.9788,   18.7220,   18.9771,   19.6795,   20.4885,   20.8990,   20.9748,   21.3744,   21.7332,   21.8020,   21.8186,   22.1908,   23.7650,   26.2392,   28.5788,   31.2580,   37.1065,   38.1340,   44.4743,   46.7697,   50.3278,   49.9502,   50.0327,   48.9999,   47.8318,   50.0073,   48.1838,   47.4256,   45.9884,   45.9186,   45.2832,   42.7901,   42.4209,   42.3567,   43.0112,   45.6488,   46.0644,   46.4956,   48.0091,   50.0160,
23-SEP-2002 13:25:57.63 ,    6.9552,    8.8429,  999.0000,   11.2294,   11.7206,   12.5648,   14.0401,   14.1568,   13.7444,   13.9582,   13.2936,   13.8992,   14.5772,   16.5320,   17.4772,   18.0150,   18.6120,   19.1000,   19.0835,   18.5631,   18.1809,   18.2229,   18.0058,   18.4142,   18.5151,   18.9548,   19.5463,   20.0210,   20.6445,   21.1346,   21.9423,   21.4813,   21.5715,   22.8998,   23.1223,   23.7664,   23.1741,   24.6614,   27.0457,   30.5486,   32.4049,   35.4342,   38.5640,   43.6488,   45.6305,   48.5415,   47.2208,   48.3274,   50.1709,   50.3859,   48.1222,   48.0638,   47.3256,   45.8675,   45.6900,   46.1697,   46.6851,   44.9650,   45.7329,   47.1284,   46.0730,   46.5499,   46.5419,   47.4955,   49.9253,
23-SEP-2002 13:28:38.74 ,    9.2529,   10.2855,   10.2010,   10.7093,   11.6661,   11.8702,   12.4055,   13.3678,   14.0386,   13.7312,   14.2125,   14.7651,   15.3906,   17.2269,   17.7079,   18.0982,   18.9853,   19.3282,   19.1924,   18.8196,   18.8180,   19.1170,   18.6806,   19.2941,   20.1150,   20.0654,   19.5027,   20.3140,   21.2640,   21.6904,   21.6903,   21.8704,   22.5617,   23.6718,   23.9110,   25.0773,   25.5370,   25.8891,   27.7585,   29.8277,   32.0942,   36.0851,   40.1981,   44.0655,   48.0121,   49.4659,   48.2436,   48.8221,   49.4293,   50.0620,   49.6961,   49.8478,   49.3938,   46.6160,   44.3940,   43.2926,   44.1620,   43.7923,   44.3988,   46.0357,   46.1968,   44.9151,   45.3692,   47.3269,   48.1585,
23-SEP-2002 13:31:21.22 ,    9.9108,    9.3880,    9.6807,    9.0534,    9.7513,   10.5210,   11.9194,   13.3804,   14.5140,   13.7818,   14.9078,   15.1938,   16.2941,   17.7112,   17.9414,   18.3077,   19.2169,   19.4038,   19.2012,   19.1843,   19.3688,   19.8178,   18.8283,   19.8208,   20.2585,   20.1581,   19.9083,   20.7422,   21.5099,   21.9531,   22.9451,   23.4368,   23.0254,   23.3800,   24.8057,   25.8013,   26.2132,   27.1587,   28.7964,   30.8710,   38.3422,   36.8365,   41.0741,   44.6998,   49.3886,   49.4863,   49.3710,   50.6983,   50.1980,   50.6147,   49.1341,   49.3252,   48.1651,   47.0032,   45.7878,   44.7971,   43.8468,   43.3612,   44.4472,   46.4509,   46.9762,   45.2231,   45.7423,   48.6880,   45.8327,
23-SEP-2002 13:34:02.68 ,    6.8174,    7.0556,    8.1888,  999.0000,    8.7143,   10.3143,   11.7473,   12.9198,   13.3693,   13.1333,   13.5545,   14.2202,   15.4733,   16.6795,   17.1486,   17.5598,   18.1579,   18.4232,   18.8894,   19.8534,   20.2257,   20.6813,   19.7598,   20.2636,   20.2070,   20.1258,   19.9596,   20.2594,   21.0516,   22.3716,   23.4323,   23.4940,   22.9167,   23.2844,   24.9655,   26.5424,   27.2976,   28.3288,   29.3740,   31.0040,   32.7427,   34.3919,   40.5219,   44.3880,   48.0952,   49.1361,   49.5810,   49.7006,   50.8152,   48.0026,   47.4297,   46.7648,   47.3808,   45.7049,   46.0158,   46.8111,   45.3084,   44.7884,   46.3373,   48.5458,   48.8869,   48.6554,   48.5711,   48.7627,   45.0942,
23-SEP-2002 13:36:43.90 ,    6.3761,    7.5086,    7.8079,  999.0000,    9.1925,   10.3331,   11.4229,   12.5173,   12.6458,   12.7548,   13.0935,   13.5774,   14.4874,   15.7452,   16.6713,   16.9453,   16.9300,   17.1757,   18.3554,   19.5432,   19.8895,   20.5258,   19.6193,   20.1069,   20.8413,   20.9982,   20.1687,   20.5593,   21.4953,   22.1249,   22.3548,   22.5609,   22.4461,   23.6258,   24.3376,   26.0812,   26.6278,   27.8513,   28.7818,   30.0571,  999.0000,   43.5313,   43.1353,   46.8743,   49.6759,   49.1458,   49.4595,   49.9382,   51.6985,   50.3301,   50.0470,   49.6052,   49.5565,   48.4713,   48.8923,   46.8881,   44.5953,   43.3480,   45.4243,   47.0754,   46.8313,   48.4227,   48.9108,   50.4772,   51.4995,
23-SEP-2002 13:39:24.80 ,    8.0095,    8.6754,    8.9939,    9.5112,   10.2166,    9.6196,   11.2208,   12.2239,   12.5908,   12.7062,   13.3064,   12.8355,   13.1811,   15.6827,   16.8351,   17.1242,   17.5137,   17.9365,   18.7964,   19.5384,   19.6466,   20.0354,   19.1840,   19.9860,   21.0301,   20.6969,   20.3568,   21.1383,   22.2471,   22.5411,   22.3166,   22.8808,   23.2351,   23.8646,   23.5027,   24.3317,   24.9067,   26.9287,   27.8737,   31.1191,   35.9409,   38.6000,   42.5693,   45.7095,   49.4507,   47.9855,   49.4259,   49.4645,   48.0255,   49.9043,   48.4449,   45.9793,   45.3013,   46.1321,   45.7553,   45.9334,   45.0017,   43.4469,   44.6697,   46.8208,   46.5620,   47.5420,   48.9728,   52.1584,   52.6083,
23-SEP-2002 13:42:07.24 ,    7.8825,    8.5848,    8.6730,    8.5611,    9.1385,    8.1886,    9.3670,   10.1295,   10.8675,   11.8223,   12.7841,   12.7165,   13.1460,   15.4320,   16.0728,   16.2435,   17.4867,   18.5910,   19.1024,   19.6089,   19.6462,  999.0000,   21.2848,   19.1598,   19.1176,   18.2148,   18.3935,   19.5398,   20.3725,   20.2309,   20.6516,   21.7561,   22.8124,   23.4928,   23.4582,   23.5992,   23.8466,   26.3898,   25.5445,   38.6752,  999.0000,   39.3018,   42.8212,   46.8845,   48.0323,   46.3945,   48.3377,   50.0383,   51.7834,   51.1478,   49.0308,   49.2152,   48.2229,   47.2973,   46.7439,   45.2100,   45.0023,   43.9068,   44.2414,   46.3561,   47.7260,   47.8297,   49.4320,   50.6121,   51.8242,
23-SEP-2002 13:44:48.48 ,    6.3297,    7.2670,    7.2617,    6.2186,    7.3346,    7.8592,    7.7813,    8.5112,    9.1771,   10.9869,   11.6053,   12.2193,   13.2608,   14.5094,   15.5016,   15.7971,   16.7395,   17.8439,   18.7150,   19.4302,   19.4435,  999.0000,   24.2397,   12.7715,   12.7156,   12.6992,   12.9971,   13.8194,   14.4111,   14.4547,   16.3118,   18.3556,   21.1029,   22.4672,   22.5755,   23.4234,   24.4691,   25.7317,   26.3752,   29.0157,   33.1866,   37.6771,   41.8036,   43.4486,   45.1961,  999.0000,   48.6128,   49.5164,   50.2230,   48.6489,   49.2741,   49.8032,   47.7410,   48.6563,   46.7812,   47.0944,   46.2847,   45.2271,   44.0966,   45.0761,   48.0199,   49.1359,   49.5725,   50.5492,   48.3023,
23-SEP-2002 13:47:29.80 ,    6.3431,    7.0541,    7.8915,    7.4910,    8.2208,    8.8652,    9.3205,   10.1587,   10.8299,   11.6728,   11.8352,   12.2487,   12.7777,   13.9111,   15.1510,   16.2351,   17.1785,   17.5196,   18.4736,   19.3567,   19.5722,   19.9237,   20.1901,   20.5009,   20.6529,   20.3863,   20.6636,   21.9082,   22.9548,   23.2921,   21.9757,   20.7866,   21.4547,   22.2148,   22.5535,   23.7049,   24.2273,   25.0610,   26.5992,   28.9592,   32.9827,   38.1957,   42.6480,   45.5810,   47.7545,  999.0000,   46.3956,   47.4762,   49.2327,   50.3191,   50.5906,   52.1298,   51.4936,   50.9866,   47.7137,   46.9806,   46.4965,   45.8256,   45.3951,   45.9691,   46.1512,   48.0692,   50.1355,   51.8804,  999.0000,
23-SEP-2002 13:50:12.29 ,    5.8026,    6.1861,    6.7635,    6.9286,    7.6458,    8.3018,    9.3638,   10.6501,   11.3727,   11.9905,   12.7161,   12.9541,   13.2916,   13.9545,   15.0364,   16.1510,   17.0085,   17.3991,   17.8877,   18.3524,   18.7819,   19.5575,   18.7795,   19.2219,   19.8418,   20.2832,   20.4322,   20.7512,   21.3900,   22.3267,   21.3820,   20.1182,   20.9375,   21.8027,   21.6521,   23.2834,   23.7601,   24.8590,   26.1689,   28.1283,   32.1944,   38.9326,   42.4407,   44.8566,   45.6990,   45.9376,   45.0795,   46.6188,   46.9027,   48.1146,   47.4932,   47.0427,   45.9410,   49.3507,   47.6717,   48.6308,   46.7032,   44.9669,   44.4787,   46.4815,   46.1895,   47.9948,   49.4185,   50.6791,   52.5066,
23-SEP-2002 13:52:53.46 ,    5.6360,    6.2112,    7.1155,    6.1164,    6.7385,    7.9443,    9.7384,   10.8322,   11.4401,   12.5527,   13.5269,   13.9249,   14.6670,   15.6112,   16.5550,   16.7706,   16.8849,   17.4306,   18.0641,   18.4234,   18.7215,   19.4208,   18.8306,   18.8989,   19.1042,   19.6813,   20.1545,   20.0380,   20.1618,   21.2716,   21.0686,   19.9618,   20.6882,   22.4316,   22.7607,   23.1401,   24.4783,   26.3885,   27.1011,   28.5086,   31.9052,  999.0000,   39.3899,   42.9247,   45.2737,   45.8661,   44.0783,   43.9432,   45.5063,   47.2510,   47.7762,   48.4103,   49.3492,   49.9425,   47.9164,   47.0838,   45.3387,   45.7626,   42.7322,   44.9307,   45.8985,   47.3847,   48.3625,   51.1370,   51.9293,
23-SEP-2002 13:55:34.63 ,   -4.9097,  999.0000,  999.0000,  999.0000,   14.1252,  999.0000,   10.6910,   12.2694,   12.9938,   13.7774,   14.1564,   14.0584,   15.0238,   16.5995,   17.0755,   17.0123,   17.6337,   18.5327,   19.6282,   20.1565,   20.1613,   20.6971,   20.3965,   20.4479,   20.5961,   20.7443,   21.1716,   21.5174,   21.4487,   21.7191,   22.0501,   21.4131,   21.1879,   22.1292,   22.4035,   23.6272,   25.1214,   27.8850,   29.0353,   30.5944,   33.6577,  999.0000,   41.6719,   44.5361,   46.8678,   47.0595,   47.5147,   45.1364,   46.9394,   47.0555,   47.5039,   48.7893,   49.7839,   49.1802,   46.7603,   45.9117,   45.0864,   44.6881,   45.5339,   46.3578,   46.9278,   47.3603,   47.3696,   48.2371,   48.4944,
23-SEP-2002 13:58:16.53 ,   -8.0815,  999.0000,  999.0000,  999.0000,   15.9293,  999.0000,   11.1303,   13.2302,   14.1343,   14.7826,   15.1434,   14.6944,   15.4740,   16.7385,   17.2184,   17.3228,   18.4967,   19.4813,   20.1907,   20.6954,   20.6849,   21.2439,   20.9743,   20.3737,   21.3092,   21.8270,   21.9999,   21.9600,   21.6317,   21.7320,   21.7745,   20.8878,   20.7484,   21.4168,   22.1389,   23.4517,   25.3821,   26.9404,   27.7449,   28.9851,   32.3964,   38.4546,   41.4754,   44.1358,  999.0000,   48.0503,   47.5383,   46.3386,   47.2926,   48.4192,   48.0947,   50.3648,   51.5682,   49.4283,   44.7567,   46.1967,   44.5438,   44.2883,   45.0614,   45.6925,   45.8315,   45.2552,   45.3916,   46.2442,   46.5574,
23-SEP-2002 14:00:57.55 ,    7.5753,    9.2517,    9.4868,    9.8298,   10.1151,    9.4076,   11.4515,   12.5944,   13.7450,   14.4314,   14.4370,   14.0197,   15.1506,   16.2520,   16.7944,   17.9341,   18.7947,   19.5123,   20.0087,   20.1714,   19.9610,   20.2587,   20.1460,   20.2471,   20.5740,   20.9542,   21.5738,   22.1662,   22.0595,   21.4683,   20.6940,   20.3936,   20.4822,   21.3491,   21.6121,   22.8602,   25.0852,   26.1466,   26.6118,   27.7352,   31.1535,   36.8386,   39.8865,   44.5678,   46.7229,   46.6253,   46.0530,   45.2623,   46.6589,   46.1401,   46.2950,   46.7253,   49.5776,   44.9000,   45.7227,   44.7667,   44.0467,   44.1546,   44.7167,   45.7002,   45.9014,   45.1687,   45.1567,   46.8433,   47.3833,
23-SEP-2002 14:03:38.62 ,    8.5802,    9.1127,    9.9469,   10.2587,    9.7812,    8.8748,   10.6448,   12.2724,   13.2121,   13.5328,   13.8268,   14.0030,   15.3109,   16.4900,   16.4306,   18.0140,   18.3662,   19.2420,   20.2489,   20.1570,   20.1114,   20.4464,   20.1924,   19.8442,   19.3386,   19.7473,   20.2744,   20.8544,   21.4983,   20.9849,   19.6150,   19.5011,   19.2325,   20.8594,   21.2628,   22.6547,   24.4183,   26.0464,   26.4472,   28.1380,   30.2873,   32.7251,   36.8370,   42.9302,  999.0000,   46.6889,   46.3608,   46.9339,   46.7817,   45.8403,   48.4973,   48.6108,   48.4416,   48.4676,   46.3200,   44.7789,   45.1802,   44.1872,   44.6532,   46.7440,   47.1963,   46.6573,   46.8793,   46.2586,   46.1533,
23-SEP-2002 14:06:19.82 ,    6.1962,    7.5944,    8.7951,    9.1635,    9.4004,   10.0698,   11.7952,   14.1914,   14.7200,   15.0166,   15.0056,   15.1469,   16.0344,   17.2674,   17.5665,   18.4122,   18.5297,   19.3036,   20.2297,   20.1193,   20.1038,   20.1555,   19.7088,   19.3504,   19.3539,   19.9308,   20.1442,   20.1661,   20.3917,   20.0165,   19.7698,   19.3105,   18.5361,   19.4698,   21.2372,   22.3453,   23.6494,   26.0585,   27.3300,   29.8835,   33.4137,   36.3581,   45.8661,   45.9082,   45.7788,   47.3083,   47.4038,   48.1619,   46.6820,   46.2430,   48.3881,   47.9264,   49.3325,   48.7122,   46.9073,   45.2618,   45.5152,   44.6601,   45.6260,   44.1628,   45.4680,   45.3315,   46.4248,   44.8539,   45.9651,
23-SEP-2002 14:09:01.53 ,    1.8907,    3.5471,    5.8103,    7.6244,    9.3374,   10.7133,   12.1295,   14.5091,   15.0856,   15.5612,   14.3541,   14.2356,   14.3539,   14.8967,   15.9083,   16.5892,   17.0800,   18.2162,   19.4672,   19.3910,   19.1418,   18.9547,   19.3222,   18.5625,   18.0569,   17.0821,   18.2095,   18.9293,   19.1484,   18.2025,   17.9433,   18.2417,   17.8540,   17.5581,   17.9038,   18.6416,   20.3739,   25.0008,   31.7642,   31.1848,   33.7493,   36.8910,   40.1660,   47.1289,   45.9234,   48.3434,   48.7895,   48.2438,   47.3861,   48.8012,   50.1968,   49.0007,   50.7970,   50.6665,   47.0668,   44.9777,   43.9619,   44.4011,   45.7378,   46.2162,   46.2431,   45.8489,   46.2404,   44.6737,   46.5840,
23-SEP-2002 14:11:42.83 ,    0.5397,    1.8090,    4.7018,    6.8472,    8.0789,    9.2609,   10.0824,   11.4586,   12.0217,   12.6920,   12.1870,   12.5846,   12.5329,   13.4831,   14.9990,   16.0686,   16.6330,   18.1930,   19.4944,   19.1055,   19.0955,   19.3031,   19.9314,   19.8778,   20.2976,   13.1631,   12.8931,   13.1333,   13.5856,   13.2840,   13.2825,   13.5779,   13.3747,   12.9714,   13.7588,   14.5406,   16.2267,   29.6160,   33.0896,   30.8284,   34.2687,   43.6512,   46.7489,   48.9529,   45.9913,   46.9781,   47.9816,   47.5744,   46.7964,   48.1243,   51.4089,   52.4814,   52.7467,   50.6804,   47.4653,   46.9331,   45.7148,   45.6859,   47.7459,   49.3628,   47.9225,   47.4857,   48.3833,   47.1674,   49.2176,
23-SEP-2002 14:14:24.05 ,    6.4818,    7.2378,    9.1901,   10.0109,   10.6110,   11.0881,   11.7331,   11.5322,   12.1140,   12.6215,   13.1596,   14.2043,   14.9295,   15.6855,   16.8193,   17.7124,   18.4135,   19.8217,   20.6211,   20.0637,   19.5922,   19.6030,   19.8308,   19.9915,   19.6917,   19.1054,   18.8511,   18.9702,   18.5161,   17.8016,   17.5612,   17.5568,   17.5731,   18.0014,   18.3944,   19.9831,   21.6489,   26.6185,   26.6152,   29.9348,   33.0986,  999.0000,  999.0000,   46.7637,   48.2874,   48.4498,   49.7143,   47.3647,   47.4877,   49.5494,   52.0152,   51.4562,   52.2054,   47.2437,   50.2154,   50.2149,   48.3416,   46.5198,   47.5947,   48.1746,   46.9899,   46.5501,   46.9875,   48.2350,   50.3361,
23-SEP-2002 14:17:05.38 ,    7.9014,    7.9298,    9.0433,   10.3268,   10.8047,   11.5071,   12.4977,   12.3237,   12.7977,   13.7263,   14.4784,   15.3614,   15.7250,   15.5303,   16.2181,   16.7191,   17.5564,   19.0145,   20.1497,   20.1114,   19.8916,   19.8816,   19.5840,   19.9754,   18.9894,   17.3027,   15.7631,   14.2451,   12.8486,   11.7329,   11.8042,   12.1182,   11.5891,   11.5951,   12.4062,   13.6996,   15.1113,   30.0639,   22.5074,   28.6741,   33.2931,   37.3810,   41.3588,   43.7264,   46.7875,   48.4839,   46.0684,   47.6606,   46.6451,   46.9733,  999.0000,   49.8158,   51.5661,   49.3893,   50.7789,   50.0206,   47.8293,   47.9762,   47.2551,   47.5874,   48.5995,   48.0761,   47.2048,   48.2811,   49.7593,
23-SEP-2002 14:19:46.92 ,    6.8687,    7.4251,    7.3470,    8.1211,    7.7222,    8.8749,   10.2090,   10.5061,   11.3826,   12.4664,   13.3882,   13.2757,   13.6199,   14.0155,   15.0899,   16.0703,   16.8335,   18.2248,   19.3637,   19.1449,   19.5303,   19.8675,   19.3121,   17.1612,   17.7335,   18.4134,   18.4217,   18.4195,   18.1556,   17.2574,   17.0021,   17.5633,   17.0039,   17.3716,   18.8803,   20.5005,   22.8995,   23.1546,   27.3515,   36.7766,   31.5943,   34.9211,   36.6390,   39.5159,   44.8733,   47.7097,   48.3465,   47.1238,   47.3857,   47.3101,   48.9784,   49.2972,   50.8439,   48.7326,   49.3494,   49.3823,   47.1437,   47.6821,   47.2863,   48.1017,   49.5482,   45.8602,   45.7226,   49.5516,   49.5609,
23-SEP-2002 14:22:28.21 ,    4.8776,    5.5963,    5.1922,    5.0426,    4.9363,    6.3408,    9.1584,    9.5635,   11.1237,   11.7944,   12.4089,   12.1299,   13.0823,   14.3320,   15.7505,   17.2116,   18.2443,   19.2460,   19.7077,   19.2637,   19.3562,   19.4491,   19.8653,   11.7191,   12.0075,   11.9100,   11.7851,   12.0475,   11.5598,   11.7201,   12.3187,   12.2368,   11.3300,   11.4764,   12.9571,   13.4701,   14.2926,   14.9178,   36.3248,   38.4257,   30.1671,   37.4557,   41.3070,   42.8769,   45.1642,   47.8177,   48.8028,   46.0416,   46.5183,   47.7126,   48.8049,   50.5128,   51.2634,   49.1471,   48.0254,   47.8300,   46.8611,   47.9383,   49.6768,   50.1119,   48.9525,   48.9838,   50.1104,   49.4201,   50.0218,
23-SEP-2002 14:26:22.33 ,    4.4854,    5.0364,    4.9881,    6.0081,    5.8311,    6.0034,    9.4852,   11.2318,   12.2125,   12.8871,   12.9036,   13.4523,   14.8703,   15.8904,   16.9359,   17.9662,   19.3882,   20.2387,   19.9876,   20.0467,   20.1776,   20.3154,   20.3548,   19.1918,   19.6215,   20.5161,   20.9894,   21.2410,   21.1859,   20.5513,   20.4930,   20.1774,   19.8168,   20.4689,   22.4730,   24.1471,   24.9099,   26.2470,   29.6856,   37.1414,  999.0000,   38.1995,   41.1817,   44.5835,   45.8473,   45.7021,   46.4926,   46.3046,   49.9329,   49.1251,   48.0460,   49.3838,   47.4948,   48.9313,   46.0878,   46.0297,   46.6345,   47.4561,   48.2509,   47.2510,   47.8351,   46.0192,   48.5042,   45.8136,   45.9619,
23-SEP-2002 14:29:03.52 ,    4.5344,    4.9945,    5.3159,    5.9125,    6.0710,    5.7776,    7.7023,   10.2533,   11.4143,   12.3802,   12.8948,   14.0289,   15.6153,   17.1468,   18.2960,   18.6889,   19.6018,   20.2318,   20.1686,   20.4413,   20.1289,   19.9699,   19.7662,   19.4219,   19.5348,   20.5298,   21.1602,   20.9800,   20.7335,   20.8119,   20.8209,   20.1132,   20.1334,   21.0056,   23.1975,   25.0676,   25.6072,   27.1869,   30.6766,   31.5183,   33.6323,   35.7483,   38.9319,   41.8295,   44.6952,   44.5310,   45.5884,   46.3472,   44.7804,   45.1596,   47.3027,   46.8582,   47.6735,   46.9397,   46.1906,   47.8559,   46.8849,   48.2181,   47.1407,   47.9023,   47.5859,   25.8383,   47.5471,   48.1925,   49.7002,
23-SEP-2002 14:31:44.49 ,    3.1033,    3.4771,    3.7225,    4.1768,    4.8987,    4.7184,    5.9110,    7.7734,    9.6261,   11.1386,   12.2382,   12.9234,   13.6888,   15.6126,   17.3189,   18.3917,   19.1749,   19.1413,   19.4987,   19.4966,   19.7494,   19.0624,   20.0570,   19.4714,   19.4131,   19.9073,   20.0710,   20.0572,   19.8813,   19.8479,   19.6555,   19.9413,   20.6060,   21.3989,   22.1034,   24.0438,   25.6637,   26.9678,   27.8285,   31.4506,   33.7528,   36.1844,   39.1920,   40.9251,   44.2520,   46.0125,   45.6886,   45.0551,   44.4101,   44.4047,   45.2126,   46.9086,   45.4340,   49.1865,   44.9482,   46.1017,   45.0824,   50.0270,   45.5901,   47.6490,   44.5734,   45.7503,   45.7999,   45.9722,   47.4315,
23-SEP-2002 14:34:25.49 ,    4.0396,    4.1905,    5.2032,    6.6089,    7.1319,    7.2426,    7.8656,    8.7982,   10.8846,   12.5280,   13.2875,   12.9112,   13.5666,   14.4058,   15.1727,   17.0082,   18.2947,   18.9639,   19.4237,   19.4676,   20.3569,   19.5645,   17.7017,   16.4325,   16.2341,   17.0580,   17.8564,   17.9198,   17.8991,   17.5677,   17.0314,   20.4747,   19.0938,   20.3244,   21.0290,   22.6095,   24.3401,   27.0399,   32.6747,   33.0604,   34.8519,   35.9826,   38.2483,   41.0012,   43.7845,   45.6135,   46.2178,   45.8356,   47.8358,   45.5200,   46.0240,   48.6971,   48.1564,   55.1314,   46.6971,   46.6786,   46.1830,   54.9077,   45.6933,   52.8274,   46.3298,   46.1697,   48.1055,   48.6046,   48.4907,
23-SEP-2002 14:37:07.54 ,    7.7564,    7.2229,    8.7959,   10.0260,   10.1513,   10.1110,   10.7877,   11.5618,   13.2652,   14.4562,   14.5914,   14.0679,   14.7295,   15.2704,   16.0847,   17.4438,   18.1070,   19.6410,   19.9987,   20.2771,   20.7698,   20.1855,    9.6665,    8.3098,    9.5876,   10.7657,   11.5908,   11.6512,   11.9199,   12.0546,   11.5576,   21.1162,   14.2174,   18.2150,   20.5505,   22.2329,   24.1564,   30.0786,   27.5524,   31.2081,   32.3447,   34.5387,   37.2663,   41.3510,   43.7337,   45.8560,   45.3018,   45.2929,   44.8650,   46.5446,   47.5166,   48.2743,   49.8408,   50.1399,   50.8776,   48.3519,   46.6875,   45.0581,   44.8157,   45.8788,   44.2373,   45.5983,   45.4337,   44.0343,   46.1162,
23-SEP-2002 14:39:48.95 ,    8.5108,    7.9381,    8.9234,    9.7455,   11.2491,   11.3920,   11.2209,   11.8264,   12.8136,   13.0222,   13.4245,   13.6857,   14.0121,   14.0836,   15.5176,   16.9841,   17.4665,   18.9932,   19.5016,   19.8889,   20.2455,   19.8862,   18.4147,   17.8077,   18.8086,   19.2408,   20.7383,   20.7623,   20.4425,   20.2710,   20.1240,   20.1833,   20.0871,   20.7585,   21.6783,   22.2736,   23.2526,   24.3207,   25.6482,   28.1352,   30.7555,   32.7495,   36.8515,   39.1675,   41.6049,   44.5913,   45.0292,   44.3108,   44.6156,   44.8430,   47.2717,  999.0000,   48.7227,   50.8338,   51.0135,   48.3273,   47.6651,   50.2413,   45.4679,   46.7100,   45.5705,   46.1053,   45.9726,   46.2170,   48.3894,
23-SEP-2002 14:42:30.52 ,    6.6001,    7.4388,    8.6136,    9.3157,   11.6641,   12.3149,   11.1493,   11.5285,   12.0635,   11.4521,   12.0385,   12.2620,   12.3709,   12.9064,   14.2496,   16.7049,   17.6602,   18.5218,   19.0708,   19.4955,   19.8884,   19.7437,   19.4927,   19.8286,   15.1874,   16.4320,   17.2433,   17.5990,   17.9365,   18.2359,   18.1898,   17.9415,   17.8036,   17.8595,   18.7560,   19.2481,   19.9631,   20.8603,   21.6930,   26.6564,   27.0045,   30.7775,   33.7180,   37.6103,   40.8811,   41.7897,   43.9321,   44.2756,   44.8533,   44.8495,   46.4514,   46.9799,   47.4789,   48.9698,   47.0242,   46.5402,   46.1913,   45.1544,   44.9774,   47.3419,   45.1735,   45.2734,   43.9483,   44.9249,   47.1982,
23-SEP-2002 14:45:12.88 ,    7.5266,    8.6596,    9.8278,    9.8939,   10.8921,   12.3415,   12.5980,   13.1316,   13.3631,   13.3824,   13.3598,   12.6242,   12.8754,   13.8423,   14.9663,   16.7935,   17.4750,   18.2319,   18.4293,   18.7259,   19.0820,   19.3705,    8.7559,    8.2188,    8.2425,    8.9553,    9.1017,    9.1740,    8.8709,    8.9637,    9.3518,    8.9314,   10.0471,   10.1429,   11.2142,   12.7727,   14.4562,   14.9618,   15.6113,   32.3720,   22.5643,   28.6953,   32.3160,   36.1197,   45.1073,   42.7460,   42.9937,   43.8408,   45.8008,   46.3348,   47.8001,   48.6893,   48.5529,   49.3582,   48.0342,   48.3852,   47.4619,   46.6420,   45.8109,   47.3321,   47.3043,   45.7293,   45.2903,   45.8895,   47.4725,
23-SEP-2002 14:47:55.29 ,    8.9806,    8.5622,    9.4855,    9.9095,   11.3003,   12.0947,   12.8399,   13.1701,   12.6367,   13.7422,   14.5553,   13.3035,   13.8826,   14.5133,   15.5518,   16.5923,   16.5875,   16.5455,   15.7624,   15.0505,   14.6447,   14.9275,    8.1688,    8.0221,    8.4336,    8.8511,    9.1033,    9.6365,    9.5745,    9.3152,    9.2678,    9.0384,    9.6760,   10.6492,   12.2504,   15.1967,   18.8585,   20.1506,   20.7064,   22.8610,   25.7147,   28.2451,   33.1176,   38.4120,   40.8964,   41.7691,   45.1599,   45.3548,   46.3527,   47.6590,   48.5748,   48.6748,   49.8985,   50.1474,   51.5060,   51.4685,   49.2618,   47.5682,   47.2033,   48.5227,   47.8170,   46.1365,   46.4520,   47.0564,   47.6999,
23-SEP-2002 14:50:36.53 ,    8.2106,    7.3623,    7.7064,    7.8772,    8.1880,    7.7686,    8.5340,    9.2662,   10.2981,   11.3733,   12.9521,   13.4194,   14.2161,   14.3896,   15.4012,   16.5800,   16.4432,   16.4866,   16.0379,   14.9704,   14.3470,   14.4820,   10.3064,    9.6885,    9.5302,   10.0376,    9.8757,    9.7160,   10.0397,    9.5414,    9.3950,   10.0001,   10.4728,   10.5409,   10.2760,   11.0063,   12.3150,   12.8632,   13.4897,   14.6226,   20.0328,   25.2139,   31.5240,   43.2990,   41.4793,   46.5209,   46.6858,   46.4657,   47.3770,   47.9914,   49.2223,   51.1502,   51.9550,   51.9731,   52.5758,   50.8078,   48.4087,   49.1275,   47.9897,   46.7077,   44.6385,   45.5251,   45.4449,   48.0269,   49.9294,
23-SEP-2002 14:53:19.09 ,    7.6086,    8.3726,    9.1298,    8.7255,    8.1971,    8.4962,    9.2283,   10.7530,   12.6844,   12.9617,   12.8417,   13.2252,   13.7986,   14.6311,   15.5934,   17.0895,   18.2281,   18.7669,   19.0760,   19.1209,   19.1568,   19.1295,   10.2363,   10.3881,   10.6301,   10.7334,   10.8185,   10.2549,   10.1800,    9.7226,   10.0157,   10.8102,   11.0860,   11.0643,   12.2289,   13.5276,   14.0790,   14.4228,   15.1332,   17.3934,   37.0460,   40.2005,   38.3745,   41.2780,   42.6549,   45.9822,   47.7419,   48.3858,   48.7509,   48.5296,   49.1277,   51.2931,   54.5184,   53.8083,   51.7414,   50.0094,   48.9375,   49.1789,   34.5789,   34.3940,   46.8668,   35.1357,   34.6371,   48.3823,   46.5011,
23-SEP-2002 14:56:01.01 ,    8.1803,    9.2695,    9.9634,    9.0220,    8.7641,    9.4816,   10.6419,   11.8107,   12.6526,   12.8986,   12.8848,   13.3452,   13.5817,   14.8758,   15.9915,   17.1320,   17.7650,   17.5807,   17.7084,   18.6949,   18.6341,   18.6242,   18.7163,   18.6913,   18.5571,    8.9069,    9.6877,    9.6442,    9.4388,    9.3858,   10.0637,   11.3177,   12.3197,   13.3576,   16.4891,   18.4359,   19.5630,   21.4331,   22.8243,   35.1039,   31.3493,   35.4074,   39.1299,   41.7732,   42.3740,   45.4013,   47.2600,   49.9369,   50.5344,   49.7637,   50.0960,   52.1115,   50.8506,   50.4100,   53.5795,   49.4720,   48.5231,   48.8079,    7.2351,   10.6446,   49.1719,   12.4213,   10.8645,   48.8551,   48.3667,
23-SEP-2002 14:58:42.17 ,    8.8098,    9.0909,    9.1117,    9.0215,    9.8493,    9.9006,   10.7469,   11.4834,   11.9554,   12.4965,   12.9701,   13.8908,   14.3758,   15.0523,   16.1978,   17.3226,   17.1884,   17.2838,   18.3570,   20.0596,   19.6234,   19.1148,    8.0699,    8.0551,    8.0288,    8.2582,    8.4736,    8.7389,    8.6860,    8.5811,    8.8982,   11.1218,   14.0226,   16.4044,   19.4738,   20.8722,   21.8133,   23.8627,   24.9103,   28.7430,   30.5198,   33.5884,   36.8907,   40.2240,   43.3037,   45.4423,   47.1545,   47.9086,   49.3382,   49.0317,   48.7724,   50.8763,   52.5657,   52.2534,   48.6617,   49.0635,   48.1186,   48.9647,   46.9492,   47.7147,   48.3118,   47.3244,   46.1823,   47.0409,   48.5716,
23-SEP-2002 15:01:23.54 ,    9.0063,    8.9959,    9.4093,    9.7611,   10.4642,   10.1089,   10.2817,   11.0936,   11.6988,   12.4361,   13.0653,   13.6995,   14.9548,   16.4929,   17.9673,   19.3516,   19.7654,   19.3856,   18.6172,   18.3833,   17.2353,   16.2961,    9.5895,    8.5248,    8.6317,    9.1887,    9.3457,    9.0683,    8.9068,    9.2305,    9.3621,    9.5522,   10.2300,   10.8295,   11.2644,   12.1683,   12.7049,   13.2586,   13.6490,   32.1790,   22.2064,   28.6642,   31.7757,   33.6369,   43.8741,   46.4549,   46.8160,   46.4324,   47.2149,   48.7934,   47.3330,   48.2169,   49.7736,   50.4625,   50.9506,   51.6481,   49.8586,   50.0392,   48.7129,   49.3563,   50.0085,   48.8796,   48.2982,   48.1953,   49.5136,
23-SEP-2002 15:04:05.82 ,    7.2144,    7.8741,    9.1192,    9.5446,    9.3200,    9.0911,    9.9481,   10.7334,   10.6836,   11.4164,   11.8908,   12.6564,   14.2590,   15.9945,   17.1448,   18.6635,   19.8137,   19.3167,   17.9377,   16.9830,   15.9389,   15.1245,    9.0470,    8.5077,    9.1360,    9.4380,    9.3302,    9.2493,    8.9638,    9.1818,   10.0046,   10.4315,   10.7524,   11.9753,   14.3611,   15.4918,   16.3033,   17.2105,   17.7886,   18.7751,   19.4318,   20.6626,   22.1423,   23.0311,   46.8500,   48.3837,   44.7947,   45.1097,   45.8104,   46.5923,   47.2997,   49.5795,   50.5410,   51.9226,   51.4621,   50.6630,   51.0962,   48.4728,   46.7149,   48.0757,   48.4012,   49.2188,   48.2410,   47.2719,   48.5184,
23-SEP-2002 15:06:46.82 ,    7.1371,    7.7030,    8.1974,    8.0937,    8.4741,    8.1421,   10.1320,   10.5343,   11.0524,   12.8069,   13.5413,   14.7971,   15.9755,   16.5620,   17.0952,   17.8803,   19.2917,   20.0276,   20.0324,   19.8512,   19.6095,   19.4377,    8.3050,    8.3453,    8.3413,    8.5394,    9.2295,    9.0912,    9.0891,    9.0846,    9.3333,    9.7979,   10.3223,   13.4556,   18.2209,   20.2042,   21.5264,   23.1684,   23.9247,   26.1986,   27.8796,   29.3362,   32.3169,   35.7191,   38.2227,   41.2541,   43.2205,   45.0301,   46.5234,   44.8900,   45.8899,   49.0028,   50.0677,   51.8818,   52.5166,   49.5606,   49.2690,   49.9295,   48.1206,   47.3967,   49.0250,   48.4811,   46.9243,   46.5221,   46.4038,
23-SEP-2002 15:09:28.01 ,    7.0107,    7.2203,    6.8562,    6.5679,    6.4544,    7.0059,    8.8814,    9.5073,   10.7815,   13.0267,   14.1564,   15.9284,   17.0862,   18.5344,   20.1268,   20.5461,   20.5312,   20.9318,   21.2373,   20.6735,   20.3619,   20.7099,    8.2672,    8.5284,    8.7358,    8.9475,    8.9264,    9.8365,    9.9247,    9.3511,    9.7955,   10.2827,   10.3372,   10.5940,    9.9818,   10.6124,   11.7556,   12.1853,   15.6036,   18.6012,   22.0690,   36.6422,   38.2107,   36.4285,   43.8733,   44.4396,   43.8953,   45.2458,   45.6045,   45.2261,   47.0024,   48.4148,   51.1599,   50.5410,   50.0184,   48.3249,   49.1950,   50.9412,   49.1002,   47.6520,   48.1017,   46.9680,   46.3936,   46.0972,   45.1881,
23-SEP-2002 15:12:09.06 ,    5.7529,    6.4723,    6.5356,    6.6784,    5.9402,    6.1416,    7.9499,    9.2462,   10.3849,   12.8493,   13.9802,   15.6918,   17.5696,   19.1804,   21.0335,   22.0985,   21.7572,   21.7819,   22.2184,   21.7117,   21.3007,   21.5550,    8.6211,    8.5551,    9.1077,   10.2151,   10.1122,   10.7500,   10.7116,    9.8355,   10.5135,   10.7486,    9.9462,    8.7069,   10.9199,   13.9465,   15.2448,   15.7971,   29.9644,   21.5188,   24.7543,   27.4809,   33.0379,   36.6022,   39.3826,   41.2236,   43.8067,   45.0020,   45.6482,   45.0632,   47.0162,   47.7876,   49.0889,   49.4234,   47.9456,   48.0094,   48.9590,   49.5359,  999.0000,  999.0000,   47.4813,   46.2829,   46.3505,   47.6018,   47.7231,
23-SEP-2002 15:14:50.23 ,    5.9436,    6.5082,    6.6273,    6.9128,    7.2187,    7.0287,    8.5399,    9.6513,   10.6628,   13.0069,   13.7980,   15.0181,   17.1907,   18.6885,   20.1083,   21.2194,   21.6040,   22.7857,   24.3417,   25.0500,   26.2739,   28.2958,    9.4562,    9.5321,    9.7819,   10.7890,   10.1432,    9.0150,    8.9559,    8.7108,    8.0498,    7.9200,    7.8756,    9.1345,   12.4239,   16.6194,   19.5313,   21.1399,   23.5843,   25.9008,   30.9992,   29.6659,   34.1925,   36.9657,   40.3874,   41.8689,   44.2427,   46.6174,   46.7710,   45.9091,   48.2033,   48.9357,   49.6154,   49.9119,   49.9634,   49.2629,   49.8573,   48.8348,   48.4486,   46.5031,   47.7731,   47.1279,   46.4146,   47.0690,   47.4897,
23-SEP-2002 15:17:31.53 ,    6.2896,    6.2386,    6.0840,    7.0408,    8.5203,    8.8099,    9.5696,   10.7683,   11.5476,   13.6642,   14.3779,   15.3830,   17.3976,   18.4330,   19.6634,   20.3312,   20.6666,   21.7039,   23.0993,   24.0710,   25.4051,   27.7080,   29.5152,    9.4402,    9.3769,    9.8478,    8.2381,    6.3056,    5.6039,    4.9348,    3.3973,    2.7041,    2.7232,    2.9327,    3.0482,    2.8929,    5.4791,    8.8678,   11.3360,   14.6177,   37.4004,   27.9015,   34.8048,   38.6245,   40.7831,   43.3533,   45.6410,   45.6327,   44.5734,   45.9298,   47.1076,   48.5859,   50.2335,   50.0899,   49.2445,   49.5139,   49.1155,   49.0077,   48.2018,   46.7336,   47.9177,   48.9470,   47.1419,   48.1890,   48.7545,
23-SEP-2002 15:20:12.51 ,    5.6708,    6.4561,    6.8499,    7.5901,    9.2015,    8.8701,    8.8722,   10.6129,   11.9395,   14.1145,   14.3369,   14.6959,   16.7392,   18.6416,   19.5474,   20.0043,   20.0341,   19.8769,   19.7316,   19.5736,   19.4505,   19.8354,   11.6493,   11.8023,   11.9152,    9.5961,   11.4638,   10.6303,   10.8290,   10.8671,   11.0905,   11.7013,   12.2380,   13.7097,   14.6813,   14.7258,   15.5515,   16.6758,   17.8223,   32.2650,   34.8077,   38.4260,   37.4701,   40.0702,   40.6661,   42.2431,   46.1460,   47.6692,   46.9818,   46.3671,   47.3830,   48.2030,   48.8471,   50.2787,   50.8698,   49.2863,   46.4722,   47.5049,   48.1991,   48.1881,   49.5329,   50.6849,   46.8178,   49.2210,   49.2230,
23-SEP-2002 15:22:53.64 ,    5.3664,    6.4416,    8.1229,    8.0077,    8.7933,    9.0760,    8.7957,   10.4604,   12.2863,   13.9561,   14.3432,   14.7427,   15.9578,   18.8779,   19.7077,   19.7639,   19.5477,   19.5551,   19.8631,   19.7403,   19.3713,   19.7181,   17.3721,   17.2448,   17.2912,   20.5986,   13.8825,   11.1528,   10.9334,   11.0601,   11.7216,   13.7055,   15.1211,   19.1336,   20.4374,   21.0108,   22.3339,   24.3238,   25.7702,   28.6905,   33.2777,   34.9477,   33.9886,   36.4800,   38.4949,   40.9687,   43.3795,   44.3514,   44.1495,   45.5120,   47.4472,   48.1117,   48.7103,   48.6920,   48.6640,   46.5184,   47.3929,   48.9768,   49.1148,   48.9951,   50.1246,   51.3689,   51.2465,   49.6011,   48.7903,
23-SEP-2002 15:25:34.92 ,    6.4038,    6.5427,    7.9014,    8.5914,    8.8759,    9.7414,   10.1127,   10.7842,   12.1331,   14.4092,   15.3603,   15.8619,   16.3892,   18.4836,   19.3997,   19.3493,   19.0594,   19.1771,   19.6355,   19.4466,   18.3839,   18.2625,    8.7094,    8.2443,    8.4792,    8.8161,    9.5754,   10.4699,   10.3980,   10.9469,   11.3144,   11.4535,   11.5693,   11.7939,   11.9839,   12.8867,   13.5311,   14.2326,   15.2634,   32.0609,   34.0473,   35.2447,   32.7137,   34.9016,   37.0816,   38.9557,   40.9607,   41.9558,   43.9707,   45.8243,   45.6563,   46.4280,   48.9345,   50.3786,   52.2995,   50.4006,   50.9584,   49.5033,   47.4545,   48.4715,   45.9860,   45.1954,   45.9936,   46.5410,   46.5513,
23-SEP-2002 15:28:16.15 ,    7.1338,    7.0818,    7.4208,    7.7189,    7.9058,    8.5757,    9.5490,   10.3389,   11.4207,   13.5769,   15.7084,   15.8812,   16.8716,   18.3012,   19.2869,   19.7988,   20.2413,   20.2541,   20.7040,   20.2069,   18.7213,   18.8748,    9.4141,    9.6494,   10.1856,    9.6135,    9.6173,   10.4414,   10.7011,   11.1054,   11.7773,   11.8124,   11.8677,   12.4484,   13.0423,   13.1232,   13.2399,   13.7320,   15.1606,   18.6683,   21.7305,   25.7717,   28.0157,   31.5045,   37.3967,   38.6529,   41.2704,   43.3593,   44.8624,   44.9661,   44.0061,   44.5129,   45.5376,   45.8171,   48.6262,   50.8413,   49.9754,   48.7105,   47.6820,   43.7612,   42.3908,   46.7347,   46.2325,   46.9648,   46.1933,
23-SEP-2002 15:30:57.14 ,    7.3642,    7.1984,    7.0714,    7.3832,    7.2075,    8.4739,    9.8372,   11.4352,   12.3861,   13.1945,   15.4377,   16.6213,   17.7443,   17.9209,   18.9326,   19.4651,   20.4758,   20.5919,   20.8678,   20.3546,   19.5487,   20.0908,   13.6521,   13.7859,   13.7986,   13.6926,   13.1455,   13.5024,   13.7127,   14.2654,   14.9626,   14.7455,   14.9837,   15.5462,   15.4985,   15.7467,   15.9476,   15.9974,   17.9930,   18.5650,   18.8363,   19.8625,   21.2940,   23.4702,  999.0000,   34.3778,   39.9312,   43.4502,   43.2909,   42.9494,   43.3983,   43.7454,   44.3055,   46.5656,   48.7276,   48.5117,   48.9270,   48.2198,   49.5964,   50.2354,   47.9852,   46.8181,   46.2075,   46.5124,   48.3930,
23-SEP-2002 15:33:38.88 ,    5.9886,    5.8399,    5.9356,    6.6840,    6.6788,    7.8907,    9.2164,   10.3862,   12.5208,   13.7478,   14.9645,   16.5482,   17.8156,   18.5052,   18.6356,   19.1090,   20.0202,   20.4635,   20.3616,   19.8933,   19.8430,   20.0305,   18.6200,   18.6212,   18.5345,   18.3031,   18.0940,   18.7271,   18.7961,   19.3046,   19.9986,   21.0345,   22.3813,   23.8410,   24.0930,   23.9612,   23.8623,   24.8031,   26.1963,   28.0641,   29.4723,   32.0984,   34.2936,   36.9657,   39.5263,   41.0251,   42.5407,   43.6093,   43.8282,   43.7769,   43.0473,   44.2336,   46.7327,   46.7703,   46.7369,   47.2799,   49.4365,   50.5056,   50.9716,   49.7620,   47.9714,   48.5200,   49.1715,   49.2439,   49.0645,
23-SEP-2002 15:36:19.90 ,    6.3246,    5.6529,    5.6984,    5.8738,    6.1359,    5.9480,    7.8196,    8.9400,   11.4845,   14.2391,   15.0478,   15.9123,   17.4512,   19.1246,   19.3006,   19.6271,   20.0858,   20.4617,   20.0232,   19.3293,   19.4224,   19.6621,   11.5549,   11.5962,   11.8157,   11.4465,   10.9792,   11.2058,   11.4472,   11.4700,   12.2593,   23.6514,   18.4660,   21.3203,   21.0774,   20.8245,   21.1900,   22.3570,   24.6127,   26.1417,   31.7658,   30.1068,   31.5957,   33.8467,   37.3960,   40.1817,   41.9386,  999.0000,   44.6492,   43.9977,   43.7928,   45.7559,   46.2932,   46.6535,   46.7876,   47.1078,   47.8833,   48.5667,   48.8729,  999.0000,   46.8046,   45.3767,   47.0165,   47.9772,   48.7331,
23-SEP-2002 15:39:00.94 ,    6.0912,    5.5314,    4.8457,    4.3975,    4.3667,    4.6495,    7.2584,    9.6144,   11.2927,   14.5560,   15.2280,   16.1697,   17.5047,   19.2830,   19.7354,   19.8739,   20.3080,   20.4135,   20.1644,   19.4964,   19.3814,   19.5465,   10.5430,   10.6943,   10.9669,   10.5310,   10.2330,   10.8212,   11.2090,   11.3442,   11.7231,   12.6318,   12.7484,   12.7755,   11.7816,   11.6714,   12.8482,   13.5471,   13.9048,   14.6295,   34.5958,   22.3620,   29.4713,   34.5987,   38.9934,   42.2354,   43.7670,   44.7935,   44.4012,   44.1970,   45.7671,   46.4854,   47.2030,   49.6205,   49.4718,   50.4893,   50.2776,   50.2017,   50.4273,   50.0330,  999.0000,  999.0000,   46.8946,   46.6067,   48.1033,
23-SEP-2002 15:41:42.38 ,    6.3042,    5.6409,    4.8418,    4.4933,    4.6190,    4.9460,    6.8710,    9.1105,   10.5041,   12.6084,   13.9736,   15.8400,   17.3294,   18.0100,   18.4806,   18.4606,   18.7329,   18.8220,   19.0595,   18.6716,   18.4502,   18.9145,    9.8491,    9.6698,    9.8729,   10.1266,   10.4435,   10.6241,   10.6990,   11.3977,   11.5812,   11.7838,   12.1558,   12.7688,   12.5062,   12.1307,   12.2896,   13.3290,   14.3521,   16.4004,   34.4460,   26.0465,   33.3316,   37.7371,   39.6122,   41.7632,   43.9121,   44.2646,   43.4906,   43.8523,   46.3895,   47.5686,   48.0729,   48.8967,   51.3686,   50.8943,   49.9050,   49.9214,   50.5233,   47.1833,   46.8684,   47.4320,   50.4019,   49.8106,   50.7560,
23-SEP-2002 15:44:23.67 ,   10.5115,    9.0561,    7.9592,    6.8942,    6.7248,    6.2727,    7.5712,    9.0678,    9.9760,   11.2301,   13.0878,   14.9182,   17.0158,   17.1381,   17.1217,   17.1061,   17.5916,   18.2303,   18.8030,   18.5709,   18.4987,   19.0678,   12.0399,   11.8129,   12.2011,   12.5613,   12.7751,   13.0721,   13.5351,   14.3500,   14.5608,   14.4715,   14.5888,   16.1234,   15.8032,   14.6128,   15.0017,   15.3599,   17.3331,   32.2403,   34.8162,   33.7828,   34.8382,   37.0234,   40.2077,   42.7938,   45.0219,   46.8649,   45.8450,   45.8370,   47.1892,   46.6432,   46.9676,   49.1235,   48.0802,   50.6649,   50.2880,   50.1003,   50.6262,   50.4649,   50.6154,   48.9819,   50.6182,   50.4728,   51.8477,
23-SEP-2002 15:47:05.64 ,   10.8839,    9.3848,    8.0776,    6.9708,    6.5371,    6.6603,    7.8237,    9.2233,   10.5425,   12.5160,   14.1476,   15.6672,   17.5778,   17.9397,   17.9178,   18.1073,   18.6695,   19.3951,   19.3522,   19.2491,   19.7422,   20.1607,   20.3825,   20.7676,   21.1216,   21.0155,   21.1619,   21.7677,   22.2933,   23.0761,   23.2470,   23.1018,   23.3508,   24.1289,   23.5838,   23.5814,   25.2459,   25.5585,   27.1313,   29.0853,   32.0244,   35.1240,   35.2266,   37.3252,   39.9272,   43.0297,   44.8252,   45.0326,   45.9234,   46.1495,   46.1239,   46.5205,   47.8412,   49.8440,   50.2885,   51.7704,   50.8679,   50.3681,   50.9040,   49.7340,   49.0521,   49.4865,   49.0689,   49.3833,   48.7583,
23-SEP-2002 15:49:47.00 ,    6.8846,    7.3798,    7.2982,    7.1277,    7.3282,    7.3137,    8.5967,   10.0878,   11.4096,   13.5789,   15.8138,   17.3916,   18.4087,   18.3530,   18.5798,   19.4512,   20.0015,   20.1935,   19.8154,   19.9140,   20.5705,   20.7854,   18.3220,   19.9808,   19.9531,   19.3500,   18.0194,   18.6052,   19.9864,   20.7199,   20.9760,   21.2864,   21.3830,   21.2308,   19.5920,   19.9133,   23.4242,   30.8303,   25.3624,   27.2719,   31.1230,   32.6888,   34.0700,   36.6960,   37.4177,   40.5336,   45.3347,   39.2522,   39.7743,   42.8089,   42.1138,   45.5887,   48.0181,   50.3122,   51.0510,   49.2445,   49.1989,   49.3408,   49.1309,   47.1813,   46.8057,   50.3369,   51.0128,   51.0439,   49.7357,
23-SEP-2002 15:52:28.29 ,    8.1824,    8.2677,  999.0000,    7.2209,    8.8101,  999.0000,   10.8359,   12.1871,   12.6670,   14.9980,   17.5229,   18.6271,   19.3990,   19.2939,   19.2127,   19.5553,   20.1089,   20.5825,   20.7856,   20.6831,   20.7522,   20.7047,   20.3449,  999.0000,   19.6524,   21.8176,    9.3044,   10.1183,   12.2668,   12.7846,   12.9982,   13.5450,   13.9224,   13.8260,   12.7617,   12.7213,   29.5142,   18.4337,   22.1764,   28.4910,   30.4606,   33.4934,   35.2680,   38.6766,   33.8426,   31.6847,   44.6763,   26.3491,   27.3997,   31.6777,   34.1886,   39.7445,   43.7074,   48.0431,   50.2492,   50.7936,   49.7762,   49.9223,   49.6484,   47.8627,   48.1415,   49.2585,   49.2102,   48.9540,   49.7369,
23-SEP-2002 15:55:11.11 ,    8.7352,    7.5157,  999.0000,    7.0605,    9.2687,  999.0000,   11.6957,   12.8026,   13.3545,   15.4102,   16.9779,   18.0541,   19.0707,   19.2805,   19.0533,   18.1155,   18.3524,   18.9691,   19.6511,   19.8042,   19.8175,   20.0016,   13.3616,   15.1837,   14.6185,   13.1832,   13.9379,   14.3775,   15.1415,   15.7927,   16.7127,   17.2911,   17.2267,   16.6929,   15.9765,   16.2408,   16.3613,   16.4230,   16.6885,   33.1529,   33.8398,   35.4615,   36.1568,   36.9819,   39.2703,   42.0826,   44.0681,   45.6590,   46.0046,   46.4571,   46.9937,   49.5506,   50.4994,   50.7513,   51.4151,   51.4171,   49.4566,   50.1792,   50.3496,   48.6160,   48.3409,   48.0873,   48.3824,   47.3809,   49.8637,
23-SEP-2002 15:57:52.50 ,    5.6498,    5.3142,    4.5071,    5.3949,    6.4522,    7.2784,    9.1913,   10.3604,   11.6321,   14.5560,   16.4256,   17.2908,   18.0371,   18.7458,   18.4826,   17.3692,   17.4240,   17.8176,   18.0429,   17.8900,   18.0792,   18.5391,   18.1865,   18.4951,   17.0031,   17.2332,   19.7793,   20.6213,   21.2948,   22.1511,   22.6348,   22.7646,   23.3077,   24.5546,   24.8265,   24.6951,   25.4685,   25.9175,   26.6453,   28.3051,   30.9530,   33.5666,   37.7276,   38.0838,   39.6076,   42.7903,   45.4625,   47.7999,   46.3148,   46.1246,   47.8081,   50.6971,   50.8264,   52.4403,   50.0632,   49.4254,   47.2117,   47.8926,   47.1899,   45.8564,   46.2974,  999.0000,   48.6028,  999.0000,   49.5922,
23-SEP-2002 16:00:33.54 ,    3.7155,    4.0054,    3.5417,    3.3893,    4.0451,    4.1205,    5.6630,    8.9196,   11.0488,   13.3917,   15.7068,   16.8683,   17.5497,   18.2847,   18.2690,   17.5874,   17.8074,   18.2028,   17.9822,   17.4959,   17.9434,   18.6312,   18.3707,   18.9558,   19.5005,   20.1118,   20.7913,   21.5193,   21.4633,   22.4601,   23.2186,   23.4417,   24.0575,   24.9920,   24.7702,   25.0012,   25.9219,   25.9627,   27.3801,   28.9745,   31.5465,   33.9729,   36.9485,   38.1180,   40.0559,   42.6434,   45.2210,   46.5582,   45.7956,   46.4042,   48.5104,   49.7469,   50.0694,   52.4018,   50.5458,   50.5770,   49.2589,   48.8496,   45.6309,   46.0332,   47.1819,   47.2579,   47.3852,   47.6687,   48.1307,
23-SEP-2002 16:03:14.52 ,    5.2982,    5.2460,    5.6763,    4.5447,    4.1148,    3.2543,    4.3071,    7.1174,    9.9592,   11.7583,   14.3534,   16.0904,   16.7892,   17.2635,   17.7926,   17.5238,   17.7973,   18.4929,   18.5113,   18.4518,   19.2384,   19.8750,   19.5186,   20.0237,   20.1415,   20.6696,   20.6989,   21.7329,   22.9139,   23.8323,   24.1839,   23.9038,   24.1346,   24.5557,   24.9719,   25.0767,   25.7187,   25.9055,   26.1430,   28.0727,   30.6759,   32.4562,   34.8142,   37.3333,   39.8075,   43.2617,   44.2694,   46.2633,   46.9976,   46.2587,   47.7636,   49.5325,   50.1292,   53.1598,   51.8289,   49.3162,   49.5181,   49.5568,   47.6366,   48.1035,   48.4263,   49.1850,   49.4752,   49.2186,   49.5663,
23-SEP-2002 16:05:56.57 ,    5.1417,    4.8495,    5.0867,    5.9093,    5.2446,    5.7185,    6.5307,    7.7594,   11.2960,   14.0826,   16.5911,   17.6936,   18.1238,   17.1780,   16.6218,   16.9786,   17.6408,   18.3284,   18.3563,   18.5709,   19.6264,   20.4223,   20.6926,   20.3959,   19.4292,   19.6997,   20.0219,   21.0858,   22.1990,   23.3333,   23.9004,   22.3849,   22.7279,   23.0094,   24.3356,   22.7782,   22.4024,   22.1127,   22.6074,   25.5674,   26.6894,   30.7855,   34.7962,   38.6402,   40.1431,   42.9641,   44.7774,   46.1496,   46.5461,   46.6570,   51.0954,   48.4095,   49.7688,   52.4637,   51.9783,   49.4159,   50.1690,   50.3518,   48.2597,   47.1289,   47.5122,   49.4326,   50.3720,   49.9129,   49.7282,
23-SEP-2002 16:08:38.39 ,    6.1144,    5.7963,    7.0341,    9.1380,    8.5803,    8.7203,    9.9422,   11.9139,   14.1860,   15.8799,   17.1178,   18.4227,   18.7115,   17.4174,   16.3545,   16.9891,   17.6652,   18.0826,   17.6227,   17.7673,   19.0175,   19.6779,   18.7529,   19.9546,   20.1265,   19.1734,   19.1870,   19.5334,   18.7807,   18.6817,   18.0342,   17.0357,   16.6395,   14.7128,   14.3363,   13.8691,   13.0751,   13.1219,   13.4536,   33.8599,   36.0994,   37.6483,   32.5686,   36.7199,   39.4263,   41.6676,   46.6574,   47.4689,   45.8535,   47.0014,   48.5948,   47.8616,   49.6153,   52.6760,   52.4433,   51.5164,   51.2667,   49.8707,   48.2083,   48.1375,   47.1980,   48.2356,   49.6636,   50.0384,   50.3825,
23-SEP-2002 16:11:20.09 ,    7.3462,    7.5880,    8.4677,    9.1123,    8.7055,    8.4300,    9.8219,   11.8442,   13.5141,   15.0250,   16.0984,   16.9195,   17.6014,   17.4550,   17.2436,   17.6582,   18.1887,   18.3699,   17.6176,   17.6450,   18.7208,   18.9011,   19.6031,   20.0966,   18.2057,   14.8644,   13.5100,   13.5279,   13.7116,   14.4935,   15.2831,   15.9019,   16.0895,   16.4610,   16.3035,   16.5245,   16.7230,   16.9237,   17.2536,   17.9282,   19.3981,   20.6809,   37.7259,   39.9690,   38.5230,   40.9973,   46.9270,   44.9178,   45.7046,   47.0649,   48.0526,   47.3871,   48.8079,   50.1038,   50.5503,   50.9822,   50.8669,   48.7583,   49.0445,   48.8683,   47.9581,   48.3153,   48.5959,   48.7099,   49.1970,
23-SEP-2002 16:14:01.69 ,   -1.4988,   -3.9577,  999.0000,  999.0000,  999.0000,   18.0890,   16.0285,   15.6033,   15.9282,   18.2425,   19.8944,   18.8613,   18.8360,   18.6741,   18.1614,   18.2500,   19.0159,   19.4796,   18.7311,   16.5283,   14.0814,   11.8986,   17.8581,   17.8601,   18.3237,   18.5753,   18.0785,   18.2061,   19.1760,   20.2253,   20.9464,   22.1653,   22.7471,   23.2683,   22.6447,   22.6741,   23.2608,   23.3637,   23.2048,   23.9444,   27.7082,   29.3316,   36.8756,   38.7109,   38.7992,   43.0302,   45.3577,   45.9175,   47.8505,   48.7798,   47.5248,   48.1705,   50.5841,   50.9619,   51.9452,   51.0592,   52.5785,   51.9485,   49.9236,   47.3346,   51.5136,   46.3718,   47.9723,   46.8141,   49.3100,
23-SEP-2002 16:16:43.81 ,  -11.9976,  999.0000,  999.0000,  999.0000,  999.0000,   25.1798,   20.8851,  999.0000,  999.0000,   19.2336,   19.9828,   19.3356,   18.9433,   19.2626,   18.7885,   19.3635,   20.2619,   20.2928,   19.6278,   16.9015,   13.3311,   11.2462,    9.6172,   10.1372,   10.1062,   10.6257,   10.4813,   10.9135,   11.2517,   11.3806,   12.1193,   12.7080,   12.7893,   13.3504,   12.1945,   12.5438,   13.0541,   13.3295,   13.1588,   13.7758,   33.3379,   19.9978,   27.7045,   33.2952,   38.5995,   43.6854,   44.6642,   47.1001,   45.8962,   46.4015,   46.9469,   48.3205,   48.6323,   51.1682,   50.4030,   49.6412,   49.9123,   48.6327,   47.5178,   46.8949,   48.4272,   48.8461,   49.6736,   50.1456,   50.5646,
23-SEP-2002 16:19:24.99 ,   -4.3577,  999.0000,  999.0000,   15.1191,   15.4246,   14.9591,   13.9934,  999.0000,  999.0000,   17.2767,   17.6668,   18.6425,   18.4993,   18.5670,   18.1668,   19.0072,   19.8699,   19.3586,   19.2275,   19.4821,   19.5522,   20.6497,   21.1662,   21.2564,   21.5747,   12.8825,   12.8731,   12.7612,   13.0935,   14.3503,   15.5523,   15.4598,   15.1727,   15.5513,   16.0517,   16.1573,   16.3500,   16.7353,   17.0673,   17.1890,   17.5366,   11.3439,   36.5264,   37.2902,   29.0491,   33.9737,   40.0029,   46.2403,   46.8604,   47.6938,   48.9286,   50.2958,   49.8569,   50.8195,   51.2507,   50.5035,   50.3409,   49.9702,   47.9901,   46.5302,   47.2697,   48.1829,   49.8291,   50.5884,   50.1644,
23-SEP-2002 16:22:06.73 ,    7.5837,    8.2019,    8.1686,    7.8450,    9.0294,   10.1108,   11.0617,   12.1888,   13.6305,   15.2463,   16.2948,   17.3164,   17.4446,   17.2472,   16.6085,   16.7836,   17.4422,   17.4326,   17.7684,   19.6568,  999.0000,   26.4699,  999.0000,   12.2505,   11.3843,   15.3634,   13.4884,    6.2169,    7.7061,    9.9808,   12.8461,   28.4843,   11.6647,   12.3254,   13.9582,   14.6782,   15.4379,   15.9572,   17.1050,   17.3147,   18.0082,  999.0000,   23.3639,   24.9156,   46.6118,  999.0000,   45.9655,   40.7589,   31.4445,   32.5492,   34.9787,   46.3520,   46.4241,   52.7028,   52.1610,   52.0181,   50.9352,   47.6589,   46.5789,   45.1219,   43.2959,   41.4612,   41.6507,   41.5607,   41.7518,
23-SEP-2002 16:24:47.83 ,    9.4867,    9.4209,    8.3767,    7.9590,    8.4217,    8.7709,    9.8714,   10.6265,   12.6543,   13.9958,   15.7403,   16.3854,   16.2805,   15.9000,   15.9266,   16.3982,   16.8229,   16.8594,   16.9835,   19.4941,  999.0000,   28.2588,  999.0000,   39.3464,   41.6033,  999.0000,  999.0000,  -12.5595,   -1.5738,   -3.6395,   -6.2499,  999.0000,  -10.0258,   -8.1958,  -20.7228,  -16.3440,  -13.0420,  -11.0101,  -27.0471,  -25.5150,  -24.1473,   -4.3438,   -3.4978,   -5.3311,   -3.8060,   -2.9120,   10.9655,  999.0000,   -5.4282,   -6.1816,   -5.5515,  999.0000,  999.0000,   45.5818,   53.7928,   45.1826,   53.8468,  999.0000,   44.4611,   39.7696,   37.9965,   33.0941,   31.3114,   28.1544,   26.5176,
23-SEP-2002 16:27:29.72 ,    7.8487,    8.3124,    7.1537,    7.0813,    6.7363,    6.5381,    8.0974,    8.7820,   11.4135,   12.9223,   14.9488,   16.1049,   16.6204,   15.6510,   16.0899,   16.8953,   17.4394,   17.6257,   17.6913,   18.7938,   20.1198,   20.5108,   20.3667,   20.8984,   21.1573,   27.0984,   21.7789,   22.1922,   35.6062,   37.1034,   37.6996,   37.6350,   41.0428,   47.3404,    9.3154,    8.1884,    4.5941,    0.5664,  -46.2411,  -44.1181,  -42.7683,   -9.1564,   -5.9610,  999.0000,   20.0257,    0.7446,   20.6702,   12.5557,   17.7990,   18.3195,   20.1946,   15.6795,   19.4856,   25.1696,   41.3003,   29.6510,   42.3380,   35.8732,   43.8883,   43.2285,   45.8612,   46.3270,   49.6169,   49.6755,   51.5124,
23-SEP-2002 16:30:11.24 ,    4.8583,    5.4457,    5.8750,    6.4791,    7.5229,    7.6325,    9.1993,    9.7289,   11.1731,   12.2090,   14.6212,   16.6171,   17.2106,   15.9284,   16.0599,   16.9473,   17.5826,   17.8286,   18.0954,   18.5503,   19.1553,   19.7612,    9.9255,   10.3095,   10.3614,   10.5989,   10.8024,   11.0933,   11.3702,   12.1432,   12.8084,   12.8728,   12.8561,   13.1602,   12.9707,   15.2002,   17.9138,   20.4624,   24.2999,   28.0166,   28.4539,   31.9943,   33.7195,   34.8306,   39.6052,   41.5556,   45.1026,   47.5059,   46.6740,   46.8955,   48.6407,   51.3437,   52.3575,   51.0924,   52.4188,   54.1479,   54.3824,  999.0000,   50.1493,  999.0000,  999.0000,   47.1789,   48.5178,   47.5689,   49.2963,
23-SEP-2002 16:32:53.36 ,    4.2941,    4.9712,    5.7180,    7.1097,    8.8828,    8.5019,    9.7651,   10.3485,   11.8940,   12.8216,   15.1946,   16.8315,   16.5802,   15.8359,   15.8377,   16.4823,   17.0488,   17.2544,   17.2525,   17.6627,   18.3204,   18.9395,   19.9507,   20.9363,   10.1957,   10.6070,   10.6676,   10.5337,   10.6538,   11.8945,   13.1107,   13.3652,   12.5947,   13.0548,   13.6789,   13.4681,   13.5692,   13.9100,   14.4483,   32.1717,   19.2019,   25.3975,   30.1391,   38.3514,   41.1507,   40.4024,   43.6560,   45.9984,   46.7744,   46.4503,   47.9508,   49.0641,   50.6842,   52.0137,   52.5756,   52.7208,   51.8786,   50.7202,   49.7235,   47.8275,   47.9604,   46.8563,   48.8139,  999.0000,   48.6631,
23-SEP-2002 16:35:34.56 ,    7.0157,    6.2319,    6.4769,    6.7581,  999.0000,    7.5886,    8.5563,   10.3371,   12.6819,   13.9856,   15.7613,   17.3182,   17.3229,   16.8449,   15.3473,   13.6348,   12.1943,   10.0871,    8.9070,    7.9056,    6.3727,    5.2074,    5.1696,    6.5989,   11.0642,   11.1997,   11.4267,   11.3065,   11.6366,   12.4664,   13.1990,   13.3442,   13.4774,   13.8504,   13.9698,   14.1868,   14.0072,   14.1382,   14.6439,   15.1677,   16.9506,   35.9164,   36.8311,   35.8751,   41.5832,   43.1963,   43.1877,   45.9133,   47.2638,   47.2907,   47.2233,   49.1786,   49.8053,   51.3301,   52.9198,   52.6769,   50.9281,   49.8103,   48.1134,   48.0080,   46.8922,   47.1733,   47.9993,   49.2370,   49.4703,
23-SEP-2002 16:38:16.53 ,   10.4657,    9.4211,    9.8079,   10.2906,  999.0000,   11.6928,   12.3472,   14.5147,   16.3738,   17.6119,   18.0019,   18.6963,   18.3109,   17.5517,   16.1696,   14.0829,   11.8930,    9.1198,    7.4198,    5.0939,    2.3547,   -0.2759,   -2.3778,   -1.5985,   12.1380,   12.3099,   12.6704,   12.3141,   12.2538,   13.0677,   13.8471,   14.0430,   14.1302,   13.5439,   13.1150,   13.9031,   13.5889,   14.2041,   14.7295,   14.8876,   34.3588,   35.6166,   28.7402,   39.5577,   36.8438,   38.7134,   41.9952,   44.0927,   44.9259,   49.2477,   46.1843,   48.2082,   49.0804,   50.3993,   52.8211,   53.8642,   53.2264,   50.0642,   49.3682,   47.0200,   46.1875,   49.9464,   47.1117,   48.4089,   48.4330,
23-SEP-2002 16:40:58.68 ,    9.3836,    8.4104,    9.0763,    9.4131,    8.3212,    9.5113,   12.2702,   14.1339,   16.1991,   18.6008,   19.5922,   19.3482,   18.2232,   16.9902,   17.9655,   18.4136,   18.2277,   17.9431,   17.4778,   17.2070,   17.0743,   16.2016,   15.5791,   11.9768,   11.6133,   13.4835,   14.7312,   14.8430,   14.9034,   15.5412,   15.8639,   15.6694,   16.4191,   16.6831,   16.9538,   17.6790,   17.3975,   17.6088,   18.6198,   19.1443,   22.1983,   26.9721,   31.4737,   38.6831,   41.7893,  999.0000,   43.2361,   45.8798,   44.5030,   44.2229,   45.9075,   47.2617,   48.0172,   50.5912,   53.6058,   53.3420,   50.1759,   48.9253,   48.4607,   47.0259,  999.0000,   44.5874,   46.7485,   47.9138,   46.8856,
23-SEP-2002 16:43:39.89 ,    5.8436,    4.7764,    4.1066,    4.1523,    2.9964,    5.3186,    8.3224,   11.2595,   14.2674,   17.6013,   19.8821,   19.5883,   18.7736,   17.0394,   17.5694,   18.0137,   17.8404,   17.4048,   17.8711,   19.5553,   20.2451,   20.7760,   21.5772,   22.0867,   21.6568,   20.0287,   21.3930,   21.9743,   22.7174,   23.7147,   23.8757,   24.0993,   24.6420,   25.5800,   25.8542,   25.7419,   26.5196,   27.2875,   27.7005,   27.5943,   28.9950,   32.2754,   34.9186,   38.8423,   40.1208,   39.8933,   42.5254,   44.2466,   43.9840,   44.7384,   46.6513,   47.1682,   47.2377,   50.3713,   51.7771,   48.9227,   50.0256,   48.7329,   47.7109,   47.9686,   46.5051,   45.9116,   47.0131,   48.9872,   49.4472,
23-SEP-2002 16:46:23.03 ,    5.5142,    4.8308,    3.6344,    5.8319,    6.5024,    7.1066,    8.5808,   10.8682,   12.6407,   14.6765,   15.6416,   16.8171,   17.8141,   17.1981,   15.9640,   16.3575,   16.9641,   16.9912,   17.4658,   18.6759,   19.1904,   20.2674,   18.8355,   19.6571,   20.1027,   20.5354,   20.8483,   21.1337,   22.8467,   24.4646,   24.5780,   24.2282,   24.5354,   25.2755,   25.3302,   25.3842,   25.5225,   25.9559,   27.1793,   27.8518,   28.8217,   30.5100,   33.0634,   36.3630,   36.4638,   38.1738,   40.5320,   42.4884,   45.1638,   44.8385,   46.0518,   47.2954,   47.5130,   46.7643,   50.2380,   51.1280,   50.2846,   43.9322,   50.8355,   50.3611,   47.0542,   46.4664,   45.8675,   47.1186,   48.5442,
23-SEP-2002 16:49:04.17 ,    5.8080,    5.7654,    5.8282,    7.7677,    8.2008,    6.8298,    8.1995,   10.1752,   11.1636,   12.8996,   13.9402,   15.6284,   17.1502,   16.8613,   15.3694,   15.4118,   16.1452,   16.6430,   17.2104,   17.9050,   18.6640,   20.6095,   18.0002,   18.9103,   20.3413,   20.9898,   20.9923,   21.3789,   22.9125,   24.3759,   25.3096,   25.1342,   25.2490,   25.7319,   25.6410,   25.3110,   25.6932,   26.1170,   26.7455,   27.2831,   29.1123,   30.1599,   33.0400,   36.7092,  999.0000,   39.4843,   42.0591,   45.0531,   46.0811,   44.8853,   45.5053,   48.5852,   47.6149,   52.0367,   52.8410,   54.2829,   49.9697,   48.2720,   47.6972,   44.2342,   44.3720,   46.6228,   48.0253,   47.3221,   47.8322,
23-SEP-2002 16:51:46.29 ,    5.6494,    6.1954,    6.1519,    6.7461,    8.1186,    8.6036,   10.2781,   12.2750,   13.6267,   14.9210,   15.6563,   16.2124,   16.7778,   16.3009,   15.1845,   15.4319,   16.2192,   16.5514,   17.1555,   17.9953,   18.6154,   20.4012,   17.6308,   18.2259,   18.6055,   18.4774,   18.8745,   19.2044,   19.9171,   21.7262,   23.4081,   24.9737,   25.4874,   25.5822,   25.7821,   25.9776,   27.0514,   27.6066,   27.8887,   27.7049,   28.1718,   33.8139,   35.8634,   38.6335,   36.9632,   39.1990,   42.4530,   45.8800,   45.7287,   46.1182,   45.4048,   45.9789,   46.6320,   49.0502,   48.9651,   48.0824,   48.7665,   45.6356,   46.3490,   47.0188,   46.7839,   46.3675,   48.0487,   46.9954,   47.2065,
23-SEP-2002 16:54:29.66 ,    5.7445,    5.8898,    5.4750,    5.7001,    7.8184,    8.9480,   10.2254,   11.7970,   13.8033,   14.7443,   15.0502,   15.1574,   15.3614,   15.3578,   15.1915,   16.1865,   17.0093,   16.8752,   17.0693,   18.1514,   18.7392,   19.5793,   18.0956,   19.2977,   18.7421,   15.4802,   13.8563,   14.5237,   14.9956,   17.4233,   20.4033,   23.7570,   24.4597,   24.4815,   25.2759,   25.8773,   26.7935,   27.5391,   27.6049,   28.6935,   29.9306,   31.4138,   33.4434,   36.5686,   35.5826,   37.9027,   39.9667,   42.8225,   43.5177,   45.2372,   45.6081,   45.6962,   47.7410,   50.3254,   47.0603,   46.9988,   49.0615,   47.0947,   47.6475,   47.2721,   45.6391,   46.3081,   46.9484,   49.1687,   50.1903,
23-SEP-2002 16:57:11.04 ,    4.3172,    5.3592,    5.4277,    5.7021,    6.2614,    6.6678,    8.5719,    9.8268,   11.8928,   13.5588,   14.0696,   14.5919,   14.9905,   15.6711,   16.0314,   16.2377,   16.7226,   16.6163,   16.6015,   17.4864,   18.4035,   18.6380,   18.4354,   19.0322,   19.5902,   20.4310,   20.8115,   20.1119,   20.9719,   21.8091,   21.1586,   22.0862,   21.7539,   21.9120,   22.2214,   22.4768,   23.8683,   24.3509,   24.1701,   24.6241,   26.3229,   28.8977,   33.1715,   35.3423,   36.2141,   39.0843,   40.0622,   41.4854,   44.0995,   45.1535,  999.0000,   44.0825,   47.1413,   49.2823,   52.7231,   52.6210,   49.2825,   47.6936,   48.8306,   47.8521,   25.8236,   47.8078,   49.6292,   51.2243,   52.2530,
23-SEP-2002 16:59:52.50 ,    3.8750,    4.7729,    4.9565,    5.3505,    5.7908,    5.8790,    8.6578,    9.8925,   10.9697,   12.9716,   13.6443,   14.6409,   15.1842,   15.6740,   15.6307,   15.4814,   15.8884,   16.3395,   17.1400,   17.7530,   18.5787,   18.5311,   17.1370,   16.5333,   17.8331,   18.5529,   18.5086,   23.4207,   15.2765,   24.6486,   11.8514,   12.3385,   12.4446,   12.5927,   12.8547,   13.0329,   13.6667,   14.5905,   14.4298,   14.8047,   31.6106,   23.2824,   28.8896,   35.8512,   37.9666,   41.0274,   43.3094,   45.1169,   45.4570,   47.7188,  999.0000,   44.8128,   46.9780,   49.6555,  999.0000,  999.0000,   49.1633,   49.4468,   49.3892,   46.7015,   47.2166,   48.9692,   50.2994,   48.9238,   48.9645,
23-SEP-2002 17:02:33.64 ,    4.9989,    5.1162,    5.3005,    5.9325,    5.7410,    5.6882,    8.0379,    8.7198,    9.0262,   11.6888,   12.9104,   14.2636,   15.0878,   14.9741,   14.6364,   14.9838,   15.3619,   15.9007,   16.7555,   17.7289,   18.7030,   19.3730,   19.4350,    9.9977,   10.7461,   11.0248,   11.0984,   11.0521,   11.1585,   13.4060,   15.3390,   15.7779,   15.8340,   16.0818,   16.3613,   16.2208,   16.8613,   17.5834,   17.1115,   17.3952,   18.3747,   33.4517,   24.8471,   31.8199,   40.8310,   42.3791,   43.3345,   46.1038,   47.5134,   47.2911,   47.7907,   45.6411,  999.0000,   50.0123,   50.7786,   49.4177,   50.8215,   49.2536,   49.0683,   46.4913,   45.6735,   47.0340,   48.1893,   46.5479,   46.0495,
23-SEP-2002 17:05:15.74 ,    5.0635,    4.8882,    4.9029,    4.9644,    4.8633,    5.4744,    7.3988,    7.7444,    9.7877,   11.9723,   13.2910,   14.3888,   15.1752,   14.8249,   14.4360,   14.9640,   15.3007,   15.5348,   15.7348,   16.9442,   18.2007,   18.7849,    9.8903,   10.3627,   10.8158,   11.1799,   11.3958,   11.3770,   23.1360,   17.2716,   20.6440,   21.0883,   21.3216,   22.0168,   22.3617,   22.8494,   23.9919,   24.5314,   23.9112,   24.0196,   28.0861,   28.2729,   30.5012,   33.1863,   35.6445,   39.6171,   41.3151,   46.2538,   47.2762,   46.5460,   44.7109,   45.8212,   48.5558,   50.4623,   48.3668,   50.0082,   48.9974,   50.6201,   50.8026,   49.1464,   48.1540,   48.7525,   48.8753,   48.4010,   46.6562,
23-SEP-2002 17:07:57.04 ,    4.1458,    4.3607,    4.3206,    3.8907,    3.7325,    5.1968,    6.5979,    7.5262,   11.5341,   13.6193,   14.2174,   14.2393,   15.4243,   15.2460,   14.8659,   15.3283,   15.6848,   15.7559,   16.1819,   17.0731,   18.2885,   18.7190,   19.1432,   10.0280,   10.8863,   11.3027,   11.7823,   11.6389,   11.6755,   12.2832,   12.5077,   12.6816,   12.6028,   13.1174,   13.6702,   14.0064,   14.5449,   15.2499,   15.2263,   15.4570,   32.7115,   22.1790,   37.2002,   38.1158,   38.4661,   40.6983,   43.7949,   46.4854,   47.0899,   45.0241,   44.4841,   45.5419,   48.0681,   50.4015,   52.4746,   49.9983,   50.1165,   49.6999,   48.8443,   46.5253,   46.1267,   48.7538,   49.9145,   49.4173,   48.7635,
23-SEP-2002 17:10:38.43 ,    4.3940,    4.6460,    4.7267,    4.8130,    4.7430,    5.7749,    7.3134,    8.7678,   11.4226,   13.3770,   14.3779,   14.2189,   15.4969,   15.2557,   14.6651,   14.9362,   15.3845,   15.6421,   16.3670,   17.1210,   17.8368,   18.7072,   11.5836,   12.3574,   13.2651,   13.4253,   12.8825,   12.8234,   13.0180,   12.6410,   12.5982,   13.1260,   13.0904,   14.2339,   15.1874,   16.4712,   17.5598,   18.0896,   19.6657,   21.0737,   24.1895,   33.2882,   36.9840,   36.6979,   40.2825,   40.9272,   45.3722,   47.2949,   47.4977,   47.4242,   46.5905,   46.7597,   48.7530,   50.6619,   52.9591,   52.0471,   50.8381,   50.8566,   50.2791,   50.7775,   47.0753,   49.8723,   49.6495,   48.5100,   48.4412,
23-SEP-2002 17:13:19.85 ,    5.0727,    5.0634,    4.5205,    5.2048,    5.7376,    6.6023,    8.0411,    9.5082,   11.1087,   12.4425,   13.4973,   14.2331,   15.3330,   15.0490,   14.5168,   15.0929,   15.9591,   16.1164,   16.4721,   17.7025,   19.0076,   20.0044,   16.8944,   17.8508,   18.3630,   18.8385,   18.3174,   17.4500,   16.3700,   16.1611,   16.3411,   15.8655,   16.8577,   18.8056,   20.8395,   24.3879,   26.9014,   27.4860,   27.9006,   28.5501,   29.4548,   31.3362,   32.9266,   35.8415,   37.9180,   40.5144,   45.0412,   46.1882,   47.0618,   47.9837,   46.8697,   48.0372,   49.3552,   50.0606,   51.3914,   51.0440,   50.7372,   50.8662,   50.6538,   47.2204,   46.7903,   49.5137,   49.0818,   48.3305,   47.6063,
23-SEP-2002 17:16:01.78 ,    4.0030,    4.4271,    4.1527,    3.9419,    4.6243,    6.2917,    8.1246,    9.6901,   11.2191,   12.5550,   13.4597,   14.1074,   14.9935,   14.7105,   14.4466,   15.4131,   15.9587,   16.1617,   16.6568,   17.7487,   19.5858,   20.6176,    9.6110,   10.2275,   10.8839,   12.5367,   14.5777,   16.3429,   19.0223,   20.0379,   19.7005,   20.2145,   21.1246,   21.8263,   21.8921,   22.7995,   23.8985,   24.2000,   24.8149,   26.0499,   25.8971,   26.8626,   28.4030,   32.9553,   34.8114,   38.8004,   42.6467,   44.9002,   48.8514,   49.5612,   48.2738,   47.8962,   49.5513,   51.1329,   52.8185,   51.1268,   51.3307,   52.3438,   52.1079,   48.4911,   48.5216,   50.9887,   51.1533,   49.8083,   49.3511,
23-SEP-2002 17:18:42.89 ,  999.0000,  999.0000,  999.0000,  999.0000,  999.0000,  999.0000,  999.0000,  999.0000,  999.0000,  999.0000,  999.0000,   14.2138,   14.8135,   14.3389,   14.8304,   16.0424,   15.8928,   15.9656,   16.5602,   17.1821,   18.6662,   20.2148,   11.1363,   11.3917,   13.0612,   14.3927,   13.8866,   13.2796,   14.0765,   14.6506,   14.2717,   14.4552,   14.8698,   15.2399,   15.8524,   17.1317,   17.7277,   17.6729,   18.1568,   18.3297,   18.5234,   19.0605,   20.6069,   23.1261,   30.3200,   36.0409,   41.4461,   46.6713,   47.4335,   47.9920,   47.3707,   46.9524,   49.2377,   51.8102,   49.5123,   50.9402,   49.8985,   49.9233,   44.2577,   42.8835,   48.7799,   49.8275,   48.1327,   47.5729,   49.6602,
23-SEP-2002 17:21:24.87 ,  999.0000,  999.0000,  999.0000,  999.0000,  999.0000,  999.0000,  999.0000,  999.0000,  999.0000,  999.0000,  999.0000,   14.7065,   15.6192,   15.2298,   15.1960,   15.8907,   16.1124,   16.5016,   16.9201,   17.7777,   18.9716,   20.9936,   17.8063,   20.1629,   20.5637,   20.8577,   21.5953,   22.1136,   23.3134,   24.1635,   23.7445,   23.8515,   24.7907,   25.4041,   26.1036,   27.6845,   28.2399,   29.1495,   29.9967,   30.3076,   29.7858,   32.5206,   33.6220,   21.2162,   38.2257,   41.8880,   22.7440,   45.5136,   46.5696,   47.2922,   48.6231,   49.4033,   49.5006,   52.7673,   50.8693,   51.2770,   50.8894,   49.3550,   48.6920,   48.5741,   37.0190,   37.4915,   46.9996,   35.4452,   36.6768,
23-SEP-2002 17:24:06.37 ,    4.2278,    4.0710,    4.1695,    4.5425,    4.6717,    5.1646,    6.8608,    9.4539,   11.5060,   12.9058,   13.6014,   14.3084,   15.6420,   15.5361,   14.9634,   15.0129,   15.4415,   16.1610,   16.9824,   18.0267,   19.2579,   20.8912,   21.3234,   17.8029,   18.4859,   19.0491,   19.6934,   20.1586,   20.8515,   21.1312,   20.7865,   21.3743,   22.3388,   26.4423,   24.6521,   27.3493,   28.3416,   30.2306,   30.8011,   32.3745,  999.0000,   35.5839,   34.4133,   35.4663,   38.1427,   40.9623,   44.2043,  999.0000,   48.7502,   49.7128,   49.4545,   51.0684,   50.5463,   51.4572,   52.1709,   52.3297,   51.9965,   51.7859,   12.4703,   12.2826,   12.5654,   12.7927,  999.0000,   11.7024,   11.3447,
23-SEP-2002 17:26:47.60 ,    4.4202,    3.6660,    4.1155,    4.6525,    4.8271,    5.4426,    6.6585,    9.3841,   10.8191,   12.5113,   13.8838,   14.1551,   15.3014,   15.2933,   15.1296,   14.9875,   15.3024,   16.1789,   17.0869,   18.5482,   19.7233,   20.5437,   10.5277,    9.6406,   10.2002,    9.9984,   10.1880,   10.5856,   11.2733,   11.4992,   12.2135,   13.1601,   14.6005,   29.1227,   20.9796,   26.0199,   28.9519,   30.7475,   31.1755,   31.1040,   30.4249,   31.3738,   33.5530,   36.0312,   39.2554,   40.9819,   45.0429,   47.5844,   49.3553,   48.5599,   48.4150,   50.3165,   51.9183,   53.5187,   48.7017,   49.2382,   48.9258,   49.6975,   48.4285,   47.8562,   49.4047,   49.5331,   48.3842,   47.6468,   46.6846,
23-SEP-2002 17:29:29.09 ,    3.9329,    3.0061,    3.3955,    3.9443,    4.6112,    5.0888,    6.4201,    8.4729,   10.3896,   12.1112,   13.6455,   14.3154,   15.1102,   15.2443,   15.1323,   15.3818,   15.7143,   16.2555,   17.0536,   18.7208,   20.3924,   21.6420,   23.3905,   12.1108,   12.2504,   12.0886,   12.1465,   12.9471,   13.7755,   14.3063,   17.4234,   20.8276,   24.2821,   26.5085,   27.4610,   28.3027,   29.2221,   30.0851,   30.4772,   31.1148,   30.9666,   32.0730,   33.1462,   35.9856,   37.8229,   40.8748,   45.9355,   46.6023,   48.8267,   48.0497,   48.1840,   50.5969,   51.2551,  999.0000,   51.7223,   52.2388,   51.1135,   52.2074,   50.0765,   48.4069,   48.8830,   48.7376,   48.2739,   47.9017,   47.3675,
23-SEP-2002 17:32:10.97 ,    3.9683,    3.8646,    4.0850,    4.2977,    5.4337,    6.0780,    7.3095,    8.9927,   10.8360,   11.8765,   12.6207,   13.7815,   14.8115,   15.1347,   15.4542,   16.0591,   16.3155,   16.2993,   17.1922,   19.1753,   21.3907,   22.4366,   20.1456,   21.2844,   21.0059,   20.0101,   19.8412,   21.7644,   23.4457,   23.9546,   24.3197,   25.4022,   25.8427,   26.0192,   26.9161,   28.4919,   30.1899,   30.9731,   31.6015,   31.6578,   31.5003,   31.8109,   32.8553,   36.6718,   41.3674,   41.8097,   44.7070,   49.1261,   50.7456,   46.8509,   48.2753,   51.2008,   51.2084,   52.9164,  999.0000,  999.0000,   51.1603,   52.2970,   51.4836,   48.2611,   48.1632,   49.1318,   34.0404,   33.3583,   34.5773,
23-SEP-2002 17:34:52.99 ,   18.3804,  999.0000,    3.6082,    4.2575,    4.8283,    6.3513,    8.1107,    9.8540,   11.1027,   11.4718,   12.8273,   14.7114,   15.2551,   15.4008,   15.4589,   16.0729,   16.4152,   16.6500,   17.4445,   19.4092,   21.2981,   21.7330,   19.9367,   20.8031,   21.4923,   22.0216,   22.0179,   21.8996,   22.2939,   22.4481,   22.9237,   23.9518,   24.6894,   24.6388,   26.3444,   28.1765,   28.9032,   30.1825,   30.1196,   30.2713,   30.9343,   31.8792,   36.6310,   39.5308,   39.8602,   41.1293,   45.6494,   46.2344,   48.1073,   47.1945,   48.3988,   54.5928,   53.1185,   51.3991,   51.2152,   51.0285,   50.3374,   50.6541,   52.5614,  999.0000,  999.0000,  999.0000,    4.2418,    3.5473,    3.8068,
23-SEP-2002 17:37:34.12 ,   20.9860,  999.0000,    3.1963,    4.3045,    4.3354,    6.0457,    7.9705,    9.5677,   11.5208,   11.5063,   13.2547,   14.9955,   15.5539,   15.6791,   15.4818,   16.0626,   17.1818,   17.8009,   18.4789,   20.1447,   21.5106,   22.3490,   20.6643,   21.5990,   22.3774,   21.8480,   21.6945,   22.2873,   22.8548,   22.9780,   23.5508,   24.7504,   25.2279,   25.0913,   26.7406,   28.3811,   28.4135,   29.6793,   29.5057,   29.4839,   29.8554,   18.0368,   35.5821,   38.1726,   39.8703,   39.9636,   44.2186,   44.0928,   49.4528,   48.6778,   52.2065,   50.3517,   52.5553,   52.5901,   51.3965,   51.4329,   50.5937,   50.6661,   48.7133,   49.2892,   47.9989,   47.7430,   46.3696,   45.2402,   46.0201,
23-SEP-2002 17:40:15.80 ,    4.2879,    3.8786,    4.3767,    5.5845,    5.1506,    5.7652,    7.3605,    9.2339,   11.2980,   11.7951,   12.9299,   14.4514,   15.4829,   16.0410,   16.4169,   16.4770,   17.6308,   18.7366,   19.2740,   20.6466,   21.6995,   22.1599,   20.2841,   21.1656,   22.3012,   22.4026,   22.2742,   22.6665,   22.8546,   23.1102,   23.9057,   24.7187,   25.3715,   25.5804,   27.2670,   28.5815,   29.3882,   30.2301,   30.2593,   30.2211,   29.7444,   30.6574,   32.8019,   34.6743,   37.5832,  999.0000,  999.0000,   44.1388,   48.9811,   45.1777,   51.1402,   52.7037,   51.7078,   52.4940,   50.6780,   52.1428,   51.5055,   51.4590,   50.0058,   49.1020,   45.9421,   46.5811,   45.3749,   43.9917,   46.4209,
23-SEP-2002 17:42:57.90 ,    3.7035,    3.6994,    4.8152,    5.3013,    4.0846,    4.0510,    6.2656,    8.1422,   10.0907,   11.5373,   12.5361,   14.2594,   14.8037,   15.1837,   16.0878,   16.9456,   17.9926,   19.2943,   19.9490,   21.0106,   22.4727,   23.3494,   20.9984,   21.6240,   22.6374,   22.3889,   21.7632,   21.7706,   22.6491,   23.5578,   23.9412,   24.3271,   25.2636,   25.8864,   27.2241,   28.5361,   29.1999,   30.0319,   31.0255,   31.1846,   30.2053,   29.8469,   32.5791,   37.6206,   36.3147,   41.6537,   45.0513,   47.8470,   49.0539,   49.8360,   48.7520,   51.5914,   50.6256,   53.4939,   54.7894,   53.3054,   51.1714,   49.2311,   48.8371,   48.1558,   46.7359,   46.8825,   45.6081,   44.0606,   46.9600,
23-SEP-2002 17:45:39.95 ,    3.0976,    3.8911,    5.5552,    5.3199,    5.6407,    6.4121,    7.9269,    9.1687,   10.9256,   11.9353,   12.6771,   13.8441,   14.5561,   14.8191,   15.7272,   17.2054,   18.1510,   18.8173,   20.0783,   21.7063,   22.7703,   23.3344,   21.7871,   22.0834,   22.8405,   22.4683,   22.0052,   22.3470,   23.2108,   23.8705,   23.6135,   23.4962,   24.5932,   25.5184,   27.4638,   29.0869,   29.2399,   29.7711,   31.5639,   31.7236,   30.8467,   30.3120,   32.0096,   33.3310,   35.4443,   37.3286,   39.8292,   45.6959,   48.2391,   49.4827,   50.9993,   49.3513,   49.6248,   51.8713,   52.5572,   51.1603,   49.8747,   51.2457,   49.4974,   49.2460,   48.4355,   47.2655,   46.0722,   45.8039,   47.9857,
23-SEP-2002 17:48:21.34 ,   -8.7704,  999.0000,  999.0000,   13.4000,   10.8915,  999.0000,    9.7841,   11.0142,   13.1431,   13.5382,   14.0836,   14.9939,   15.7665,   16.2346,   16.6039,   17.0243,   17.4502,   18.1471,   19.7203,   21.0767,   21.3392,   21.9768,   21.2194,   21.4320,   22.1401,   22.3783,   22.5201,   22.7577,   22.9742,   23.2476,   23.2180,   23.4009,   25.2223,   25.8656,   26.9005,   28.2214,   28.4808,   29.4097,   31.0154,   31.7733,   31.9193,   31.3790,   32.0637,   33.4501,   35.0225,   37.3756,   44.0350,  999.0000,   47.7610,   48.6007,   47.7781,   50.4380,   50.1363,   49.3411,   51.3105,   49.6009,   49.8467,   50.4489,   49.6295,   50.4262,   48.2966,   46.7545,   44.4845,   44.6314,   47.7543,
23-SEP-2002 17:51:03.03 ,  -10.2494,  999.0000,  999.0000,   15.6261,   11.2713,  999.0000,    9.1895,   10.5260,   11.8448,   12.8788,   13.9494,   14.7003,   15.4330,   15.7617,   15.7686,   15.9332,   17.0324,   18.4151,   19.8256,   21.1930,   21.5134,   22.0240,   21.5913,   21.7572,   22.0400,   22.3523,   22.6104,   22.3999,   21.9693,   22.0102,   22.4051,   23.2684,   24.6835,   25.8907,   26.7095,   28.1390,   29.1759,   29.1261,   29.6542,   30.6176,   30.3073,   30.5747,   31.5585,   34.0444,   35.4894,   36.4691,   39.2361,   43.3511,   45.8651,   47.1822,   47.5576,   47.0765,   47.8181,   49.5983,   50.0921,   49.2706,   49.9806,   48.8157,   49.5445,   49.2108,   46.6106,   47.0999,   45.1485,   49.8030,   45.5163,
23-SEP-2002 17:53:44.24 ,    3.3788,    3.9218,    4.8697,    5.4182,    6.4011,    7.6802,    9.6299,   10.4149,   11.0598,   12.5502,   13.3479,   13.9797,   14.8329,   14.6720,   14.6481,   15.4943,   16.6520,   17.4408,   18.7732,   20.5013,   21.4564,   21.6800,   20.5340,   20.8137,   21.2061,   21.3811,   21.6830,   21.8253,   21.2416,   21.6166,   22.6335,   23.5667,   24.2239,   25.5701,   26.7472,   27.7960,   28.6323,   28.4984,   29.1869,   30.3026,   30.2940,   30.4422,   32.3164,   37.4996,   39.0368,   38.0464,   41.1855,   44.7815,   45.7476,   45.8170,   45.7750,   46.2083,   47.0041,   50.1778,  999.0000,  999.0000,  999.0000,   50.2217,   49.7837,   48.8348,   47.0404,   44.9414,   43.2335,   44.1644,   45.5442,
23-SEP-2002 17:56:26.94 ,    3.4305,    3.3224,    4.2660,    4.1698,  999.0000,    7.8230,    9.2597,   10.4065,   12.1571,   12.8062,   12.5229,   13.3775,   13.9992,   13.8618,   13.9442,   14.8264,   15.6177,   16.1058,   16.7209,   18.4458,   19.6293,   20.0630,   19.1643,   19.6805,   20.6580,   21.1799,   21.2624,   21.2656,   21.0426,   21.4426,   21.8199,   21.8862,   22.9503,   24.8911,   25.8515,   26.7599,   27.8131,   27.3253,   28.7268,   29.5127,   30.4057,   30.6470,   31.5205,   35.7805,   37.0532,   36.2918,   38.4934,   41.8453,   43.9748,   45.2315,   45.7298,   45.7023,   46.8878,   50.0973,  999.0000,   50.0683,   49.2244,   50.9994,   49.5691,   46.9953,   46.0445,   45.6082,   46.2666,   45.0454,   46.6837,
23-SEP-2002 17:59:08.15 ,    4.0998,    3.7393,    3.9536,    3.1933,  999.0000,    4.3667,    5.0214,    6.0950,    8.4607,   10.0454,   10.3796,   11.6296,   12.5850,   13.0496,   13.3277,   14.0485,   14.9776,   15.5747,   16.3530,   18.8167,   19.9519,   20.3884,   18.6923,   20.4889,   21.6679,   21.8192,   22.0198,   21.6846,   21.3240,   22.0997,   22.7156,   23.0225,   23.6179,   25.3110,   26.0893,   26.7858,   27.8180,   27.4083,   28.4380,   29.4449,   31.3723,   30.4050,   31.0348,   33.3049,   35.0886,   36.0795,   38.8633,   40.7726,   42.1704,   42.6939,   47.3858,   46.7247,   49.0799,   51.4142,   50.2651,   49.3977,   47.8092,   47.5782,   45.9067,   45.5773,   45.3619,   44.7290,   44.9236,   46.2963,   45.9510,
23-SEP-2002 18:04:31.92 ,    1.8781,    2.1176,    2.6886,    3.2698,    3.7800,    4.0014,    5.9662,    6.6059,    8.7933,   10.9344,   12.2009,   13.3403,   13.8087,   14.5126,   15.4463,   16.5017,   17.1681,   17.7014,   18.7659,   20.3475,   21.2776,   21.8301,   20.9611,   21.8167,   21.8259,   21.5382,   22.2974,   22.9119,   22.7599,   22.6095,   22.3237,   22.9017,   24.1936,   25.6644,   26.8564,   28.1653,   28.8960,   28.8547,   28.6801,   29.9532,   31.6867,   31.4217,   31.5637,   33.4632,   35.7345,   37.1135,   40.3887,   42.0634,   45.7454,   44.4033,   45.7670,   46.2916,   46.9569,   48.8881,   50.0153,   50.6571,   51.0628,   49.8288,   49.5217,   49.1846,   49.9471,   49.8703,   48.6076,   48.5373,   48.4567,
23-SEP-2002 18:07:13.34 ,    0.6192,    1.4973,    2.6050,    3.9592,    4.3096,    5.4965,    8.7896,   10.4440,   12.5837,   13.1003,   14.0142,   14.8323,   15.1549,   15.5605,   16.4814,   17.1566,   17.4302,   18.0796,   19.2434,   20.6368,   21.6042,   22.2245,   21.8098,   22.2327,   22.4445,   22.5109,   22.6130,   22.6823,   22.7647,   22.8437,   23.6430,   25.0029,   25.1394,   25.7083,   27.1748,   28.0880,   29.2589,   29.0900,   29.7810,   31.1691,   31.6118,   31.4902,   33.0076,   34.5052,   36.2010,   37.4319,   40.4648,   42.1113,   44.6121,   46.7862,   45.2564,   48.3855,   44.1786,   47.9793,   50.3747,   46.4588,   48.6857,   47.5990,   48.5367,   47.4155,   47.1305,   44.6076,   43.9780,   45.1307,   47.3042,
23-SEP-2002 18:09:54.47 ,    2.0724,    2.9024,    3.2883,    3.4028,    3.3333,    4.9662,    7.9600,   10.2971,   12.3872,   13.0356,   13.9897,   14.9679,   15.5136,   15.5583,   16.0702,   16.9196,   17.6915,   18.4115,   19.4172,   20.6901,   21.9649,   22.8996,   22.8945,   22.3772,   23.4356,   23.5757,   23.1722,   22.4804,   22.3006,   23.0279,   23.4779,   24.8112,   25.7807,   26.8632,   28.1348,   27.9053,   28.5532,   28.9141,   29.6145,   30.4583,   31.1436,   30.4718,   31.7049,   33.5339,   38.7961,   41.0007,   39.6006,   42.6104,   45.6227,   47.0261,   46.3034,   47.5254,   47.5141,   48.4158,   48.8053,   50.2527,   46.9696,   48.8515,   47.6792,   46.8854,   46.1306,   46.2084,   45.9063,   46.7751,   48.8295,
23-SEP-2002 18:12:35.53 ,    3.1642,    3.5267,    2.9462,    2.6870,    2.6141,    5.6802,    7.7875,   10.7132,   13.1909,   13.9899,   14.6746,   15.1994,   15.9163,   16.0310,   16.3859,   17.2637,   18.3557,   19.1818,   20.1820,   21.4088,   22.3746,   23.0836,   22.5755,   23.2449,   22.8722,   21.7243,   21.1541,   20.4396,   20.4774,   20.9428,   21.3909,   22.1299,   25.4028,   25.0180,   26.1613,   26.5866,   27.4985,   27.8021,   29.3524,   29.0944,   31.2149,   30.1905,   30.5023,   35.3436,   38.0674,   39.9407,   38.4226,   41.5038,   45.1257,   47.5756,   46.5048,   45.4539,   46.6104,   47.2769,   49.0120,   50.5633,   51.9876,   50.8844,   49.0921,   47.8355,   46.7535,   47.2687,   47.2384,   48.0542,   48.6541,
23-SEP-2002 18:15:16.61 ,    2.8312,    2.4593,    2.4566,    3.4212,    4.1177,    6.2763,    8.4930,   10.9204,   12.7264,   13.5139,   14.1795,   15.0675,   15.6622,   15.7370,   16.6147,   17.3412,   17.7806,   18.3809,   19.7825,   21.3668,   22.0861,   23.0774,   20.8546,   22.0175,   18.5111,   16.2499,   14.3572,   13.3812,   12.2910,   11.5373,   11.6177,   12.5225,   26.3981,   20.3805,   25.2630,   27.0090,   27.1228,   27.4100,   28.6070,   29.0631,   29.8957,   28.8995,   29.1041,   31.8170,   32.9648,   34.5669,   37.2349,   40.2451,   47.1109,   47.3207,   48.0500,   45.9732,   46.8279,   48.3727,   49.0767,   50.9161,   51.7667,   51.4214,   51.3004,   48.4753,   46.8246,   46.5890,   46.2753,   47.7789,   48.1493,
23-SEP-2002 18:17:57.70 ,    2.6676,    1.9967,    2.0082,    2.9340,    4.7302,    5.2908,    7.0667,    9.0374,   10.9982,   12.3410,   13.0362,   14.3044,   14.8855,   15.0167,   15.8648,   16.6728,   17.2818,   18.0152,   19.4520,   20.6853,   21.6138,   22.7551,   22.5773,   22.2792,    6.4070,    7.8591,    9.1479,   10.7540,   11.2809,   12.2365,   12.3643,   13.2155,   32.2307,   18.0341,   22.8574,   27.2778,   26.4092,   28.0137,   28.4439,   29.2316,   11.2303,   29.1073,   29.4253,   28.9580,   33.7298,   29.4030,   29.5882,   41.5716,   32.3699,   45.8756,   34.6297,   33.0169,   46.7966,   47.3647,   51.4723,   51.2912,   51.5765,   49.9114,   49.9896,   48.8490,   46.4215,   44.7272,   44.4502,   46.9448,   47.7783,
23-SEP-2002 18:20:38.91 ,    2.2960,    1.9797,    1.8220,    1.8490,    3.2979,    4.8549,    7.1805,   10.1939,   11.6288,   12.9549,   13.2762,   13.9848,   14.5088,   14.8297,   15.3393,   15.9673,   16.8134,   18.1166,   19.3729,   20.2511,   21.2449,   21.8457,   21.8564,   10.8667,   10.3475,   10.6310,   10.7257,   10.8591,   26.3871,   14.6707,   15.4357,   19.4270,   20.7883,   20.8394,   19.7575,  999.0000,   23.7990,   10.8373,   12.7661,   13.7734,  -29.5552,   14.1306,  999.0000,   18.8181,   16.7740,   15.6665,   11.0308,   19.1842,    7.8777,   17.8507,    7.3068,    3.9250,  999.0000,  999.0000,   54.9603,   52.1648,   51.2605,   52.0317,   51.0986,   48.8132,   47.3195,   45.2435,  999.0000,   47.1360,   48.1911,
23-SEP-2002 18:23:20.02 ,    2.6821,    2.6147,    2.5087,    2.8199,    4.1840,    6.1307,    8.6747,   10.9600,   11.3420,   12.5927,   13.6840,   14.2105,   14.3589,   14.7555,   15.4514,   15.8097,   16.7115,   18.1816,   18.7327,   19.4895,   20.7696,   21.4291,    9.9254,   10.3778,   10.5190,    9.9944,    8.7726,    8.1107,    8.2445,    8.6820,    9.1757,    9.9938,   25.7386,   18.6832,   22.3174,   23.9166,   24.9118,   25.5616,   26.8368,   29.0375,   29.6335,   28.9839,   29.9146,   31.1755,   34.9946,   35.9585,   37.2856,   39.8815,   42.7894,   46.6588,   46.0213,   47.3846,   47.5701,   46.3934,   47.8413,  999.0000,   49.9099,   50.5742,   50.0262,  999.0000,  999.0000,  999.0000,   45.7374,   47.6521,   47.5782,
23-SEP-2002 18:26:01.11 ,    3.8036,    3.3733,    2.9901,    3.2117,    4.6834,    6.1355,    7.6838,    8.9178,    9.8368,   10.9644,   12.7173,   13.4983,   14.1303,   15.0648,   15.8613,   16.2963,   17.6708,   18.7507,   19.3308,   20.3140,   21.2817,   21.7810,    8.8095,    7.2861,    7.6164,    5.4111,    1.5552,   -0.0989,   -0.1120,   -0.0067,    1.8967,    3.9403,   10.2949,   14.0928,   15.9374,   17.8578,   19.8201,   22.7310,   25.3809,   28.7202,   29.7405,   29.4547,   29.2594,   31.4874,   33.9251,   36.5027,   37.6212,   39.1323,   43.1551,   46.1823,   46.8124,   46.8522,   47.3076,   46.6779,   48.4860,   48.2779,   49.3129,   49.9528,   49.2555,   47.7675,   46.1765,   45.1784,   44.7585,   45.8706,   46.5755,
23-SEP-2002 18:28:42.35 ,    4.1035,    4.7070,    3.9252,    3.7364,    4.3400,    5.4723,    6.4792,    9.0242,   11.2553,   12.0756,   12.6183,   13.4664,   14.1152,   15.1347,   16.1091,   16.6144,   17.7867,   18.4446,   19.3508,   20.1846,   20.2225,   19.7016,   19.6581,    1.2088,   -0.1409,   -0.0789,   -0.0268,   -0.1358,   -0.0639,    0.6192,   23.5049,    7.3864,   14.5610,   18.5480,   21.6332,   23.0857,   23.7041,   24.4510,   25.4686,   27.0680,   27.7869,   28.5857,   29.2242,   31.5351,   33.5134,   37.6675,   40.3214,   40.4524,   41.5358,   45.8019,   46.3789,   46.4317,   46.2067,   46.8503,   48.3073,   48.7745,   49.0185,   49.0237,   49.3927,   47.0176,   45.0309,   43.4155,   43.8590,   44.7936,   45.7562,
23-SEP-2002 18:31:24.01 ,    3.9342,    4.3598,    3.4077,    3.4627,    3.9788,    5.2637,    6.3649,    8.7750,   11.2943,   12.5114,   13.0971,   13.6437,   14.3546,   15.0462,   15.3041,   15.5775,   16.5551,   17.6354,   18.1394,   19.0013,   19.4702,   18.7196,   18.4232,   17.0618,    2.4057,    2.3160,    2.2153,    2.2695,    2.4297,    4.2356,    7.4267,   10.8698,   13.8314,   15.0287,   15.5949,   15.5870,   17.2512,   17.5522,   19.7842,   23.1950,   25.9730,   29.1564,   29.5587,   31.2932,   32.7142,   34.2348,   37.1973,   39.4457,   42.7674,   46.0930,   45.7808,   46.6618,   45.3555,   47.2169,   47.9463,   48.5187,   47.6992,   46.9284,   46.2226,   45.9466,   43.7752,   42.6067,   42.5001,   44.6714,   46.0686,
23-SEP-2002 18:34:05.00 ,    2.9034,    2.8840,    3.5384,    2.8027,    3.4543,    5.3095,    6.3969,    7.7855,   10.8913,   12.8870,   13.2713,   14.0277,   14.3138,   14.4415,   14.8250,   15.3719,   16.0886,   17.0120,   17.7407,   18.8449,   19.8520,   20.2997,    8.4746,    9.4011,    9.8487,    9.7518,    9.6004,    9.8359,   10.1561,   10.4444,   12.7821,   15.8185,   20.7656,   23.8619,   24.6218,   24.4818,   25.3518,   26.5741,   28.1423,   29.1175,   28.2936,   28.5317,   28.3569,   29.5107,   31.0253,   33.3103,   40.0201,   38.1927,   40.8204,   44.0584,   46.0475,   45.9521,   45.4555,   47.8808,   48.3753,   48.2463,   48.5530,   48.1464,   46.2057,   45.0586,   44.2832,   41.7514,   20.4886,   22.4457,   23.9013,
23-SEP-2002 18:36:46.03 ,    3.1387,    3.0784,    4.2111,    3.6748,    3.9558,    5.2470,    6.4131,    8.2661,   10.9953,   12.5952,   13.1485,   14.2323,   13.9765,   13.8066,   14.6136,   15.3574,   16.0487,   16.4302,   17.0700,   17.8968,   18.2803,   19.3385,   20.3618,    7.6278,    8.7408,    9.8856,   10.3065,   10.3766,   10.7240,   10.8462,   11.9274,   14.6896,   18.5095,   21.7976,   23.9534,   24.9971,   25.1989,   25.9068,   27.6792,   28.2081,   28.4240,   28.3094,   26.7819,   29.2252,   31.6846,   33.5780,   35.1917,   37.7097,   42.2563,   43.5046,   45.6686,   46.6234,   45.9696,   47.8190,   48.3059,   48.3377,   49.8737,   50.1212,   51.9576,  999.0000,  999.0000,   39.1451,   40.0473,   40.3578,   41.9105,
23-SEP-2002 18:39:27.15 ,    2.8688,    2.7261,    2.6330,    3.5109,    4.1034,    5.1807,    6.8503,    9.4352,   11.1469,   11.7243,   12.7946,   13.6131,   13.7291,   14.0654,   14.6597,   15.3141,   16.1544,   16.4895,   16.5454,   16.8581,   17.5605,   18.6908,   19.3233,   19.3841,    9.8938,    9.7794,    9.8576,   10.3162,   10.8998,   10.8771,   10.8523,   11.5672,   14.1469,   16.5826,   19.9764,   21.8454,   22.6920,   23.8892,   24.4786,   24.9784,   25.0239,   25.0931,   27.0050,   27.9547,   31.8961,   33.2225,   34.8550,   38.0347,   40.0985,   43.6629,   44.6655,   45.4996,   44.6822,   44.3957,   44.6427,   46.0341,   46.8703,   46.7047,   45.1470,   46.0352,   43.4537,   42.3591,   44.1017,   44.1702,   44.7289,
23-SEP-2002 18:42:09.95 ,    1.9276,    1.6709,    1.4648,    2.3615,    3.3827,    3.9685,    5.2257,    8.1886,   10.2537,   10.6685,   11.6199,   12.3551,   12.8228,   13.3363,   13.7375,   14.2485,   14.9685,   15.6824,   16.5685,   17.4931,   18.0722,   18.6873,    6.8057,    7.4421,    9.0922,    9.3411,    9.4953,    9.9838,   10.2898,   10.3516,   11.1459,   12.2912,   12.9849,   14.9288,   16.0022,   16.4662,   16.3844,   16.8484,   18.3189,   18.8057,   18.6123,   18.3225,   30.3443,   23.8908,   35.3573,   32.6372,   34.6072,   38.0165,   40.1498,   42.6689,   44.2274,   45.3409,   45.2321,   43.9404,   43.8711,   45.8769,   46.5676,   45.6360,   45.2183,   45.4986,   44.7032,   42.6456,   44.5569,   45.8423,   46.4078,
23-SEP-2002 18:44:51.75 ,    3.2785,    2.2910,    2.2924,    2.5762,    3.4938,    4.5838,    5.6419,    7.7613,    9.8816,   10.3245,   11.4167,   12.7937,   13.3582,   13.5060,   13.5090,   14.1058,   14.8389,   15.5145,   16.8856,   17.8199,   17.7681,   18.1534,   18.9322,   19.5968,    6.5194,    7.0890,    7.5729,    8.4840,    8.9025,    9.6331,   11.9463,   14.8693,   17.2083,   22.1479,   22.4487,   25.0625,   25.9486,   26.4771,   28.1302,   29.1284,   29.0819,   28.6041,   27.8401,   28.8838,   30.2950,   31.8223,   34.0919,   36.6963,   37.9819,   39.6270,   41.0241,   43.8570,   45.8567,   43.8091,   43.6044,   44.4801,   43.8140,   45.0081,   45.7262,   45.0763,   44.5981,   43.1465,   45.1479,   47.1698,   47.4801,
23-SEP-2002 18:47:32.81 ,    3.5335,    2.3227,    2.2578,    2.3233,    3.4491,    4.6978,    6.2022,    7.7421,   10.1767,   11.4241,   12.0180,   13.3075,   14.1087,   14.4393,   14.6379,   15.0819,   15.3339,   15.9422,   17.1924,   17.7604,   17.7999,   18.1879,    2.0163,    2.0863,    2.3425,    2.3854,    2.3804,    4.3089,    5.6574,    8.5096,   10.5652,   12.8862,   14.3216,   25.1031,   18.9608,   26.6883,   26.0007,   26.3604,   27.9003,   28.7955,   29.4674,   28.1434,   27.8529,   29.6358,   30.6432,   32.2432,   33.4779,   40.0341,   38.3179,   39.5249,   42.5075,   43.4720,   45.0268,   43.4080,   45.2332,   45.3065,   45.8915,   46.1059,   46.4453,   45.6684,   45.1135,   44.3841,   44.4173,   46.7680,   46.3397,
23-SEP-2002 18:50:15.42 ,    4.8591,    4.4886,    4.4246,    4.7739,    5.3145,    6.3570,    8.1253,    9.4223,   10.8191,   12.3765,   12.6604,   12.9967,   13.4577,   14.3160,   14.9702,   15.6193,   15.7700,   16.5115,   17.9515,   18.9897,   19.1960,   19.2133,    8.0114,    6.2452,    7.1229,    7.3440,    8.1572,    9.1242,    9.7451,   10.1194,   23.9635,   17.1782,   20.9589,   22.2129,   24.2176,   25.3763,   25.8718,   26.3962,   27.3687,   27.4527,   28.6924,   29.4352,   29.1511,   29.8028,   31.6866,   32.6791,   38.7564,   40.5535,   42.1524,   44.2123,   42.3857,   44.0982,   43.9759,   43.8985,   45.7360,   48.3364,   47.8802,   46.9265,   46.6257,   46.9584,   45.7020,   46.3720,   44.6877,   46.4632,   46.9804,
23-SEP-2002 18:52:56.95 ,    4.4735,    5.4523,    6.8297,    6.7620,    6.9516,    8.1787,    9.4323,   10.8002,   10.5718,   11.3280,   12.3061,   12.8334,   13.1332,   13.8279,   14.4353,   15.1631,   15.9574,   17.1437,   17.8354,   18.9094,   19.4254,   19.2577,   18.8774,    0.0257,   -0.1149,   -0.1120,    2.0867,    4.5135,    8.8033,    9.6326,   11.1125,   11.5397,   15.0914,   18.5797,   24.6248,   25.7071,   26.3800,   27.2598,   27.9551,   28.0413,   28.7387,   29.4088,   29.6100,   30.7218,   32.3387,   33.1277,   34.5087,   35.8912,   37.0174,   39.5953,   44.9270,   42.4289,   43.7320,   43.8133,   45.3082,   47.1352,   47.4002,   46.8196,   47.1657,   46.9127,   45.2714,   45.2897,   43.9325,   45.4557,   45.9643,
23-SEP-2002 18:55:38.23 ,    3.1731,    3.7492,    4.6082,    4.7011,    5.3983,    6.3035,    8.0998,    9.9323,    9.5611,    9.9898,   10.6812,   11.5417,   12.3621,   13.2395,   13.9009,   14.4469,   15.3488,   16.7336,   16.8341,   17.6021,   18.4002,   18.4723,   18.1939,    0.1298,    0.1314,    0.0917,    0.0104,   -0.0741,   22.8736,    6.9200,   11.3571,   12.1661,   15.6695,   25.6513,   25.0593,   24.9736,   26.5852,   27.8949,   28.6449,   28.6473,   28.3284,   28.5544,   29.3952,   31.5049,   34.2195,   34.1997,   35.2193,   36.5837,   37.5903,   39.8229,   41.4981,   45.6677,   46.2934,   44.9335,   44.7958,   45.5765,   45.6807,   45.6251,   46.2267,   45.5350,   44.8551,   45.1911,   44.9551,   45.7318,   46.3282,
23-SEP-2002 18:58:19.43 ,    3.9635,    3.4853,    3.1833,    3.9634,    5.5669,    6.6307,    7.8715,    9.2829,    9.8274,    9.7387,   10.0871,   11.0961,   11.8666,   12.1078,   12.7469,   13.6655,   14.0692,   15.4993,   16.3019,   16.9506,   17.5114,   17.7664,   17.7947,    2.3899,    2.2397,    2.2402,    2.2435,    2.3141,   22.0957,    7.7646,   11.1079,   12.8533,   14.3305,   16.5859,   20.3438,   22.9266,   26.7019,   28.4106,   28.8987,   28.7729,   29.4996,   30.1191,   29.2719,   30.9178,   32.9384,   33.9009,   36.5718,   38.9255,   40.2217,   42.4488,   45.0230,   44.9776,   46.3175,   47.0535,   45.7395,   46.1962,   48.0183,   47.1198,   46.8252,   46.8584,   45.1374,   44.5335,   44.5292,   44.7862,   45.7138,
23-SEP-2002 19:01:02.31 ,    4.3365,    3.6471,    3.9767,    3.9382,    5.7371,    7.2498,    8.4128,    9.3326,   10.3443,   10.0468,   10.5253,   11.4811,   12.1154,   12.4655,   12.9690,   13.9500,   14.6706,   16.2307,   17.0769,   17.5369,   17.9918,   18.5388,    8.5630,    9.0157,    8.7999,    8.9899,    9.1091,    9.4613,   10.1385,   10.4553,   10.9290,   11.2152,   12.5318,   12.6622,   15.3363,   19.0979,   22.9366,   24.6409,   26.9880,   28.3496,   28.9164,   28.9234,   28.8138,   29.5561,   30.6933,   32.6291,   34.0602,   38.5060,   39.6006,   40.3479,   42.4827,   44.3684,   46.4473,   46.8592,   45.9382,   46.5383,   48.2274,   48.2067,   46.8685,   45.6259,   45.8297,   45.7703,   44.9490,   45.9213,   46.9998,
23-SEP-2002 19:03:43.40 ,    5.1561,    4.6851,    4.7714,    4.4365,    5.7019,    6.9336,    8.3664,    9.7485,   11.0320,   11.2574,   11.2348,   11.8067,   12.7015,   14.1116,   14.7158,   15.1644,   15.7285,   16.8337,   17.2223,   17.5227,   18.2055,   18.6815,   19.1051,    8.8754,    9.2944,    9.5054,    9.8150,   10.2462,   10.3056,   10.9287,   12.7698,   13.0783,   13.2267,   14.4702,   15.1898,   16.0945,   17.7096,   20.1142,   23.5244,   27.8229,   29.0197,   28.5874,   29.2776,   30.0016,   30.8280,   33.6111,   34.0382,   35.7520,   38.2382,   40.0930,   41.5262,   42.7110,   45.6443,   46.0033,   45.6903,   46.3408,   47.2269,   46.8702,   48.1868,   45.9935,   45.8057,   46.1062,   45.0459,   46.1853,   47.4719,
23-SEP-2002 19:06:24.57 ,    4.2369,    4.3359,    4.7855,    5.3089,    6.4682,    7.4021,    8.2408,   10.6450,   11.7694,   12.1276,   12.2046,   12.4836,   13.3562,   14.3264,   15.1766,   16.2878,   16.3482,   16.9018,   17.6588,   17.8262,   18.5175,   18.8922,   19.0491,   19.6248,    9.0339,    9.3558,    9.9489,   10.5172,   10.6708,   13.3310,   17.2501,   19.5711,   21.4286,   23.1379,   24.7895,   25.7643,   26.8686,   27.5441,   28.7327,   29.2579,   29.4044,   28.5189,   30.2255,   31.2623,   33.1514,   33.9561,   35.8048,   36.8169,   39.1978,   40.8869,   42.4414,   44.4897,   44.8904,   46.0888,   46.5423,   46.6071,   48.0835,   46.4580,   45.6181,   45.9301,   45.2595,   45.1678,   44.8698,   45.5623,   47.1629,
23-SEP-2002 19:09:06.07 ,    3.1188,    3.4087,    4.4415,    5.7431,    6.6598,    8.4474,    9.6488,   10.7287,   11.4687,   11.7245,   12.5081,   12.5822,   13.3209,   14.6341,   15.6652,   16.5616,   16.5994,   17.4488,   18.2697,   18.3121,   18.5775,   18.6347,   19.0254,   19.7062,    8.0541,    8.7314,    9.4681,    9.7602,   10.0088,   10.0739,   10.3519,   12.1789,   15.5619,   18.9147,   27.5708,   25.9511,   26.7271,   27.9128,   29.8649,   29.0982,   28.4500,   28.0849,   28.3755,   30.6215,   33.2864,   35.3513,   39.1879,   40.0676,   42.0777,   40.4185,   42.2757,  999.0000,   43.4777,   44.8732,   45.0338,   47.3494,   49.0125,   47.8994,   47.3608,   45.8399,   45.5707,   44.0615,   44.8211,   44.8156,   44.8197,
23-SEP-2002 19:11:46.92 ,   -5.5228,   -9.0464,  999.0000,  999.0000,  999.0000,   15.9000,  999.0000,   12.6481,  999.0000,   11.2295,   11.8939,   12.2077,   12.6625,   14.0750,   14.9434,   15.4618,   16.2539,   16.9738,   17.8129,   18.4848,   18.3292,   18.2792,    7.0842,    7.4498,    7.7811,    6.1930,    7.3975,    8.5939,    9.5111,    9.6660,   23.8312,   13.7586,   16.0690,   19.3793,   20.9142,   22.0820,   23.0324,   24.0621,   24.7461,   24.6966,   24.6271,   24.5474,   25.3809,   26.8953,   32.1609,   33.8505,   35.7738,   36.3553,   39.1451,   40.0974,   42.1668,   43.3858,   42.6073,   43.1015,   42.9844,   44.8382,   47.6517,   48.3964,   46.1875,   46.6097,   45.2465,   45.0150,   44.1838,   44.0284,   43.7744,
23-SEP-2002 19:14:29.36 ,   -6.6314,  -11.0187,  999.0000,  999.0000,  999.0000,   15.8676,  999.0000,   12.8475,  999.0000,   11.5925,   12.1618,   13.1388,   13.2764,   14.0286,   14.5666,   15.4721,   16.8542,   17.4869,   17.8696,   18.3663,   18.6266,   19.4193,   20.0452,   20.1876,   20.8212,    1.9706,    3.6356,    6.3996,    8.7554,    9.7123,    9.8464,   10.5074,   11.3376,   12.3071,   13.0577,   14.3728,   15.1932,   16.4402,   17.0175,   18.2975,   17.7735,   17.5894,   18.0120,   18.7642,   35.1825,   35.7778,   36.3585,   38.3889,   38.2591,   39.9428,   42.4984,   43.8824,   43.6663,   44.3128,   43.4222,   44.0761,   44.9733,   40.8629,   46.1659,   45.9500,   44.9166,   43.2194,   43.8458,   44.4133,   44.9048,
23-SEP-2002 19:17:10.78 ,    3.8569,    3.9383,    3.9673,    4.7350,    5.3557,    7.0557,    8.5796,   10.6191,   11.3316,   12.0537,   12.4665,   13.2827,   13.8968,   14.4255,   14.5095,   15.4643,   16.9785,   17.8143,   17.8712,   17.6689,   17.9038,   18.9227,    6.1152,    6.2418,    6.7735,    6.2675,    6.4264,    7.1769,    7.3460,    7.9433,    8.6655,    9.4806,   10.6588,   12.3395,   15.7230,   22.0321,   25.4746,   27.4333,   27.3649,   27.1924,   27.7237,   28.2319,   28.7449,   29.7235,   30.4747,   32.7317,   34.6536,   36.1279,   36.8893,   40.0191,   41.4015,   43.3610,   44.8710,   44.6214,   44.5559,   45.6278,   45.9749,  999.0000,   46.8686,   45.2478,   44.6981,   44.5014,   44.6505,   43.2055,   44.8224,
23-SEP-2002 19:19:51.88 ,    2.6095,    2.0499,    3.0182,    4.4462,    6.0109,    7.2679,    8.5713,   11.1720,   11.8529,   11.9770,   11.9467,   12.7245,   13.5119,   14.2967,   14.5650,   15.3770,   16.4662,   17.3325,   17.7413,   17.6047,   17.8300,   18.5667,    1.9449,    2.0462,    2.0451,    2.0608,    2.3327,    2.3777,    2.2610,    3.8145,    5.9789,    7.8487,   10.0193,   12.2232,   17.3188,   22.6521,   24.6833,   26.2065,   26.9475,   27.6224,   27.8205,   28.1107,   28.6052,   28.7569,   31.1637,   34.8675,   34.4452,   35.2712,   39.5947,   38.5830,   40.4008,   41.4538,   43.0468,   42.5408,   43.5230,   43.3393,   45.0285,   46.6061,   47.9762,   46.2555,   46.1632,   45.9490,   45.1633,   46.1746,   46.7487,
23-SEP-2002 19:22:33.07 ,    2.1233,    1.7880,    3.7444,    4.9269,    6.6281,    7.3679,    8.6705,   10.3981,   11.3238,   12.1258,   11.9825,   12.5485,   13.0932,   14.2492,   14.9830,   15.6356,   16.4777,   17.4366,   17.7118,   17.7904,   17.9534,   18.7275,    8.3965,    8.6374,    8.7160,    8.8544,    9.6440,    9.7169,    9.5042,    9.5434,    9.9146,   10.1261,   10.4167,   23.7374,   17.4215,   20.2664,   21.1887,   23.2130,   24.8014,   26.2207,   27.5217,   28.0025,   28.0375,   28.8323,   30.8385,   32.1832,   34.5141,   36.0424,   37.3128,   37.8598,   38.1819,   38.1247,   39.2743,   39.5476,   42.4866,   44.6819,   45.0578,   46.1171,   46.2368,   45.1014,   44.5701,   42.8363,   43.0372,   44.5573,   46.6309,
23-SEP-2002 19:25:15.55 ,    2.9194,    4.2527,    5.6961,    6.7004,    7.5891,    8.5610,   10.3708,   10.3305,   10.7349,   11.8313,   12.4040,   12.6979,   13.4793,   14.6897,   15.3674,   15.6461,   16.4723,   17.3473,   17.7552,   17.7759,   17.8371,   18.5706,    7.7153,    7.9486,    8.4097,    8.7112,    9.0868,    9.4699,    9.8389,   10.0098,   10.0213,   10.1591,   11.3046,   12.3110,   12.9188,   13.8440,   14.5112,   18.0528,   19.1944,   22.7700,   26.9774,   28.0619,   27.9367,   26.7189,   27.4315,   28.7244,   33.2047,   28.9875,   29.7198,   31.2834,   31.7889,   32.6108,   35.1113,   36.7393,   37.2816,   39.5666,   44.9339,   41.3452,   44.4254,   40.6603,   42.4251,   26.8803,  999.0000,   43.4024,   44.3568,
23-SEP-2002 19:27:57.27 ,    3.0466,    5.5727,    6.1103,    8.7317,    9.1828,   10.3632,   11.5333,   11.2884,   11.2341,   11.7756,   12.5169,   12.7060,   13.3242,   14.5131,   15.3520,   15.9612,   16.6273,   17.4393,   18.0932,   17.8426,   17.9646,   18.8683,    8.2540,    8.1193,    8.5002,    9.0743,    9.3518,    9.5401,    9.5892,   10.1060,   10.9320,   11.4828,   14.3935,   16.6033,   18.8754,   21.1872,   22.6618,   25.5660,   25.9611,   26.5112,   26.9898,   27.5197,   27.1279,   23.5155,   20.5504,   19.4962,   32.5933,   18.4400,   17.6017,   18.8904,   19.7176,   22.3063,   26.0729,   26.4881,   27.4052,   28.6912,  -10.2289,   32.6393,   -9.1021,   35.6914,   37.9632,   37.9258,   37.9075,   39.6550,   39.6275,
23-SEP-2002 19:30:38.44 ,    4.7630,    6.5381,    6.5108,    9.2712,    9.6610,   10.6019,   12.0640,   12.0493,   11.9019,   11.9042,   12.6020,   12.5567,   12.7212,   13.5023,   14.9072,   15.8323,   16.6681,   17.6632,   18.2130,   17.7866,   17.5980,   18.4465,    8.6322,    9.2203,    9.6144,    9.6656,    9.2634,    9.3482,    9.7623,   10.1798,   10.5655,   12.8895,   15.4994,   17.5236,   20.6163,   21.9075,   23.4724,   24.8129,   25.8340,   26.1563,   26.3310,   26.6306,   26.8325,   27.8656,   28.2503,   29.0108,   30.1999,   32.1677,   33.7321,   35.9974,   37.8863,   38.2414,   40.2957,   40.5005,   41.8451,   44.3009,   45.6607,   46.3963,   45.8484,   45.9355,   46.1351,   45.0651,   39.5892,   46.2293,   47.3839,
23-SEP-2002 19:33:19.77 ,  999.0000,  999.0000,  999.0000,  999.0000,  999.0000,  999.0000,   10.2456,   10.8483,   11.1709,   11.9445,   12.5430,   12.8062,   12.7688,   12.9475,   14.5624,   15.1323,   16.1519,   17.2911,   18.3020,   18.2861,   17.9183,   18.8552,    9.0462,    9.4935,   10.0409,    9.8196,    9.5225,    9.8671,   10.6439,   10.9871,   11.1217,   11.4099,   11.9223,   13.4556,   15.1229,   17.1301,   21.0342,   23.0169,   23.9795,   25.5443,   25.5406,   26.3284,   25.6860,   26.9284,   27.7085,   28.8093,   30.4079,   32.1990,   33.6984,   36.6924,   37.9245,   39.9638,   41.1585,   40.5474,   41.5770,   39.6230,   42.0792,   48.5750,   47.2814,   46.0017,   46.3209,   46.9620,   45.8548,   32.5776,   34.4474,
23-SEP-2002 19:36:00.97 ,  999.0000,  999.0000,  999.0000,  999.0000,  999.0000,  999.0000,    9.1882,    9.8261,   11.1887,   11.7238,   11.8048,   12.1412,   12.6148,   13.0219,   14.1029,   15.0466,   15.6304,   15.9295,   17.2417,   17.6255,   17.6411,   18.5687,    8.4546,    9.1148,    9.6329,    9.6839,    9.8375,   10.1346,   10.6392,   12.2806,   13.0737,   13.1089,   14.6947,   14.7452,   14.6368,   14.9539,   15.4386,   18.0397,   19.5076,   23.2043,   23.7203,   26.6799,   27.0427,   27.7869,   27.5361,   28.7850,   30.4621,   31.7957,   33.4473,   35.3186,   36.1790,   41.6929,   42.8523,   44.4690,   45.3599,   31.4304,   32.8898,   46.0650,   47.1492,   42.8772,  999.0000,  999.0000,   18.8110,    3.9183,    4.8003,
23-SEP-2002 19:38:41.94 ,    4.3825,    4.8086,    6.0795,    7.6154,    7.8229,    8.7403,    9.8453,   10.3896,   11.8949,   11.3575,   11.2265,   11.2444,   12.1124,   13.1922,   14.0820,   15.5209,   16.0078,   16.0191,   16.7572,   16.7500,   17.1570,   18.1697,    9.7542,   10.3707,   10.8609,   11.4790,   12.0061,   12.4763,   12.8922,   22.1691,   19.3064,   22.8654,   22.8961,   22.6019,   23.0377,   24.0559,   25.0508,   25.5468,   25.8027,   26.2458,   26.5789,   26.9335,   27.8575,   28.7298,   28.3383,   28.1859,   28.9771,   32.3818,   34.7843,   36.5925,   37.1803,   41.1483,   39.4897,   40.3245,   43.8078,   45.7879,   47.5882,   47.3149,   47.0383,   45.7095,   46.3327,   44.1302,   45.9370,   46.8114,   46.1908,
23-SEP-2002 19:41:24.80 ,    4.5110,    5.2875,    6.2417,    7.0550,    7.3941,    8.7667,    9.8427,   10.1488,   12.0614,   12.2902,   12.2732,   12.1278,   12.6206,   13.3000,   14.1018,   15.3020,   16.0285,   16.7788,   17.3409,   16.7537,   16.8065,   17.9856,   16.2568,   17.9725,   19.5208,   19.8420,   19.9466,   20.1164,   20.7296,   20.7265,   21.7148,   22.8842,   22.9742,   22.3461,   22.8054,   23.2133,   23.7447,   24.4071,   25.8637,   26.9914,   27.1869,   27.2281,   28.1496,   28.8193,   28.7166,   28.8696,   30.2717,   31.7165,   34.3906,   35.4970,   37.3144,   38.7237,   40.5621,   41.0418,   43.9031,   44.9114,   46.0619,   46.0829,   45.1427,   44.6633,   44.6512,   43.4253,   45.4018,   46.3405,   46.5600,
23-SEP-2002 19:44:07.39 ,    4.1078,    4.7563,    6.0516,    6.6818,    6.8674,    8.0246,    9.1941,    9.6632,   11.7894,   12.2617,   12.4707,   12.5608,   12.9324,   13.5233,   14.3354,   15.1441,   16.1068,   16.7808,   17.0723,   16.7664,   16.9438,   17.8174,   16.3025,   17.2914,   19.0415,   20.0974,   20.4363,   20.7396,   21.0095,   20.6943,   19.6392,   19.2222,   21.8603,   15.4493,   16.7563,   16.9164,   17.8538,   18.4696,   19.4035,   20.8684,   21.3473,   21.0719,   19.4491,   20.7197,   21.8261,   29.7901,   30.9074,   21.5306,   33.7483,   34.4750,   27.5163,   28.5214,   27.6003,   40.1793,   41.7915,   45.0285,   45.3135,   44.9358,   43.8147,   42.6289,   42.8283,   42.4364,   44.4718,   45.0122,   47.5223,
23-SEP-2002 19:46:48.80 ,    3.7582,    4.5098,    5.6245,    6.2995,    7.0727,    7.6250,    8.3649,    9.2863,   10.1030,   10.7774,   11.3527,   11.7027,   12.4571,   13.9262,   14.6706,   15.3485,   16.2028,   16.6609,   16.8014,   16.8572,   17.6662,   18.5278,   19.1183,   19.4438,   17.9550,   18.8715,   19.6565,   20.0758,   20.3279,   19.8916,   16.5092,   12.4620,   22.3151,    2.9039,    2.6466,    2.5779,    4.7062,    5.8170,    7.2478,    8.3352,    8.6942,    8.1884,    5.7074,    6.5272,    6.7849,   31.4521,   35.4397,    0.1080,  999.0000,  999.0000,    4.3413,    3.9918,    1.7661,  999.0000,   43.6944,   48.1495,   46.1986,   45.0465,   43.6047,   43.5141,   44.5927,   44.0964,   44.5903,   45.2006,   48.6705,
23-SEP-2002 19:49:31.78 ,    4.6980,    4.9836,    6.0580,    6.7014,    7.2622,    7.9057,    8.1052,    9.3874,   10.1004,   10.4059,   11.1410,   11.5442,   12.2839,   13.7440,   14.3647,   15.1798,   16.0724,   17.0214,   17.0395,   16.8567,   17.6566,   18.8506,   15.9589,   16.2197,   13.8321,   14.9494,   16.7224,   17.0160,   17.5850,   18.1505,   18.7158,   19.0949,   19.7838,   20.7619,   21.4905,   22.2957,   23.5130,   23.0219,   24.3490,   24.9997,   25.5609,   26.5196,   26.3901,   26.7157,   27.2721,   27.9869,   29.5253,   30.9957,   32.8890,   35.7902,   38.2136,   38.9730,   40.6939,   41.8017,   41.7165,   42.0538,   44.0250,   44.4295,   43.0214,   43.9020,   45.0362,   44.4965,   44.5790,   45.2687,   47.1127,
23-SEP-2002 19:52:13.44 ,    5.8421,    6.1662,    7.2367,    7.8008,    8.0251,    8.1667,    8.9948,   10.4529,   10.5122,   10.8336,   11.5718,   12.0701,   12.5848,   13.2938,   14.1025,   15.0097,   16.0641,   17.1366,   16.8387,   16.5503,   17.2558,   18.0312,   19.0936,   19.0613,   10.4969,   11.4850,   11.6514,   11.6918,   11.8378,   11.8518,   12.0173,   12.3473,   14.7131,   16.1664,   18.3358,   21.5995,   22.4310,   22.8197,   23.3866,   24.2502,   24.9624,   25.5866,   25.2527,   25.9435,   27.1674,   27.4588,   28.8802,   31.0389,   34.6833,   34.9347,   37.3197,   39.2001,   40.3951,   41.3624,   43.2782,   43.6996,   44.7053,   44.7624,   44.4020,   44.8811,   45.6546,   45.1152,   44.5708,   46.2154,   47.1798,
23-SEP-2002 19:54:54.59 ,    4.5944,    4.3377,    5.6363,    6.4202,    6.9140,    7.3772,    9.2756,   10.4358,   10.7543,   11.1385,   12.0042,   12.4885,   12.6668,   13.3109,   14.0986,   15.1633,   15.9181,   16.6182,   16.7657,   16.4758,   17.3692,   17.7898,   18.2130,   18.7216,   15.2957,   16.4474,   17.0963,   17.6764,   17.4779,   17.1909,   17.4350,   18.4008,   19.3976,   20.4224,   21.6304,   22.7423,   23.1577,   23.4831,   23.6818,   24.8505,   25.2206,   25.4712,   25.4520,   26.3604,   27.5533,   27.5510,   29.5175,   31.1932,   32.9187,   33.9133,   35.2821,   37.3397,   41.4634,   39.6665,   41.1778,   42.0107,   44.2226,   44.6978,   45.0635,   45.4332,   46.6438,   46.7240,   46.1472,   48.2957,   49.5174,
23-SEP-2002 19:57:36.42 ,    3.5438,    3.0988,    4.7381,    5.7353,    6.6276,    8.0620,    9.1231,   10.2207,   10.3337,   10.7446,   11.8683,   12.5119,   12.5192,   13.6267,   14.4424,   15.2833,   15.9310,   16.2515,   16.9688,   17.0046,   17.6336,   18.4280,    9.3849,    9.4625,    9.9636,   11.0927,   11.8359,   12.2575,   12.2576,   11.9380,   11.9709,   14.5447,   17.6169,   19.4498,   21.4054,   22.4709,   23.0452,   23.4353,   24.4454,   24.0279,   24.1484,   24.3744,   24.9054,   26.2037,   26.4538,   27.2564,   30.4065,   31.6908,   33.8032,   33.7735,   34.9573,   37.3561,   38.4762,   38.7586,   41.0598,   41.1500,   43.9217,   44.7202,   45.3868,   45.6025,   44.8938,   43.6750,   44.2251,   47.1445,   47.9236,
23-SEP-2002 20:00:17.46 ,    2.4481,    2.6833,    3.5666,    5.7926,    7.0233,    7.8238,    8.9446,    9.9958,    9.9409,   10.4471,   11.2729,   11.9184,   12.2123,   13.4411,   14.0033,   14.4252,   15.3793,   15.9425,   16.7043,   17.4741,   17.8624,   18.2634,   16.7239,   18.0888,   19.0077,   19.5155,   20.1823,   20.6249,   20.8651,   21.0183,   21.4054,   21.7571,   23.3884,   23.7628,   23.2134,   23.1133,   23.4813,   24.5105,   24.6406,   24.0570,   24.5829,   25.5262,   27.1399,   27.5464,   26.1211,   27.0019,   28.2495,   29.8543,   31.8044,   33.9223,   34.3965,   37.2921,   37.6242,   39.5881,   40.3561,   40.6948,   43.6128,   45.0307,   43.8054,   43.5672,   43.4165,   41.9664,   43.4997,   46.0018,   46.0853,
23-SEP-2002 20:02:59.27 ,    1.6499,    2.2968,    3.5400,    5.7110,    6.9463,    7.2127,    8.3033,    9.2667,    9.7463,   10.1233,   10.3112,   10.7530,   11.3821,   13.0621,   13.9139,   14.2463,   15.0151,   15.6453,   16.2789,   17.1108,   17.7694,   18.6189,   19.1111,   17.0714,   17.7551,   18.5194,   19.2628,   19.7242,   20.0067,   20.6852,   21.5341,   21.7718,   22.1184,   22.5753,   23.1516,   23.8250,   24.6514,   24.7406,   24.8717,   24.7432,   25.1725,   26.1849,   26.7434,   27.0092,   27.2469,   27.3037,   27.5886,   29.5333,   31.5988,   34.3796,   34.8671,   35.7047,   36.5303,   36.9352,   40.0717,   41.1265,   43.6255,   45.0116,   43.5158,   42.3387,   43.8794,   45.0729,   45.4367,   47.1702,   47.2023,
23-SEP-2002 20:05:40.90 ,    1.9799,    2.8426,    4.1734,    4.9063,    6.4582,    7.6334,    8.2055,    8.9031,    9.3439,   10.0674,   10.1767,   10.3502,   10.9058,   12.7079,   13.8581,   14.3077,   14.9479,   15.0968,   15.5268,   16.4499,   17.2092,   17.8497,   15.3436,   16.2907,   17.7163,   18.9625,   19.0224,   19.1624,   19.4705,   20.9521,   21.4163,   21.2818,   21.5585,   22.2657,   22.8385,   23.6299,   23.7597,   23.0862,   23.5611,   24.0425,   24.1612,   25.9854,   26.1193,   26.7307,   27.6690,   26.7013,   26.9543,   29.7591,   31.5408,   32.0899,   35.1979,   35.7863,   37.1054,   37.3726,   38.1682,   39.3444,   41.9042,   42.2088,   42.7468,   42.9461,   44.8349,   43.7847,   43.6225,   46.0162,   47.9355,
23-SEP-2002 20:08:21.98 ,    2.7104,    3.2072,    3.8689,    4.0558,    5.6440,    7.3911,    8.0621,    8.4377,    8.9747,   10.0113,   10.4798,   10.3845,   11.0601,   12.7849,   13.3942,   14.3759,   15.0613,   15.2030,   15.6390,   16.3825,   16.8097,   17.0738,   16.1909,   17.0500,   17.9343,   18.9598,   18.6960,   19.0506,   19.9489,   20.5201,   20.6995,   20.9955,   22.0789,   22.9467,   23.6742,   24.3111,   24.6207,   24.0046,   24.2338,   25.0730,   24.9326,   24.9493,   25.3942,   26.3329,   26.2048,   26.7443,   27.5358,   29.4741,   31.9997,   33.6553,   36.6535,   37.5977,   38.1779,   36.9966,   37.8463,   39.9381,   42.5849,   41.5289,   42.2230,   43.4230,   44.0838,   43.8687,   44.7923,   46.5726,   47.6465,
23-SEP-2002 20:11:03.01 ,    3.1303,    3.7825,    5.1391,    5.6929,    6.6039,    7.6013,    8.2431,    8.3852,    9.0258,    9.9967,   10.5312,   10.5527,   11.6014,   12.8597,   13.5510,   14.5751,   15.0607,   15.5296,   16.0202,   16.3299,   16.6468,   17.2360,   16.4782,   16.6568,   18.0704,   19.1394,   19.6122,   19.9809,   20.0185,   20.2602,   20.7456,   21.8072,   22.5646,   22.8074,   23.0574,   23.5135,   24.0715,   24.0106,   24.2233,   24.2123,   24.4516,   25.4960,   26.1409,   27.1534,   27.9607,   27.9124,   29.0523,   29.5239,   31.0123,   32.8043,   35.6236,   37.0628,   37.6812,   37.5449,   39.8474,   42.3898,   44.0615,   43.9571,   43.2559,   44.1050,   43.8083,   43.6472,   44.8387,   46.4077,   47.4258,
23-SEP-2002 20:13:45.54 ,    2.3560,    2.7880,    4.8758,    5.9482,    6.5391,    7.0545,    7.9112,    8.3330,    9.1711,   10.3037,   10.6690,   11.0736,   12.1107,   12.7415,   13.6852,   14.6520,   15.0695,   15.3351,   15.8081,   16.2256,   16.7312,   17.2876,   18.1871,   16.5810,   18.1958,   18.7358,   19.1166,   20.0571,   20.0082,   19.6417,   20.4229,   21.7351,   22.7536,   23.1419,   23.1391,   23.7015,   24.3134,   24.2341,   24.5055,   24.8620,   24.9219,   25.1614,   25.6796,   25.9901,   25.6050,   26.6115,   29.8197,   30.0623,   32.0283,   33.8134,   36.5709,   38.2252,   38.5673,   38.8957,   40.0761,   42.1892,   42.4486,   43.5984,   43.4831,   43.3596,   42.6441,   42.5670,   31.8354,   45.4266,   29.1726,
23-SEP-2002 20:16:27.34 ,    1.4039,    1.8985,    3.7320,    4.3367,    5.1727,    6.2253,    8.1078,    8.9170,    9.5514,   10.4479,   10.7097,   11.3883,   12.2745,   12.9330,   13.4521,   14.4755,   15.1660,   15.3440,   15.6824,   16.0791,   16.5987,   17.5080,   16.3895,   16.7835,   17.7912,   18.3870,   18.4947,   19.0538,   19.7396,   20.2434,   20.5566,   20.5572,   21.0236,   21.1869,   21.2918,   21.0690,   20.7641,   20.6823,   20.6229,   19.6319,   22.8204,   22.5942,   24.7863,   26.2455,   25.8352,   26.6053,   31.7175,   34.0959,   33.2163,   35.7906,   37.0365,   39.1176,   39.1396,   39.3984,   39.9182,   41.6559,   41.8320,   43.4174,   42.7948,   43.5005,   43.3642,   43.5284,   44.2383,   45.8117,   46.1334,
23-SEP-2002 20:19:08.28 ,    2.1220,    2.2414,    3.8723,    4.3156,    5.3758,    6.6790,    7.8282,    8.8080,    9.7863,   10.4009,   10.5594,   10.9508,   12.0577,   13.1322,   14.1609,   15.5584,   16.2496,   16.3587,   16.0854,   16.0357,   16.4050,   17.8690,   16.5955,   17.0136,   18.5883,   19.2774,   19.3443,   19.9559,   20.3798,   20.8003,   21.1082,   20.6938,   21.0439,   20.3391,   19.7013,   18.4575,   17.2933,   15.5784,   15.2976,   15.2834,   24.6222,   19.7314,   26.0979,   26.0203,   26.0000,   25.6467,   26.3916,   29.4543,   31.3165,   32.7606,   33.4743,   36.2799,   38.0740,   38.9827,   39.8354,   42.1085,   43.7327,   44.1509,   43.1947,   43.9687,   43.0065,   42.1477,   43.6966,   45.9170,   47.4812,
23-SEP-2002 20:21:49.73 ,    2.1087,    1.9771,    3.4278,    3.8711,    4.7925,    6.2337,    6.4742,    8.0196,    8.8622,    9.3434,    9.8421,   10.4732,   11.4722,   12.8254,   14.3538,   15.7847,   15.9697,   16.1813,   16.1866,   15.9204,   16.3541,   17.6545,   18.3839,   16.6533,   18.1243,   18.5640,   18.3894,   18.8381,   19.1868,   19.5456,   19.9280,   20.5657,   21.5230,   22.4588,   23.1998,   23.6206,   24.7602,   23.8628,   23.3475,   23.2593,   23.9645,   24.0453,   24.3072,   25.0648,   24.6284,   24.6365,   26.3445,   28.4676,   32.2067,   32.3464,   34.8001,   36.0854,   37.6208,   39.8382,   41.5632,   41.5209,   41.0451,   42.3038,   42.4116,   44.0370,   42.0606,   41.7061,   43.1900,   45.4088,   48.3788,
23-SEP-2002 20:24:30.79 ,    1.2594,    1.3234,    2.0406,    2.4930,    3.0568,    4.6751,    5.5227,    7.2875,    7.9398,    8.4107,    9.3415,   10.3106,   11.6403,   13.3828,   14.2222,   15.4511,   15.4658,   15.4277,   15.5877,   15.6707,   16.2399,   17.0491,   15.9531,   16.4626,   17.1276,   18.2307,   18.3012,   18.6574,   18.7075,   18.9312,   19.2455,   20.2659,   21.4678,   21.5572,   21.8304,   22.8504,   23.6977,   23.5944,   22.9188,   22.4367,   23.0967,   24.1786,   24.9765,   26.0338,   26.1939,   25.0956,   25.9335,   27.9626,   31.9510,   33.1719,   35.4351,   36.7128,   36.7284,   39.1377,   40.0305,   41.4340,   42.1434,   42.7256,   42.3108,   43.4499,   42.9798,   42.8580,   44.2231,   45.3478,   47.4427,
23-SEP-2002 20:27:13.37 ,    2.1573,    2.6079,    3.3323,    4.0081,    4.3737,    5.1243,    6.1472,    7.3842,    8.5709,    9.2136,    9.8944,   10.4356,   11.8885,   13.5790,   13.8185,   14.8073,   15.2831,   15.0357,   15.1129,   15.2753,   15.4925,   15.8870,   15.5218,   16.9446,   17.6574,   17.7598,   17.5986,   18.3859,   18.9560,   18.5870,   18.5380,   19.0749,   20.4351,   21.5193,   22.3021,   23.4387,   23.8301,   23.6303,   23.0247,   22.9709,   23.4467,   24.2713,   24.8799,   26.0209,   26.5232,   25.9438,   26.3001,   27.4919,   30.1373,   32.4815,   34.2755,   37.2377,   38.7631,   39.5052,   39.2646,   40.5982,   50.2305,   42.2074,   40.8611,   42.4251,   42.5457,   43.2642,   44.2190,   45.5088,   46.3681,
23-SEP-2002 20:29:55.39 ,    2.0730,    2.6521,    3.4700,    4.8067,    6.2197,    6.5900,    7.1470,    8.2701,    8.6406,    9.3965,    9.6295,    9.8903,   11.0697,   12.3699,   12.8260,   13.7630,   14.8650,   14.5562,   14.4275,   14.6573,   15.0464,   15.6832,   16.2510,   16.6957,   17.5397,   17.5804,   17.3903,   18.3660,   18.9447,   18.9028,   19.5208,   20.3393,   21.4370,   22.0436,   22.3673,   22.9828,   23.7072,   23.8390,   22.2687,   21.6495,   21.8123,   21.2444,   21.5165,   22.4820,   23.5168,   25.2972,   26.5013,   26.7126,   28.2996,   31.5344,   34.0539,   38.9795,   37.9507,   40.0890,   39.6339,   40.9416,   42.9885,   42.0397,   41.8713,   41.0290,   42.0225,   42.2596,   43.8957,   45.3934,   46.8155,
23-SEP-2002 20:32:36.47 ,    1.1063,    1.1604,    1.7758,    2.8092,    4.3103,    6.1448,    6.6747,    7.7955,    8.2005,    9.1125,    9.3920,    9.8652,   11.2297,   12.6418,   13.1998,   13.9198,   14.8120,   14.6183,   14.4185,   14.9126,   16.3136,   17.6072,   17.7773,   15.0496,   15.1027,   15.0878,   14.7073,   15.0664,   16.0779,   16.3523,   17.1549,   18.2416,   18.7273,   19.2879,   20.3855,   21.4632,   23.0865,   23.7736,   24.1636,   18.6014,   15.7577,   15.0645,   15.4328,   16.4659,   20.1016,   24.3633,   26.6542,   27.7467,   30.0632,   30.9043,   33.0417,   34.6297,   36.3776,   38.3444,   38.5669,   39.0867,   40.1777,   41.5567,   42.1625,   42.9919,   43.2351,   42.4855,   44.9363,   46.1806,   47.3052,
23-SEP-2002 20:35:17.57 ,    1.3789,    1.3211,    2.6480,    3.4553,    3.6970,    5.8036,    7.2759,    8.4847,    9.7535,   11.1502,   11.2901,   11.5068,   12.4996,   13.3198,   13.7930,   14.3928,   14.5928,   14.6676,   14.8709,   15.1030,   16.6394,   18.1781,    9.9560,   10.3770,   10.9347,   11.0351,   11.3306,   11.5960,   11.6054,   11.3076,   11.5054,   12.8620,   13.4877,   15.1593,   17.3509,   19.5101,   22.5362,   23.1505,   21.8386,   21.8336,   22.4610,   22.9277,   24.9456,   25.6061,   25.9792,   25.6959,   26.9015,   28.7572,   30.5781,   32.3997,   35.3868,   37.8820,   40.3856,   40.2481,   41.0086,   41.5515,   43.6976,   41.0827,   44.0410,   19.3022,   42.4114,   42.6412,   43.9861,   45.4129,   46.4739,
23-SEP-2002 20:37:59.98 ,    2.8370,    3.1669,    4.3155,    5.6541,    6.4798,    8.0281,    9.3241,   10.0190,   11.3541,   12.4278,   12.0011,   12.6487,   13.4917,   14.2286,   14.6026,   14.8093,   14.9872,   14.8484,   14.8313,   15.2862,   16.8155,   18.2413,   16.0951,   16.7388,   17.4322,   17.5095,   18.2604,   18.6196,   18.1417,   17.9643,   18.5731,   19.5819,   20.2835,   21.0439,   22.1046,   22.6439,   23.2704,   23.1846,   22.0461,   21.5059,   21.7374,   22.5154,   23.8858,   24.9531,   25.9059,   25.0060,   25.6713,   28.0850,   30.8829,   33.9478,   37.6761,   40.7403,   41.9280,   43.9519,   44.6837,   46.7363,   48.5420,   10.4298,   47.6899,   45.8506,   45.2134,   45.2729,   46.7769,   47.7607,   45.9009,
23-SEP-2002 20:40:42.16 ,    4.2087,    5.0493,    5.5437,    6.6647,    7.4464,    8.7822,   10.1601,    9.8796,   10.2186,   10.7527,   10.4320,   11.6082,   13.0894,   14.1028,   14.8268,   14.9345,   15.5485,   15.7404,   15.1114,   15.8073,   17.2624,   18.3485,   16.7613,   17.2195,   17.8332,   17.8265,   17.8136,   18.1880,   18.5458,   18.8323,   19.1316,   19.3690,   19.5324,   19.7069,   21.1078,   22.3001,   23.2468,   23.2594,   21.8837,   21.7410,   22.6351,   23.8317,   23.8251,   24.8956,   25.1356,   25.6952,   26.4145,   27.7272,   29.2334,   30.9047,   34.2767,   35.3587,   35.4438,   38.4123,   39.0872,   39.5103,   40.0134,   40.6070,   40.1539,   40.5539,   39.9464,   41.5065,   44.2307,   45.4652,   45.2887,
23-SEP-2002 20:43:23.47 ,    4.2519,    5.4139,    6.2171,    6.9730,    7.9515,    8.8883,   10.0146,   10.1282,   10.3295,   10.8902,   11.5036,   11.7029,   12.7861,   14.0783,   14.8191,   15.3198,   15.8498,   16.1894,   15.4696,  999.0000,   11.2763,  999.0000,   16.2008,   17.0392,   17.9018,   17.7298,   17.5112,   18.3473,   19.5495,   19.9334,   20.1458,   20.1535,   20.1133,   20.2493,   21.3841,   22.4675,   24.0966,   23.9907,   21.7136,   21.6389,   22.1051,   22.5664,   23.4846,   24.3933,   24.4721,   24.5268,   25.8591,   27.0715,   30.1126,   31.5715,   33.3990,   31.3043,   32.2595,   38.7083,   40.2327,   40.1831,   39.9775,   39.4295,   39.5452,   40.6705,   39.5583,   41.5742,   44.9503,   45.1921,   45.1086,
23-SEP-2002 20:46:06.07 ,    3.2434,    4.3343,    4.9773,    5.8637,    7.9677,    8.8532,    9.6281,    9.6430,    9.9923,   10.7158,   11.6283,   11.9012,   12.5546,   13.7084,   14.4184,   15.1403,   15.2317,   15.3650,   15.5589,  999.0000,    9.8385,  999.0000,   16.1873,   17.1404,   17.6226,   17.4800,   17.4293,   17.7749,   18.2752,   18.7809,   19.5684,   19.8827,   19.9030,   20.0584,   21.1009,   21.0925,   22.3679,   23.2156,   22.7148,   22.0205,   22.1250,   23.0253,   23.4300,   23.5068,   23.8239,   24.1255,   24.7966,   26.3093,   28.9874,   31.5775,   33.3798,   34.9785,   36.5501,   39.2573,   40.8871,   40.1744,   40.2999,   39.9319,   39.7241,   39.6663,   39.8254,   41.5183,   43.1055,   43.9374,   46.4367,
23-SEP-2002 20:48:47.48 ,    2.6454,    3.2697,    4.7724,    5.7937,    7.4815,    8.0337,    8.7803,    9.0143,    9.5869,   10.0916,   10.5070,   11.1580,   11.9731,   12.6078,   13.4680,   14.1866,   14.1588,   14.4170,   14.5838,   14.7552,   15.5040,   16.2738,   15.1304,   16.1100,   16.3617,   16.7811,   17.0609,   17.4712,   18.1239,   18.1256,   18.5667,   18.8974,   19.2951,   20.1757,   20.5420,   21.1346,   22.5470,   23.2835,   23.1879,   22.2629,   22.1221,   22.9647,   23.2319,   24.1277,   25.5549,   26.0485,   25.6209,   26.5469,   27.6176,   31.2085,   32.7514,   35.1673,   35.3518,   38.2469,   39.9247,   40.3625,   40.9794,   41.5947,   41.1678,   41.1039,   40.6741,   42.5164,   42.5943,   44.5721,   44.8772,
23-SEP-2002 20:51:29.24 ,   -9.0954,  999.0000,  999.0000,   15.5241,   13.0144,   10.2335,  999.0000,    9.1772,    9.4063,    9.9223,   10.4826,   10.5987,   11.5143,   12.6163,   13.1441,   13.5589,   13.9000,   13.9637,   13.8214,   13.6243,   14.2940,   15.4895,   14.5163,   15.7213,   16.0153,   16.0952,   16.3326,   17.1725,   17.6904,   17.8153,   18.3241,   18.7465,   18.9876,   19.7648,   20.2187,   21.1936,   22.5865,   22.9729,   23.2314,   22.0720,   22.3764,   23.3101,   23.7129,   24.7829,   25.5247,   25.5408,   25.4134,   26.6914,   28.8025,   31.3312,   33.2201,   35.4933,   37.4859,   38.4444,   40.6240,   40.5512,   41.0445,   41.9333,   41.8821,   42.1216,   41.3671,   43.5711,   42.6859,   44.3603,   45.8392,
23-SEP-2002 20:54:10.71 ,  -10.8750,  999.0000,  999.0000,   17.6737,   14.0036,   10.6427,  999.0000,    9.3222,    9.4222,   10.1136,   11.6175,   12.5504,   12.8043,   13.4511,   13.8589,   14.2472,   14.5181,   14.4444,   14.3015,   14.0320,   14.4842,   15.6724,   15.1555,   15.6734,   16.5727,   16.8236,   16.7837,   17.7788,   18.4356,   18.3402,   18.7060,   19.8545,   19.5703,   19.7694,   21.1840,   21.8662,   22.2485,   21.8838,   22.1240,   22.3168,   22.6716,   23.8477,   25.3190,   26.0199,   26.0705,   23.8319,   24.2093,   26.2153,   27.9661,   30.8963,   32.2352,   34.7290,   37.9818,   39.4887,   41.1593,   42.7535,   42.6598,   42.4290,   42.6185,   43.2120,   42.4571,   41.7560,   42.6365,   42.5380,   44.4711,
23-SEP-2002 20:56:52.36 ,    4.2240,    5.3296,    6.4510,    6.8138,    6.8377,    7.2811,    9.0675,    9.7696,   10.2160,   10.6921,   12.2967,   14.1546,   14.8034,   15.0554,   14.8275,   15.3018,   15.5107,   15.5475,   15.4492,   15.4270,   15.9380,   16.9357,   17.2544,   16.0881,   16.9373,   17.2985,   17.5005,   17.7865,   18.2033,   19.0212,   19.3897,   19.9729,   19.9667,   20.2571,   21.2586,   21.4407,   21.5224,   21.7434,   22.1191,   22.7157,   22.8679,   23.7982,   25.2749,   25.3000,   25.0321,   24.3113,   24.2007,   25.9193,   28.2232,   30.0875,   32.4486,   34.4198,   34.7624,   36.6592,   39.0710,   41.6702,   42.1181,   41.2205,   41.6165,   34.2485,   34.3749,   40.1258,   42.9875,   43.5085,   45.1341,
23-SEP-2002 20:59:34.44 ,    5.1745,    6.4602,    7.7801,    8.1296,    8.1136,    7.9665,    9.2527,   10.3041,   11.1873,   11.3725,   11.8241,   13.1726,   14.9245,   15.5122,   15.0761,   15.4504,   16.0831,   15.9372,   15.3968,   15.5302,   16.3698,   17.2559,   16.3775,   16.4336,   16.9348,   17.4367,   18.0877,   18.6954,   19.1430,   19.1018,   19.3619,   19.8062,   20.3264,   20.7260,   21.7637,   22.7659,   22.8448,   22.4820,   21.9718,   21.1500,   22.2779,   22.8042,   24.8184,   25.4328,   25.9188,   25.3689,   24.5899,   26.6166,   27.8926,   29.9741,   34.5058,   35.6388,   36.5326,   37.4558,   34.4999,   40.8491,   34.7228,   41.3933,   41.4983,   41.5649,   41.5139,   41.3627,   42.7886,   43.2980,  999.0000,
23-SEP-2002 21:02:15.73 ,    5.2676,    6.3034,    6.8906,    7.5752,    7.7765,    8.5536,    9.0229,    9.9669,   10.8163,   11.3228,   11.6479,   12.7357,   13.8018,   14.7534,   15.1871,   15.4274,   16.4118,   15.9058,   15.1724,   15.1902,   15.8811,   16.6489,   16.3352,   17.3077,   18.0803,   18.3879,   18.9721,   19.5839,   20.3416,   20.4091,   20.1273,   20.0246,   20.4890,   20.8196,   21.3694,   22.9392,   24.0311,   23.3210,   22.4089,   21.7593,   21.5970,   22.7242,   25.3136,   26.0774,   26.0907,   26.3811,   25.9543,   26.3766,   29.5143,   30.9288,   33.0955,   34.4217,   37.7176,   38.1767,   39.9686,   40.7867,   42.2143,   41.9576,   41.6562,   41.8595,   41.6001,   40.4401,   43.0490,   43.3133,   44.0467,
23-SEP-2002 21:04:56.90 ,    3.0637,    4.1053,    4.7982,    5.8880,    6.3264,    7.7566,    9.1426,    9.5036,    9.9855,   10.9171,   11.4123,   11.7497,   12.9273,   14.6978,   15.5079,   15.9996,   16.2907,   15.8424,   15.5630,   15.3381,   15.7927,   16.3488,   15.0139,   16.3890,   17.5256,   17.4152,   17.5284,   18.3717,   19.6628,   19.5554,   19.3197,   19.5635,   20.4253,   20.4284,   21.6371,   22.6513,   23.1264,   23.6257,   23.2685,   22.3897,   22.2104,   24.3715,   26.7240,   26.0791,   25.6606,   26.3469,   25.8858,   26.4995,   28.7171,   30.6283,   32.7636,   33.6408,   36.7295,   38.0878,   39.4354,   39.3388,   40.5655,   41.4739,   41.4724,   41.3268,   40.6334,   39.9402,   42.5225,   42.7917,   43.4735,
23-SEP-2002 21:07:38.31 ,    2.5501,    3.5369,    4.6711,    6.1416,    6.9299,    7.6865,    9.7096,   10.0424,   10.4499,   10.9960,   11.0668,   11.0870,   12.4751,   14.0520,   15.1055,   15.9568,   15.6878,   15.6532,   15.6424,   15.6886,   16.1021,   16.6772,   15.5413,   16.1500,   17.0085,   17.7488,   18.2175,   18.8320,   19.1761,   19.1424,   19.2716,   20.3286,   20.6834,   20.7409,   21.1476,   21.9627,   22.7432,   23.1896,   23.6665,   23.1509,   22.7400,   23.6311,   26.2206,   26.1833,   25.7199,   26.0928,   27.0278,   27.8683,   34.0567,   35.0837,   33.6197,   35.8032,   37.2624,   37.9661,   40.0041,   40.6978,   40.7810,   40.9516,   40.9303,   40.7451,   39.5511,   40.5324,   41.8290,   42.0641,   43.6874,
23-SEP-2002 21:10:19.33 ,    3.1309,    4.2648,    4.8436,    5.9972,    6.9769,    8.3251,    9.4674,    9.9528,   10.8486,   11.3444,   11.3764,   11.3366,   11.8545,   13.1747,   14.9595,   15.1971,   15.2645,   15.0139,   15.0152,   15.4128,   16.0141,   16.8365,   15.3158,   14.4697,   14.6987,   15.6164,   16.4291,   16.8392,   17.2002,   17.3204,   17.6934,   18.4543,   18.6244,   18.6635,   19.2962,   20.1414,   20.1518,   20.2056,   20.6957,   21.2539,   21.4919,   22.1629,   22.9726,   23.4623,   23.2911,   23.9486,   26.7388,   27.2562,   29.2052,   29.9036,   32.9975,   35.0608,   35.9719,   37.1755,   38.5799,   38.9736,   40.3337,   40.3517,   40.4179,   40.5091,   39.5928,   39.9098,   41.6805,   41.4973,   42.1299,
23-SEP-2002 21:13:00.60 ,    3.5688,    4.4583,    5.0912,    5.2477,    5.7618,    7.6544,    8.5547,    9.4787,   10.2252,   10.9140,   11.7257,   12.7985,   13.5109,   14.0917,   15.2130,   15.3726,   15.5687,   15.0453,   14.7927,   15.4435,   16.2729,   17.2755,   18.4230,   11.3474,   11.3976,   12.0564,   12.9328,   13.4192,   13.8392,   13.7382,   13.5914,   13.9999,   14.2890,   14.4308,   14.9217,   15.2530,   15.6857,   16.0813,   16.3186,   16.0299,   15.7572,   16.6829,   17.0535,   17.8239,   17.7985,   17.8190,   28.5985,   30.8905,   29.0756,   30.7539,   33.5562,   34.5016,   35.2670,   38.4607,   37.0981,   37.8276,   40.5409,   40.2660,   39.3589,   39.1967,   37.8775,   39.3140,   39.9839,   39.3273,   40.9580,
23-SEP-2002 21:15:43.29 ,  999.0000,    4.4170,    5.4735,    5.4255,    6.3452,    8.0634,    9.5003,   10.4143,   10.7389,   11.3161,   12.3591,   13.6877,   14.6831,   14.9249,   15.6283,   15.7538,   15.5974,   15.6978,   15.6032,   15.9124,   16.5962,   17.1987,   15.4997,   16.8336,   17.0063,   17.6829,   18.9953,   20.0908,   20.5523,   20.2218,   20.1202,   20.7737,   21.6615,   22.6059,   21.9327,   22.8179,   24.2521,   24.7230,   23.9131,   22.9239,   23.4636,   25.3511,   26.5615,   26.7545,   26.4750,   26.2597,   26.4183,   27.0478,   28.6367,   31.1062,   33.6625,   35.1915,   35.1527,   36.1948,   37.5844,   39.4968,   39.9999,   40.3319,   39.4655,   39.2604,   38.1117,   39.7703,   39.6847,   40.4476,   41.7815,
23-SEP-2002 21:18:24.53 ,  999.0000,    4.6388,    5.7740,    6.4428,    7.7313,    9.1401,   11.0358,   11.1894,   11.5248,   12.0518,   12.6560,   13.1695,   13.8500,   14.7001,   15.4321,   15.3576,   15.2592,   15.7608,   16.2614,   16.2835,   16.7808,   17.2656,   15.8354,   16.7477,   17.5609,   18.1801,   19.0897,   19.4854,   19.9241,   20.2078,   20.1161,   20.6827,   21.6956,   22.4530,   22.3072,   22.5738,   23.3640,   23.7345,   22.7906,   21.6924,   22.7167,   24.1924,   25.3192,   26.4910,   26.4948,   26.4405,   26.8429,   27.0031,   28.2611,   30.7672,   32.6862,   35.4767,   36.5871,   37.3802,   39.3371,   40.1478,   40.6923,   40.8310,   40.5066,   39.8510,   38.4452,   40.3324,   41.0634,   42.0146,   42.5347,
23-SEP-2002 21:21:05.69 ,  999.0000,    5.4411,    5.9371,    6.3339,    6.8916,    8.5619,    9.9712,   10.0064,   10.3462,   11.4581,   12.1551,   12.9345,   13.5996,   14.7240,   15.6850,   15.5562,   15.5357,   15.5653,   16.0069,   16.4513,   16.8772,   17.0707,   16.4691,   17.2549,   17.5959,   18.0032,   18.4278,   18.7069,   19.2615,   19.1004,   19.5426,   20.4153,   21.0845,   21.5470,   22.6082,   23.1943,   23.4001,   22.9233,   23.2770,   23.0856,   22.5132,   23.6494,   24.8954,   25.7885,   25.4237,   25.8276,   26.3250,   27.1696,   28.3746,   29.8432,   30.6788,   32.9400,   35.5221,   37.2566,   38.9711,   39.3948,   39.9049,   39.9795,   39.1554,   39.3469,   36.1330,   39.7128,   40.1047,   41.3282,   42.9429,
23-SEP-2002 21:23:47.29 ,  999.0000,    6.2184,    6.0683,    5.8674,    6.1437,    7.4489,    8.3008,    8.5083,    9.1798,   10.3323,   11.4235,   12.6628,   13.7775,   14.9303,   15.4144,   15.0269,   14.9131,   14.9302,   15.2662,   15.5975,   16.0711,   16.4311,   15.6906,   16.0642,   16.6250,   17.4614,   18.1996,   18.8055,   19.5826,   19.9401,   20.8927,   21.6926,   21.9119,   22.2040,   22.8154,   23.4419,   23.7589,   23.4708,   23.6142,   22.8108,   23.0550,   24.2482,   25.8259,   25.6269,   26.0092,   26.5303,   26.2458,   26.0637,   28.0462,   29.9942,   30.1595,   31.6546,   35.2921,   38.0663,   38.9746,   39.3679,   38.6070,   38.6470,   37.8904,   38.7404,   38.0359,   39.5939,   39.9391,   40.6549,   41.7789,
23-SEP-2002 21:26:28.54 ,    3.8399,    5.5388,    5.7806,    5.6030,    6.3442,    6.7442,    7.5030,    7.8153,    8.7301,    9.6489,   10.3563,   11.0953,   12.1950,   13.3082,   14.0390,   14.1169,   14.2231,   14.4316,   14.5348,   14.4701,   14.8068,   15.5628,   15.8038,   15.7641,   16.6693,   17.2903,   17.6465,   18.5289,   19.4795,   20.2104,   20.9909,   21.8185,   22.2770,   23.0228,   22.8748,   22.9543,   23.2548,   23.0535,   23.1138,   22.7764,   22.9030,   24.4665,   25.2841,   25.7305,   26.5462,   26.2817,   26.1852,   26.5437,   29.6743,   31.4409,   32.8658,   34.0484,   35.2004,   37.8067,   39.2455,   40.6228,   40.8517,   40.5213,   39.9521,   38.3781,   38.8735,   39.7680,   40.0069,   41.1370,   42.9602,
23-SEP-2002 21:29:10.07 ,    3.7207,    4.7491,    4.8148,    5.1068,    6.3398,    6.4867,    7.5057,    7.6230,    8.0154,    9.0845,    9.5973,   10.1603,   11.2075,   12.8042,   13.9677,   14.6656,   14.7878,   14.8758,   14.9603,   15.0427,   15.2298,   15.8266,   16.8127,   15.2368,   16.3138,   16.9178,   17.4300,   18.7708,   20.1067,   20.3590,   20.8718,   21.3022,   21.4091,   21.9656,   22.7098,   23.0216,   23.7774,   24.6685,   23.7833,   23.0792,   24.3178,   25.1110,   26.4514,   25.8691,   26.2204,   26.3372,   26.9072,   27.8565,   28.4414,   31.5129,   33.4189,   35.1022,   36.8352,   38.3566,   39.0093,   40.1071,   40.7391,   40.8503,   40.1256,   38.9767,   39.0678,   40.8638,   41.6741,   41.6277,   43.0440,
23-SEP-2002 21:31:53.05 ,    4.5539,    5.1342,    4.6151,    4.7852,    5.7984,    5.5094,    7.2272,    7.2463,    7.7362,    9.0140,   10.0562,   10.6359,   11.9609,   14.2237,   14.8703,   15.0954,   15.0038,   14.9105,   15.1616,   15.6097,   16.0704,   16.5033,   15.6658,   15.9647,   17.1043,   18.2993,   18.9595,   19.7764,   20.2949,   20.3262,   20.5204,   20.9248,   21.6069,   22.4095,   22.6686,   23.0521,   23.7898,   24.3186,   24.2943,   24.2262,   24.9736,   25.6110,   26.8753,   26.2448,   26.4827,   27.4467,   27.3053,   29.0422,   30.2917,   31.3737,   33.3298,   35.3303,   36.4166,   38.2171,   39.3422,   40.3486,   40.3405,   40.8686,   40.7952,   39.9138,   40.5019,   41.2319,   42.1655,   43.4999,   43.6934,
23-SEP-2002 21:34:34.62 ,    3.0615,    4.8952,    4.5093,    4.3360,    4.4896,    4.8370,    7.4001,    8.0354,    8.5258,    9.3142,   10.2659,   10.8743,   11.6613,   13.4958,   14.5468,   14.7030,   14.3014,   14.2226,   14.6781,   15.3775,   15.7937,   16.0282,   15.7654,   16.1884,   17.0286,   17.8536,   18.5872,   19.7506,   20.2082,   20.2768,   20.1925,   20.3838,   21.1896,   22.7116,   23.7972,   25.0068,   24.3443,   23.4022,   23.4706,   25.2278,   26.1610,   25.9579,   26.6933,   26.9694,   28.0251,   27.9136,   27.2437,   29.8282,   30.3540,   32.7764,   33.4900,   34.0715,   34.8866,   38.9571,   40.5618,   40.7048,   40.6460,   40.3048,   39.8966,   40.7970,   41.4733,   42.7063,   42.7693,   44.0272,   44.7017,
23-SEP-2002 21:37:16.36 ,    1.8208,    3.7925,    3.3969,    3.3722,    3.7267,    5.1608,    7.7681,    8.1490,    7.9424,    9.1595,   10.0149,   11.0879,   11.8616,   13.1593,   14.6152,   15.5747,   14.9843,   14.4949,   14.5411,   15.2889,   15.8270,   16.2386,   16.6159,   16.2513,   16.4815,   17.2194,   17.8416,   19.1145,   20.1111,   20.0070,   19.7676,   19.9332,   20.9559,   22.2451,   23.2560,   23.9634,   23.6676,   23.4513,   24.0534,   24.5976,   24.6197,   26.1607,   26.9878,   26.2767,   25.8458,   27.0422,   24.7468,   26.0052,   27.2499,   30.2351,   32.7581,   34.2245,   35.7309,   37.1323,   39.9389,   42.0561,   42.6912,   40.1014,   39.7789,   41.9690,   42.2298,   43.8992,   43.5389,   44.4574,   46.3295,
23-SEP-2002 21:39:59.21 ,  999.0000,    3.9566,    3.6278,    3.1417,    3.9224,    5.9178,    7.4864,    7.5299,    8.4177,    9.8840,   10.6550,   11.9550,   13.6658,   15.0645,   15.4269,   15.6335,   15.3326,   15.2502,   15.0614,   15.7292,   16.3187,   16.7599,   16.3173,   16.5221,   17.0561,   17.8638,   18.6475,   19.7324,   20.7906,   21.5613,   21.6331,   21.0944,   21.8408,   23.0812,   24.2092,   24.4683,   23.9697,   23.6450,   23.5038,   24.0713,   24.5110,   26.4853,   27.4698,   27.9110,   22.6130,   27.6088,   18.2576,   17.4804,   23.5175,   27.0576,   31.9074,   34.0120,   36.1973,   36.9890,   38.2736,   40.3038,   41.2824,   41.4465,   40.5557,   41.2115,   41.4068,   43.4249,   42.5104,   43.9379,   47.2377,
23-SEP-2002 21:42:41.61 ,  999.0000,    5.1469,    4.9759,    4.5469,    5.7446,    7.1793,    8.0535,    8.8975,   10.7374,   11.0527,   11.4271,   12.5412,   13.7647,   15.4430,   15.9346,   15.0438,   14.8172,   15.0724,   15.2882,   15.8261,   16.3607,   17.0495,   15.8041,   16.1963,   17.3728,   18.4023,   19.2015,   20.5770,   21.5342,   21.9230,   21.9072,   21.1411,   22.5342,   24.1438,   24.5493,   24.4844,   24.5904,   24.1583,   24.0609,   25.1508,   25.9936,   27.2174,   27.9554,   28.5375,   27.8364,   27.7229,   28.4416,   30.8035,   31.3578,   31.7574,   32.8790,   34.3096,   36.4894,   37.7628,   39.5677,   40.1391,   39.4211,   39.6063,   40.2214,   41.0204,   39.9466,   41.9515,   43.3617,   43.9875,   46.2047,
23-SEP-2002 21:45:23.93 ,    3.6537,    5.7264,    6.0008,    5.2135,    6.2739,    7.2817,    7.9297,    8.7960,   10.0119,   10.4551,   10.9728,   11.9693,   13.0159,   14.9548,   15.8599,   15.4654,   15.0157,   15.0305,   15.4770,   16.1350,   16.5560,   17.0454,   16.6402,   16.8465,   17.1480,   17.7549,   19.5284,   21.0752,   21.3188,   21.2950,   21.0076,   21.6191,   22.3268,   23.2590,   24.1976,   24.7423,   24.6738,   24.2907,   24.5725,   24.5538,   25.0340,   24.5655,   24.9877,   24.3294,   24.6642,   28.2651,   26.4036,   28.5256,   30.4784,   32.7981,   34.8392,   37.0653,   37.2404,   37.5610,   40.6997,   41.8284,   41.7582,   42.4547,   41.0007,   37.9002,   40.9950,   41.5698,   43.1128,   44.2715,   45.8269,
23-SEP-2002 21:48:05.56 ,    3.6876,    5.0907,    5.5849,    4.7751,    5.1165,    6.3957,    7.3445,    7.6286,    8.3761,    8.9728,   10.1427,   11.2361,   12.8481,   14.8619,   15.5778,   15.6336,   14.9422,   14.8392,   15.3304,   16.0124,   16.2939,   16.6798,   16.7007,   17.1536,   17.5379,   18.5069,   19.5361,   20.5497,   21.1897,   21.2265,   21.3452,   22.3439,   22.5368,   23.6658,   24.4477,   24.2908,   24.1915,   24.2939,   25.1265,   23.2236,   22.8705,   22.4969,   21.4599,   18.2960,   18.0769,   30.0276,   22.9484,   28.3975,   32.1215,   33.2958,   34.4132,   36.2187,   36.9987,   36.5109,   38.4331,   40.8376,   40.2176,   40.9212,   41.4981,   41.8052,   42.5848,   43.0383,   44.1043,   45.3846,   48.2532,
23-SEP-2002 21:50:48.01 ,    2.5918,    3.8170,    4.7617,    4.3624,    4.7999,    6.1629,    7.9225,    7.8914,    8.7353,    9.2337,   10.4479,   12.0127,   13.6764,   15.2945,   14.9092,   15.1261,   14.4439,   14.0133,   14.5086,   15.4389,   16.0691,   16.7295,   16.6079,   15.4474,   16.2328,   16.9244,   17.7537,   18.4404,   18.7654,   18.9780,   18.7099,   19.0943,   20.0506,   21.7247,   23.6258,   23.5976,   24.2202,   24.2910,   25.1629,   26.1439,   26.6324,   27.3104,   27.9973,   27.3661,   27.5723,   28.4150,   28.8840,   30.1753,   31.5420,   33.9978,   34.5667,   35.5118,   35.8009,   36.1768,   39.1520,   40.8614,   39.8782,   40.8255,   43.1546,   42.0028,   42.6017,   43.0603,   43.7067,   45.2386,   48.1824,
23-SEP-2002 21:53:29.11 ,    1.6058,    3.0809,    4.6043,    4.8759,    5.8031,    6.3049,    7.7644,    7.7383,    9.6066,   10.6813,   11.4640,   13.4039,   15.0705,   16.2862,   16.0518,   15.2848,   14.4446,   14.3226,   14.4845,   15.3775,   16.3590,   17.2914,   18.0935,   11.2134,   11.8019,   12.4589,   13.2830,   14.2915,   14.5973,   14.4450,   14.6684,   15.1642,   15.9202,   18.8039,   21.0937,   21.8613,   23.8403,   23.6265,   24.8008,   26.4606,   27.9743,   27.8837,   27.4225,   28.2084,   28.4678,   27.9035,   29.0711,   31.9725,   31.7781,   34.6778,   36.3689,   36.4819,   36.9892,   38.3956,   40.3400,   39.9165,   41.4672,   42.8004,   42.8003,   42.3307,   42.5417,   43.8225,   45.4333,   46.8040,   48.7463,
23-SEP-2002 21:56:10.27 ,  999.0000,  999.0000,  999.0000,  999.0000,  999.0000,    7.3553,    7.6100,    7.4166,    9.4591,   10.5602,   11.7409,   13.7687,   15.3763,   16.8074,   17.2620,   16.2196,   15.4955,   15.4590,   15.3094,   15.9030,   16.8498,   17.8277,   14.8833,   15.3088,   16.1316,   16.6573,   17.7005,   19.0784,   19.4034,   19.4410,   19.9532,   20.7973,   21.4114,   21.3317,   22.8786,   23.8700,   22.4584,   20.8477,   22.6625,   23.5576,   24.6354,   24.7364,   24.3383,   24.5727,   25.3328,   28.5097,   26.7527,   30.2055,   32.8449,   34.7719,   37.2816,   39.0337,   38.3237,   39.3535,   40.7815,   39.7807,   40.9102,   42.4496,   41.2320,   40.4829,   42.5706,   44.6002,   44.4646,   44.8896,   46.4949,
23-SEP-2002 21:58:51.38 ,  999.0000,  999.0000,  999.0000,  999.0000,  999.0000,    7.5722,    7.5946,    7.8102,    9.6265,   10.8123,   12.0360,   13.6736,   14.9049,   16.8402,   17.0820,   16.3658,   16.7049,   16.5082,   16.4078,   16.9693,   17.8931,   18.5115,    9.2084,    8.4035,   12.3963,   12.6015,   13.4052,   14.6628,   15.1940,   15.4123,   15.5502,   15.9081,   16.3659,   16.8492,   17.5715,   17.8684,   17.0882,   16.7793,   17.2667,   17.9531,   18.6129,   19.1502,   19.2947,   18.2592,   18.3738,   29.9076,   21.9597,   32.9071,   30.7682,   35.7748,   35.3771,   37.5311,   38.2586,   38.8034,   39.7962,   39.7413,   40.9348,   42.4684,   41.8434,   42.4445,   43.1029,   44.6299,   44.9353,   45.4736,   47.0058,
23-SEP-2002 22:01:32.96 ,    3.7354,    4.7723,    5.4483,    5.4847,    6.2639,    7.0657,    7.4977,    7.7099,    8.9398,   10.6866,   12.1878,   14.1561,   16.1944,   16.6372,   16.8367,   16.5319,   16.6962,   16.3889,   16.4881,   17.4972,   18.6366,   19.0627,   19.1300,   20.0869,   16.3817,   17.0048,   18.6476,   20.1086,   20.4296,   21.4869,   23.2507,   23.6441,   24.1212,   24.3963,   25.5138,   26.9841,   26.1553,   25.8348,   26.9062,   27.6866,   29.2016,   29.0121,   28.8596,   26.7662,   27.1357,   27.1192,   27.5564,   27.3568,   28.4657,   32.9395,   34.1079,   35.4046,   37.1005,   38.7555,   39.8794,   40.1740,   40.3017,   40.5573,   41.1769,   42.1476,   43.0516,   43.8690,   44.6811,   46.2160,   47.7790,
23-SEP-2002 22:05:43.66 ,  999.0000,  999.0000,  999.0000,  999.0000,  999.0000,    6.9621,    7.4256,    6.9866,    7.1463,    9.1988,   10.9553,   12.1127,   13.4376,   13.3698,   14.8840,   15.4336,   14.3597,   14.2587,   15.4930,   17.5796,   18.0745,   18.2893,   18.5922,    4.4241,    4.4698,    6.5427,    9.1918,   11.4520,   13.0880,   16.8275,   21.7148,   23.2104,   23.8364,   24.5013,   25.4270,   25.5621,   24.5161,   24.6223,   25.9900,   26.5009,   27.5918,   26.5628,   26.6168,   26.5318,   26.9004,   27.3320,   27.1031,   26.8205,   27.8946,   29.4003,   31.7071,   34.5438,   35.0805,   37.1264,   39.9601,   39.0255,   39.2521,   39.6217,   40.8269,   41.7863,   42.3001,   42.4985,   44.2074,  999.0000,   47.0966,
23-SEP-2002 22:08:25.21 ,  999.0000,  999.0000,  999.0000,  999.0000,  999.0000,    5.9618,    6.3973,    6.4197,    6.7760,    8.3866,   10.0196,   10.9097,   11.6806,   13.2047,   14.7305,   14.7547,   13.9487,   14.2063,   15.6273,   16.8849,   17.0455,   17.3524,   17.2824,   17.9850,   18.1984,   19.2637,   20.3395,   20.9126,   21.7462,   22.6062,   23.2547,   22.5524,   23.1349,   24.5972,   26.1563,   26.0556,   24.6066,   24.4782,   25.4671,   27.1887,   26.4667,   26.4570,   25.8998,   25.9028,   24.2112,   26.7107,   24.0299,   24.1451,   24.9143,   30.2949,   31.9760,   35.1500,   35.8626,   38.3651,   39.7305,   39.0307,   39.5760,   41.0431,   41.2305,   41.7793,   42.1116,   42.4195,   43.6010,   45.0626,   45.0214,
23-SEP-2002 22:11:07.21 ,    3.1684,    4.0166,    4.8265,    4.5808,  999.0000,    5.5104,    6.2742,    6.1470,    6.1064,    7.8618,    9.7742,   10.3984,   12.0659,   14.1154,   14.8810,   14.2165,   14.2204,   14.8805,   15.5199,   15.9621,   16.3666,   16.6435,   16.7807,   17.5309,   18.4456,   19.3049,   20.1199,   20.6178,   21.4782,   21.8377,   22.1455,   21.9038,   22.3685,   23.8280,   24.7467,   25.3530,   24.8950,   24.6905,   25.7547,   26.6796,   26.9964,   26.9700,   24.5216,   22.4430,   19.9882,   28.1752,   17.6023,   17.7523,   17.8247,  999.0000,   36.8065,   34.4538,   36.3523,   37.8755,   39.2548,   39.3335,   39.9836,   40.0598,   40.3627,   41.5747,   42.3048,   41.8247,   43.0691,   45.4041,   45.2721,
23-SEP-2002 22:13:48.66 ,    1.7205,    2.6215,    3.6523,    4.1401,    5.1589,    5.4451,    6.1353,    5.9553,    6.4198,    9.3084,   10.4291,   10.7965,   12.2422,   13.7875,   14.5783,   14.1924,   13.9332,   14.6608,   15.0836,   15.6231,   16.5852,   17.0931,   17.5159,   16.8136,   17.8790,   19.0665,   20.0599,   20.6784,   21.0230,   21.4732,   21.5954,   22.7336,   24.0330,   24.5455,   25.4477,   25.7742,   24.8342,   24.3401,   25.5624,   26.6421,   27.4662,   26.9864,   26.9986,   26.1489,   25.8769,   26.9107,   28.2100,   28.2639,   28.3051,   30.2242,   31.5636,   33.4416,   35.2281,   36.2302,   37.4989,   39.3663,   39.4266,   39.5369,   40.0301,   40.7154,   43.5953,   43.3378,   42.6375,   44.1315,   44.4885,
23-SEP-2002 22:16:30.66 ,    0.8629,    1.6618,    2.7679,    3.1546,    4.9344,    5.4183,    5.9954,    5.8976,    7.0059,    9.0120,    9.9806,   11.2262,   12.0824,   13.1130,   14.3927,   14.1438,   13.7855,   14.4802,   15.0134,   15.1834,   16.1890,   17.5534,   16.8797,   17.4158,   18.0913,   19.1665,   19.8218,   20.5531,   21.2721,   21.8168,   22.1146,   22.3064,   23.5627,   23.8075,   24.7002,   24.9779,   24.5286,   24.2581,   24.9387,   25.8368,   26.6361,   27.4211,   27.6292,   27.0432,   25.9934,   25.7087,   26.0575,   26.8729,   28.0171,   29.4467,   30.7563,   33.6213,   34.7066,   35.2733,   37.0565,   38.5909,   39.7531,   40.3230,   40.6063,   41.0431,   42.8605,   42.8284,   42.1745,   43.9773,   45.3454,
23-SEP-2002 22:19:13.58 ,    3.5082,    2.8108,    3.4012,    3.5700,    5.1747,    5.9289,    6.2990,    5.9676,    6.3423,    7.6886,    9.3628,   11.1522,   12.2881,   13.4161,   14.5362,   13.9126,   13.9264,   14.2882,   14.6953,   14.9079,   15.7750,   17.3606,   16.1573,   16.9807,   17.8848,   18.7723,   19.5493,   20.4866,   21.6626,   21.9667,   22.2807,   22.1867,   22.5090,   22.5485,   23.8384,   24.1728,   24.0964,   24.4272,   24.9066,   25.2498,   26.0118,   27.3010,   27.4300,   27.1433,   26.5432,   26.9964,   26.5017,   27.3774,   29.3482,   31.1228,   31.2841,   33.6915,   34.4636,   34.3396,   36.2574,   36.7829,   38.8930,   40.0650,   39.5900,   40.6463,   41.9753,   42.0213,   42.2859,   43.6955,   45.9992,
23-SEP-2002 22:21:54.99 ,    3.6357,    1.5703,    1.8690,    2.1201,    3.9430,  999.0000,    6.7613,    6.6715,    6.4839,    8.5820,    9.6334,   11.1958,   12.2054,   12.9471,   14.0534,   14.1517,   14.3463,   14.3013,   14.4931,   15.1890,   15.9939,   16.6874,   17.4540,   16.6832,   17.2870,   18.7741,   19.9495,   20.3853,   21.0205,   22.0020,   22.6961,   22.8020,   23.0521,   23.6436,   24.0868,   24.4969,   24.2415,   24.6467,   25.6233,   25.8744,   26.1979,   27.5224,   27.6808,   27.6917,   27.0311,   27.1945,   27.4586,   27.6734,   29.0452,   30.6440,   31.2688,   32.4995,   35.0312,   35.5695,   37.3109,   37.3196,   37.9495,   39.3106,   38.8298,   40.5417,   41.0454,   41.4710,   42.1511,   43.0271,   43.2672,
23-SEP-2002 22:24:36.37 ,    2.7671,    1.6736,    1.8777,    2.0904,    3.0448,  999.0000,    7.0783,    6.7857,    5.9360,    8.4752,    9.1533,   10.1740,   10.7145,   11.7513,   13.6301,   14.3082,   13.9916,   13.7709,   14.6266,   16.0158,   16.6365,   17.1050,   15.4510,   16.6984,   17.3920,   18.3839,   19.4963,   20.1510,   20.9373,   22.0845,   22.6668,   23.1666,   23.2864,   23.4331,   23.3180,   23.8658,   24.4449,   24.1991,   24.8765,   25.4354,   26.3539,   27.2652,   27.2947,   27.5703,   26.9932,   27.0583,   27.8657,   27.2735,   27.7747,   30.1646,   31.3338,   32.9022,   34.7713,   36.1381,   38.4800,   38.6362,   38.7373,   40.4664,   39.0738,   39.6864,   41.1053,   42.0813,   43.1212,   43.8453,   45.7062,
23-SEP-2002 22:27:18.24 ,    3.1389,    2.6915,    2.8262,    2.9021,    3.6038,    4.6297,    5.4363,    5.5758,    6.0388,    7.8213,    8.2031,    8.8689,   10.6685,   11.8790,   13.3366,   13.9446,   13.5271,   13.6142,   14.9138,   16.2796,   16.7071,   17.2654,   17.6969,   16.9208,   17.5009,   18.6473,   19.6409,   19.9695,   20.3954,   21.4895,   21.9791,   22.0146,   22.5200,   23.5173,   24.5611,   24.4086,   24.0991,   24.3685,   24.6047,   24.9849,   26.0063,   26.8018,   26.8239,   26.4784,   26.6624,   27.9467,   27.1705,   27.0599,   27.2359,   28.8773,   31.5757,   33.6163,   35.4906,   36.4475,   37.6070,   38.4562,   38.5553,   38.9060,   38.5241,   39.5748,   41.3870,   42.9572,   43.0105,   43.3295,   45.0726,
23-SEP-2002 22:29:59.53 ,    3.0503,    2.6034,    2.1963,    1.6452,    2.4003,    3.0855,    3.7424,    4.5464,    5.4831,    6.4093,    6.8831,    8.0967,   10.3773,   12.0601,   12.8581,   13.3004,   13.5872,   13.8447,   14.5694,   15.5692,   16.5222,   17.1425,   16.0834,   16.6744,   17.1459,   18.0150,   18.9231,   19.5736,   20.5453,   21.5249,   22.4887,   22.1704,   22.8007,   23.6070,   24.4114,   24.7899,   24.4222,   24.0655,   24.2453,   24.5616,   26.4807,   27.6715,   27.6254,   27.4062,   27.9362,   27.5095,   27.4132,   27.7754,   27.9658,   30.0737,   31.6014,   32.6404,   34.7531,   36.1446,   35.6930,   36.0307,   37.1730,   37.7364,   37.7276,   37.9869,   40.2585,   41.6963,   41.6009,   42.1490,   43.2360,
23-SEP-2002 22:32:40.96 ,    2.4309,    1.9914,    1.1549,   -0.3708,    0.2766,    1.0182,    2.2500,    3.1083,    3.5551,    4.7818,    5.8039,    8.0698,    9.6602,   12.0455,   13.3994,   13.1370,   13.3358,   14.0130,   14.6208,   15.3980,   16.3842,   17.1552,   16.3401,   16.6603,   17.2737,   18.2332,   19.4513,   20.3538,   20.9704,   21.6045,   21.9858,   21.4481,   21.9851,   23.7820,   24.0572,   23.6170,   23.6013,   22.7436,   23.2794,   25.4202,   27.0340,   27.9778,   26.8950,   26.8010,   27.5284,   26.5600,   26.2431,   26.4511,   26.8519,   27.7063,   28.6670,   30.7893,   35.4082,   35.6906,   33.9020,   36.2180,   37.9338,   38.1093,   38.6693,   40.2032,   41.5261,   40.3915,   40.5389,   42.7647,   43.0204,
23-SEP-2002 22:35:23.42 ,    3.1148,    2.9758,    2.2876,    1.3404,    1.4666,    2.4204,    3.9144,    4.3299,    4.6028,    6.0345,    7.6160,    9.3696,   10.7596,   12.4151,   13.9082,   13.2715,   13.0375,   13.9925,   14.6955,   15.2438,   16.0464,   16.9979,   18.6075,   19.8092,   20.2034,   19.3967,   20.3396,   21.2324,   21.7205,   21.6825,   21.9234,   22.3523,   22.0379,   23.1762,   23.8656,   24.0591,   24.2947,   23.2915,   23.4202,   25.0710,   26.7465,   27.2186,   26.5876,   27.2272,   26.9770,   26.8869,   27.3608,   28.4229,   28.4989,   28.8581,   29.3341,   31.8163,   33.1032,   34.1306,   35.1676,   36.1241,   36.5087,   37.2998,   39.2302,   39.7278,   41.0242,   42.0505,   42.2311,   42.9474,   42.9348,
23-SEP-2002 22:38:04.80 ,    2.9740,    2.6710,    3.1942,    2.4756,    2.9837,    3.7990,    4.8834,    4.9825,    5.6946,    7.9276,    9.8927,   10.9375,   11.9215,   13.0721,   14.2261,   13.4615,   13.1296,   13.5433,   14.1436,   15.3098,   16.6032,   17.5040,   16.8403,   17.4232,   18.2227,   18.6638,   19.3857,   20.8442,   21.5640,   22.0754,   22.8792,   23.0906,   22.5609,   23.2106,   23.9739,   23.9313,   24.2826,   24.1414,   24.3094,   25.4007,   26.4780,   27.6501,   27.7828,   28.2671,   28.0224,   27.3209,   27.4516,   28.7453,   27.3922,   27.0592,   26.9710,   28.2281,   29.7072,   30.5538,   33.2260,   36.2901,   35.0643,   38.2310,   40.3018,   40.7433,   41.3579,   41.2908,   42.1093,   43.8102,   43.6718,
23-SEP-2002 22:40:47.80 ,    1.0079,    0.8403,    1.5559,    0.4204,    1.1299,    2.0227,    3.3070,    3.7088,    5.1705,    7.8163,   10.1657,   11.3677,   11.6277,   12.6390,   14.3187,   13.9477,   13.7074,   13.8793,   14.3953,   15.7133,   16.8169,   17.6062,   16.3567,   17.1597,   17.7642,   18.3221,   20.0576,   21.2075,   21.7589,   22.4424,   22.5899,   22.9126,   22.4493,   23.5817,   24.8442,   24.5788,   23.9075,   23.9302,   25.0345,   25.5284,   26.6563,   27.4795,   26.9758,   27.7174,   27.9774,   27.4126,   24.9031,   30.0039,   23.4535,   21.7108,   22.2673,   22.0431,   21.9950,   20.5656,   38.3094,   39.7165,   29.1071,   41.6961,   41.4384,   40.5993,   41.3633,   41.1847,   42.1579,   44.6962,   44.9428,
23-SEP-2002 22:45:55.74 ,    0.4752,    1.2378,    0.8283,    0.5884,    1.5251,    2.1625,    2.9015,    3.8387,    5.8775,    7.4032,    8.8276,   10.0906,   10.4540,   11.6446,   13.3299,   13.8309,   13.9811,   14.1023,   14.6798,   15.2660,   15.9492,   16.7615,   16.0143,   17.1301,   18.1623,   18.9042,   20.1453,   20.8434,   21.4427,   22.3292,   22.7528,   22.5152,   22.4537,   23.1046,   23.7872,   24.3972,   23.9169,   24.2633,   26.4719,   26.2391,   27.4850,   27.5664,   27.9881,   28.2550,   27.2406,   26.9668,   26.9146,   27.2984,   27.1284,   28.7549,   29.7989,   31.0138,   31.2762,   32.9586,   34.5894,   36.3762,   36.4435,   37.8506,   38.4710,   40.8098,   40.5999,   41.3171,   42.5811,   45.1698,   45.9153,
23-SEP-2002 22:48:37.16 ,    1.1790,    1.6202,    1.6701,    1.3834,    2.3029,    3.2983,    4.0262,    4.3483,    6.2755,    7.4221,    8.5584,    9.8432,   10.4675,   11.5860,   13.2739,   13.7823,   13.8191,   13.8561,   14.4911,   15.1310,   15.7214,   16.7653,   15.4287,   15.7849,   16.1963,   16.9933,   19.0488,   20.7300,   21.4276,   22.0985,   22.5207,   22.3508,   22.3679,   22.6106,   23.1083,   24.1140,   24.3949,   24.5765,   25.5594,   26.8602,   27.8001,   27.3268,   25.7438,   26.0606,   26.7086,   27.0126,   26.9030,   27.5125,   27.3811,   29.9362,   30.5358,   32.1700,   32.2091,   34.8496,   37.2045,   36.5743,   36.3671,   36.6740,   37.7988,   40.6135,   41.3238,   42.0624,   43.5903,   43.9609,   44.0204,
23-SEP-2002 22:51:21.74 ,    1.8484,    2.6156,    3.0263,    2.9898,    3.7297,    4.7645,    5.7092,    5.6098,    6.4523,    7.6348,    8.9407,   10.0144,   10.9416,   12.2842,   13.3467,   13.4570,   13.4172,   13.9629,   14.7368,   15.4728,   15.9730,   17.0777,   16.1517,   16.6495,   17.4033,   18.9180,   20.4014,   21.1706,   21.7058,   22.5050,   22.7690,   22.1002,   22.4300,   23.1757,   24.2300,   24.7198,   24.3174,   24.6709,   25.7200,   27.0882,   26.5147,   26.5679,   24.5367,   24.3060,   24.2565,   23.9625,   22.8631,   27.3498,   26.0847,   28.6563,   29.2836,   30.9736,   32.2674,   33.9935,   35.9694,   36.5514,   36.4285,   36.0655,   37.8492,   38.1891,   39.5414,   40.3913,   43.1226,   43.3319,   43.4841,
23-SEP-2002 22:54:03.00 ,    2.5261,    3.2391,    3.4223,    3.4912,    3.9666,    4.7172,    5.0675,    4.8538,    5.4892,    6.3921,    7.4545,    9.3808,   10.6703,   12.4542,   13.8667,   13.9146,   13.4721,   13.9004,   14.5215,   15.1114,   15.9284,   17.1209,   16.6570,   17.7429,   18.7689,   20.2980,   21.3752,   21.9595,   22.4154,   22.8119,   22.6899,   21.6054,   22.0737,   23.2633,   24.0003,   24.6481,   24.3450,   24.2162,   25.0787,   26.8385,   24.6427,   24.4464,   21.3440,   19.1240,   17.4600,   16.8966,   15.7343,   28.5694,   20.3297,   31.3084,   29.0467,   31.3050,   32.8407,   34.6761,   35.9223,   36.0892,   35.2971,   34.9911,   36.5265,   37.5387,   39.1340,   40.4606,   41.7548,   43.0694,   43.3073,
23-SEP-2002 22:56:44.41 ,    2.1850,    2.9460,    2.8218,    2.5860,    3.3637,    4.5833,    5.5807,    5.4800,    5.6735,    6.0662,    7.3806,    8.9895,    9.9462,   11.5317,   13.3561,   13.6228,   13.3614,   13.5684,   13.9260,   14.8045,   15.5920,   16.9112,   18.8227,   17.5333,   18.2675,   20.4648,   21.8089,   21.8005,   22.0287,   22.5958,   22.3549,   22.0018,   22.2531,   22.8550,   23.4897,   24.8245,   26.0311,   26.4338,   26.3339,   26.8237,   26.6892,   27.8816,   26.9590,   26.6832,   26.6948,   26.4585,   25.9452,   26.5632,   26.5344,   29.0955,   29.3853,   33.5938,   33.5118,   35.0857,   36.2445,   36.9503,   36.0089,   35.0656,   36.8323,   38.2180,   39.9852,   40.8560,   41.1582,   41.8681,   43.3633,
23-SEP-2002 22:59:25.88 ,    1.6436,    2.1165,    2.3432,    2.2368,    3.7736,    4.8489,    5.9238,    5.6427,    5.6517,    5.9727,    7.5345,    8.1343,    8.7160,   10.5164,   12.9931,   12.9916,   12.9070,   13.4691,   13.6616,   14.3679,   15.2055,   16.7741,   15.7231,   16.3830,   17.6498,   19.9117,   21.2993,   21.4043,   21.4015,   21.9037,   22.8482,   22.4257,   22.2940,   23.0288,   23.7840,   24.7209,   24.2390,   24.4596,   25.4475,   26.8070,   25.9037,   25.3214,   23.8300,   22.6101,   22.6200,   23.1126,   23.2302,   24.2481,   25.2249,   26.2643,   29.0608,   31.2284,   33.6615,   33.8054,   35.5702,   35.5019,   34.7910,   34.2529,   35.3095,   37.8610,   39.7324,   41.0320,   40.7722,   42.2416,   42.3861,
23-SEP-2002 23:02:07.99 ,    2.0709,    2.5809,    2.9553,    2.7555,    4.2432,    4.8057,    4.5255,    4.2356,    4.7180,    5.3867,    6.2758,    7.5596,    8.7224,   10.5290,   12.8457,   12.6862,   12.7194,   13.4849,   13.7308,   14.6934,   16.2815,   17.1377,   18.0995,   16.7936,   18.3351,   19.7929,   19.9195,   20.8600,   21.7793,   22.2376,   22.8185,   22.3787,   22.0333,   22.3218,   22.9289,   24.0155,   24.2062,   23.7206,   24.8319,   25.8260,   22.9899,   21.1925,   17.1696,   14.9602,   13.5717,   13.1806,   12.8960,   15.9630,   29.2987,   29.8496,   24.4729,   30.2032,   32.6006,   32.5296,   34.8594,   35.6123,   34.1122,   34.3466,   35.3866,   37.6512,   38.4887,   40.8906,   41.4168,   42.0099,   41.9080,
23-SEP-2002 23:04:49.49 ,  999.0000,  999.0000,  999.0000,  999.0000,    4.5409,    4.7683,    3.9004,    3.8404,    4.3671,    5.1990,    6.1439,    7.2347,    9.0252,   10.7185,   12.2565,   12.6310,   12.5374,   12.7837,   13.1344,   14.4145,   16.4491,   16.8378,   15.0157,   16.0637,   17.6801,   19.2149,   19.8266,   20.6567,   21.1909,   21.4282,   22.4931,   22.3613,   22.2940,   22.8056,   23.5431,   24.3174,   23.3490,   22.3727,   22.3584,   23.5619,   23.8630,   24.2398,   23.5446,   20.2833,   17.7418,   14.4919,   13.1185,   16.1813,   16.3742,   17.7124,   17.9631,   34.1391,   33.2653,   29.4777,   34.3042,   35.6955,   34.1607,   33.5556,   35.3135,   37.4903,   39.2016,   39.8688,   41.9470,   41.7749,   42.0555,
23-SEP-2002 23:07:31.75 ,  999.0000,  999.0000,  999.0000,  999.0000,    4.8672,    5.0312,    4.0155,    3.7299,    4.3202,    5.4459,    6.9876,    7.9228,    9.9282,   11.7986,   12.3488,   12.6908,   12.1066,   12.0550,   12.3028,   13.2164,   14.7441,   15.9278,   14.1469,   15.7734,   17.3843,   18.4147,   19.6721,   20.8665,   21.1773,   21.1137,   21.7069,   22.3920,   21.6224,   22.4212,   23.5587,   24.2325,   22.0154,   19.2733,   18.0958,   16.9595,   16.1194,   15.8605,   16.7306,   15.6058,   16.9919,   27.5316,   28.4685,   21.9989,   22.3725,   23.6009,   24.4648,   27.5629,   29.9670,   32.7937,   34.0849,   33.9546,   34.6257,   33.4364,   34.2396,   35.6554,   38.3274,   39.7963,   40.4955,   40.0320,   42.1317,
23-SEP-2002 23:10:13.19 ,    3.0724,    3.6947,    3.9744,    3.3819,    5.2156,    5.3855,    4.0780,    4.0630,    4.6988,    5.4655,    6.8555,    8.0573,    9.6654,   11.6609,   12.3291,   12.3985,   11.9558,   12.3173,   12.5145,   13.0090,   13.8937,   15.6934,   14.2328,   15.2520,   17.5207,   18.1335,   18.6280,   19.7795,   20.1241,   20.5984,   21.8763,   22.0396,   21.6591,   22.1372,   22.8481,   23.7881,   24.2260,   23.3123,   24.4017,   25.6171,   26.0431,   25.8988,   24.5197,   21.5136,   17.8980,   13.8301,   12.2822,   12.1435,   12.6629,   13.3155,   14.4318,   32.9278,   25.9145,   31.9729,   34.2932,   33.8976,   34.8576,   32.3285,   33.4668,   35.4968,   36.9299,   38.4531,   39.8533,   39.5340,   41.7375,
23-SEP-2002 23:12:54.71 ,    6.4841,    7.0887,    6.9281,    6.6867,    8.0948,    7.8689,    6.8361,    7.2091,    7.4452,    7.9789,    8.9965,    9.2112,    9.8481,   10.9500,   12.1130,   12.2237,   11.5957,   12.0236,   12.7755,   13.3008,   13.8667,   15.3681,   16.8116,   14.5038,   16.5861,   17.6145,   18.7235,   19.8211,   19.7956,   20.2508,   21.7167,   21.5227,   20.6782,   20.9061,   21.7667,   22.5794,   22.9655,   22.9370,   24.0448,   25.0519,   25.7686,   25.6851,   25.8533,   26.1660,   26.3137,   17.2910,   16.1555,   15.6772,   16.1135,   17.4182,   18.0310,   18.8092,   32.5503,   26.5891,   34.6071,   33.0347,   33.2417,   32.4075,   34.0991,   35.7201,   37.5604,   39.1638,   42.2144,   40.2941,   40.7599,
23-SEP-2002 23:15:36.43 ,    7.2253,    7.7477,    7.6748,    8.4031,    8.6698,    8.0051,    7.6427,    7.7869,    7.9005,    8.4704,    9.6866,    9.8956,   10.2018,   10.7786,   12.3168,   12.1545,   11.7479,   12.2975,   12.8676,   13.4468,   14.6590,   16.1048,   14.8563,   15.9985,   16.8219,   17.6528,   18.6031,   19.6078,   20.0270,   20.4715,   21.4226,   21.2155,   21.3010,   21.9318,   22.5413,   22.5519,   22.7157,   22.4622,   23.5381,   25.1322,   25.5397,   25.7593,   26.4154,   24.9826,   25.4907,   26.7652,   25.4873,   24.7301,   26.4426,   28.3633,   30.2291,   30.5355,   31.3601,   33.3245,   34.6313,   33.4980,   33.3233,   33.0737,   33.6320,   36.2470,   39.0138,   40.2141,   40.7100,   41.8279,   42.0730,
23-SEP-2002 23:18:18.61 ,    3.2141,    3.7344,    3.7860,    4.5491,    4.9882,    4.5059,    4.5778,    4.2074,    4.6989,    5.5214,    6.9350,    7.4877,    8.3401,    9.7342,   11.9684,   12.0949,   11.9619,   12.8223,   12.9603,   13.3915,   14.7425,   16.4368,   15.8138,   17.0307,   17.9502,   19.1130,   19.4958,   19.9984,   20.6911,   21.0606,   21.8993,   21.5184,   21.0455,   21.2457,   21.9294,   22.5006,   23.1576,   23.4491,   24.3851,   25.9757,   26.3420,   26.0109,   26.2778,   25.6447,   25.2115,   25.8467,   25.6656,   25.3827,   26.2305,   27.3222,   29.7813,   31.0720,   31.9980,   32.4749,   33.1600,   33.6557,   33.3515,   31.7559,   31.7282,   33.7171,   35.7115,   37.7687,   39.7520,   39.8954,   40.5099,
23-SEP-2002 23:21:00.07 ,  999.0000,  999.0000,  999.0000,  999.0000,    4.2381,    4.4190,    4.3514,    3.5313,    4.2294,    5.2216,    6.0869,    7.4079,    8.9033,   10.1312,   11.1639,   11.6432,   11.1898,   11.7594,   12.5525,   13.0610,   14.0370,   15.4428,   14.3694,   14.8783,   16.5809,   19.1084,   19.4605,   19.7410,   20.6888,   21.1923,   21.9357,   21.8602,   21.5420,   21.0110,   21.3213,   22.1569,   23.1412,   24.4232,   25.1138,   25.6677,   26.0810,   25.8957,   26.8194,   27.3328,   25.8389,   26.0593,   25.5043,   25.5632,   26.2554,   27.9862,   29.2035,   30.3036,   32.3314,   34.1081,   33.1871,   32.4468,   33.4528,   33.8009,   34.1462,   35.8179,   36.9574,   39.1496,   41.1002,   41.7792,   42.8982,
23-SEP-2002 23:23:42.34 ,  999.0000,  999.0000,  999.0000,  999.0000,    5.5202,    5.3830,    4.1736,    3.8471,    4.3679,    5.1266,    6.0927,    8.0318,   10.0181,   11.2431,   11.0834,   10.9157,   11.0865,   11.9332,   12.7574,   13.4775,   14.6403,   15.5869,   14.2594,   15.7157,   17.1558,   18.3943,   19.0406,   19.4303,   20.2779,   21.3576,   22.4239,   22.8347,   21.9291,   21.3935,   21.8172,   22.3931,   23.6710,   23.3350,   24.3485,   25.5294,   26.3583,   26.7843,   27.4705,   26.4708,   26.0058,   26.2063,   25.0152,   25.2687,   27.7864,   28.5733,   29.6446,   30.5011,   31.8456,   33.6643,   32.2282,   32.3022,   33.2913,   33.9362,   35.0047,   36.5541,   38.0318,   40.0874,   42.1915,   42.5941,   45.3479,
23-SEP-2002 23:26:23.87 ,    2.7450,    3.3742,    3.6975,    4.3800,    6.0109,    5.2354,    4.1662,    4.3424,    4.6465,    5.1697,    6.2278,    7.8106,    9.5498,   10.8887,   11.4306,   11.0729,   11.3668,   12.2486,   13.0571,   13.8610,   14.8843,   15.9242,   17.3567,   16.0635,   17.4743,   18.2969,   18.9977,   19.2417,   19.8956,   20.7591,   21.5045,   21.6544,   21.6893,   21.7053,   21.9820,   22.0650,   22.1428,   22.5797,   24.5426,   25.7950,   26.5327,   26.2204,   26.3301,   25.7035,   26.6224,   27.5025,   26.0526,   26.3746,   27.8139,   28.3446,   29.3466,   30.4969,   31.9499,   33.6555,   31.8621,   32.5370,   33.5783,   33.0683,   33.5304,   34.3923,   37.4556,   39.9963,   41.6081,   42.0359,   42.9485,
23-SEP-2002 23:29:06.85 ,    3.6461,    4.5749,    4.9821,    5.2397,    5.9167,    4.8517,    3.5916,    3.9567,    4.4756,    5.1209,    6.6622,    8.3700,    9.4841,   10.5646,   11.8976,   11.5042,   11.5181,   12.1508,   13.0274,   13.7296,   14.3760,   16.0203,   17.3460,   15.6601,   17.0436,   18.2449,   19.1654,   19.9314,   20.6507,   21.1403,   20.9632,   21.6459,   22.5560,   21.9341,   21.8240,   22.1983,   23.1756,   23.8580,   24.2365,   25.8529,   26.6051,   26.2764,   26.1155,   26.6349,   26.6413,   27.6199,   27.0417,   25.5621,   26.6417,   27.1671,   28.3611,   30.8111,   32.2193,   34.0195,   34.3491,   32.8492,   32.7116,   31.7906,   33.5446,   35.0487,   37.4552,   39.7029,   39.5272,   41.1819,   42.2566,
23-SEP-2002 23:31:48.23 ,    3.8127,    4.9851,    5.0758,    5.1558,    5.2362,    5.1624,    4.4662,    4.5773,    5.3852,    5.6852,    7.4551,    8.5656,    9.3238,   10.4861,   11.4828,   10.8805,   11.0121,   11.9821,   12.9952,   13.6999,   14.1246,   15.3600,   15.2832,   16.0984,   16.8356,   17.6147,   18.7178,   19.7812,   20.5283,   21.0913,   21.3087,   21.9202,   22.2948,   21.7507,   21.4508,   21.8930,   23.1196,   24.0043,   24.9865,   25.9610,   25.7252,   26.2702,   26.8361,   27.2991,   27.0585,   26.9692,   25.7987,   25.2007,   25.9231,   28.2642,   31.1431,   32.5538,   31.8093,   33.0414,   33.4365,   33.5035,   34.0169,   32.9962,   35.6623,   35.7603,   37.7428,   38.7116,   39.4948,   40.9843,   43.4610,
23-SEP-2002 23:34:30.31 ,    2.9435,    3.7415,    3.8573,    4.0918,    4.2754,    4.4828,    4.3054,    4.5575,    5.1084,    5.3483,    6.9706,    7.7304,    8.7017,    9.9217,   10.8966,   10.7909,   11.2130,   12.1468,   12.8342,   13.4892,   14.1951,   15.2039,   16.6672,   15.5759,   16.8046,   17.1756,   18.2746,   19.6878,   20.6126,   21.0243,   21.9369,   22.2385,   21.9695,   21.6463,   21.6180,   21.8566,   23.0983,   23.7718,   24.4903,   25.4065,   25.6940,   26.6883,   27.6636,   27.0947,   26.2585,   27.1854,   26.8409,   25.0611,   26.2030,   27.5729,   31.7140,   32.6341,   32.8583,   33.8749,   33.0672,   33.2311,   34.0865,   33.4120,   34.4117,   36.2126,   38.0112,   37.9594,   38.9054,   39.8047,   41.3247,
23-SEP-2002 23:37:12.39 ,    2.1295,    2.7767,    2.7767,    2.9037,    3.4462,    3.8428,    2.7865,    3.0707,    3.3687,    4.2845,    5.4909,    5.8764,    7.1324,    9.2802,   10.7190,   11.3015,   11.9072,   12.6678,   13.0937,   13.5245,   14.3286,   15.7035,   14.9249,   15.9262,   16.4892,   17.2380,   18.7275,   19.9265,   20.6860,   21.5290,   22.6088,   22.8082,   22.3262,   21.8585,   21.4837,   21.8290,   22.7957,   23.4304,   23.9929,   25.3174,   26.1588,   25.6849,   26.1042,   26.8277,   26.9356,   26.7964,   26.5704,   26.2103,   27.0269,   27.5541,   30.5996,   30.8715,   33.1262,   33.9388,   33.1902,   33.2623,   34.7622,   34.6528,   34.4599,   36.1875,   38.5606,   39.4473,   40.3649,   40.7050,   41.0369,
23-SEP-2002 23:39:54.14 ,    1.8828,    2.4926,    2.5600,    2.5403,    3.1179,    3.6124,    2.7048,    2.9444,    3.3196,    4.3163,    5.2563,    5.6405,    6.4276,    8.5372,   10.9600,   11.2485,   11.3249,   12.3529,   13.3257,   13.8062,   14.4938,   15.7685,   16.6548,   17.4251,   16.8087,   17.1630,   18.4725,   19.5785,   20.2433,   20.9830,   22.2319,   23.2493,   22.9644,   22.2316,   22.0559,   22.2457,   22.5038,   23.9267,   25.3186,   26.3015,   25.9989,   26.2629,   26.7286,   27.3223,   27.4434,   27.1211,   27.2558,   27.9294,   28.8271,   29.1363,   29.9487,   30.2798,   32.7612,   35.0063,   34.4302,   32.8679,   33.8842,   33.3970,   34.1849,   36.4729,   38.9589,   40.3125,   40.9741,   40.3037,   41.3501,
23-SEP-2002 23:42:35.62 ,    2.1957,    2.3825,    2.5722,    2.6301,    3.0639,    3.6928,    2.8911,    2.8949,    3.4050,    4.7541,    6.1056,    6.9469,    7.3761,    8.3738,   10.8136,   10.9020,   10.8656,   12.0490,   13.1156,   13.4777,   14.4081,   15.8024,   14.6376,   15.4809,   16.4792,   17.4728,   18.4958,   19.1268,   19.7628,   20.9668,   22.2585,   22.6105,   22.4659,   22.0283,   22.0164,   22.4318,   23.5698,   25.0449,   25.9549,   26.7503,   26.5410,   25.8132,   26.2991,   27.2757,   27.3893,   27.3543,   26.8605,   26.3783,   28.0774,   29.3062,   30.1285,   31.3860,   33.4049,   34.0860,   33.8904,   32.8571,   33.8131,   33.4351,   33.1449,   35.2294,   38.0098,   39.9554,   41.7035,   42.3255,   43.4399,
23-SEP-2002 23:45:17.31 ,    2.1488,    2.3357,    2.6305,    2.5769,    3.0264,    3.5709,    2.6704,    2.9721,    3.7781,    5.1776,    6.7167,    7.8505,    8.7116,    9.0979,   10.8159,   10.8078,   11.1451,   11.8572,   12.4978,   12.8257,   14.0360,   15.5725,   16.5061,   15.2688,   16.6558,   17.2477,   18.1347,   19.0775,   19.8172,   20.7348,   22.0822,   22.7461,   23.1494,   23.2382,   23.2746,   23.3702,   24.1588,   24.8213,   25.1996,   26.3007,   27.2619,   26.9707,   27.0159,   26.2815,   26.1820,   26.2619,   25.2104,   25.2303,   26.8276,   28.6001,   29.1964,   31.7771,   32.8454,   33.3291,   34.7660,   32.7584,   33.0312,   33.0349,   32.9078,   34.8365,   37.5381,   38.1569,   40.6321,   42.2087,   43.3495,
23-SEP-2002 23:47:59.45 ,    1.8908,    2.4454,    3.2007,    3.4036,    3.8415,    4.1874,    3.2011,    3.6452,    4.3440,    5.1298,    6.9515,    8.7478,   10.6097,   10.8470,   11.6213,   11.6522,   11.2628,   11.5141,   12.1820,   12.7252,   13.7348,   15.3578,   14.0313,   15.6730,   16.7539,   17.6063,   18.6146,   19.2282,   20.5509,   21.7932,   22.4389,   22.4964,   21.9279,   22.5293,   23.5006,   23.7728,   24.2599,   24.4225,   24.5222,   25.1478,   25.6555,   26.7872,   27.9765,   27.2104,   26.0978,   25.6447,   25.7909,   25.5619,   26.1402,   27.5001,   28.7173,   30.5362,   32.4223,   33.7415,   33.9410,   33.2164,   33.6297,   33.4450,   34.1364,   35.5627,   37.1024,   39.8143,   41.4348,   40.8011,   42.0420,
23-SEP-2002 23:50:40.88 ,    2.1832,    2.5257,    2.6515,    3.3593,    3.8632,    4.2844,    3.4364,    3.8384,    4.3944,    5.2243,    6.9003,    8.3508,    9.7267,   10.4809,   12.1264,   11.9737,   11.3220,   11.5605,   12.1898,   13.0430,   13.8844,   15.3874,   13.8731,   15.1172,   16.2289,   17.5456,   19.0088,   20.1230,   20.8829,   21.8798,   22.1454,   21.9986,   22.1326,   22.0184,   21.9743,   22.3107,   22.5081,   23.3047,   24.6471,   25.5542,   25.6406,   25.9918,   26.5334,   27.5843,   27.2219,   27.2302,   25.8731,   25.4868,   26.3873,   28.2254,   28.6895,   29.7923,   32.6723,   33.9683,   32.0191,   33.0899,   33.8692,   34.3511,   34.2396,   34.8846,   36.6005,   39.6925,   41.6139,   40.5945,   42.3507,
23-SEP-2002 23:53:22.46 ,    2.4994,    3.0220,    3.6230,    4.1858,    4.4099,    4.3299,    3.5419,    4.0007,    4.6156,    5.0926,    5.9975,    6.8747,    7.8168,    9.3167,   12.1257,   11.7580,   11.4808,   11.8598,   12.5779,   13.5894,   14.8333,   16.2018,   14.5425,   15.6952,   16.7879,   17.8895,   19.1028,   20.2156,   20.6625,   20.9526,   21.7700,   22.0823,   22.0613,   22.3208,   22.5172,   22.9523,   23.3682,   24.0319,   24.8530,   25.7523,   26.0150,   26.3478,   26.6395,   27.0485,   26.8436,   26.9923,   26.9046,   26.3540,   27.1845,   28.1159,   28.0677,   30.3881,   31.2945,   33.7855,   31.6685,   32.2408,   32.9288,   33.8533,   34.1374,   39.2906,   37.6632,   39.7492,   42.0899,   40.8636,   42.9958,
23-SEP-2002 23:56:04.87 ,    3.0851,    4.1335,    5.4104,    5.3037,    5.1465,    5.2211,    4.7517,    4.4637,    4.3748,    4.4976,    6.0703,    6.8730,    8.6506,   11.0044,   11.9944,   11.5055,   12.0247,   12.6968,   13.1978,   13.9602,   15.4342,   16.7354,   15.2804,   16.5064,   16.9011,   17.8959,   18.8304,   19.5394,   20.6451,   20.6143,   21.2009,   22.4264,   22.9271,   22.7783,   22.7884,   23.0384,   23.3813,   24.5067,   25.4339,   26.2451,   26.4883,   25.9040,   25.6386,   25.6924,   26.0177,   26.7312,   25.5277,   25.8295,   26.9255,   27.5533,   28.7881,   30.2340,   30.5766,   32.5282,   32.3484,   32.8928,   32.4949,   32.6888,   34.3851,   35.4248,   36.6412,   39.1676,   40.5966,   40.7988,   42.6837,
23-SEP-2002 23:58:46.44 ,    2.7827,    4.1532,    4.1707,    4.8383,    5.3302,    4.6328,    4.7147,    4.1509,    4.0345,    4.2610,    5.8456,    6.1113,    8.2748,   11.4996,   11.7145,   11.4256,   12.2407,   13.1984,   13.5638,   13.9487,   14.8692,   16.0419,   14.7312,   15.8582,   16.4193,   17.5457,   18.0878,   19.2536,   19.6613,   19.7271,   20.0992,   21.8131,   21.9595,   21.2287,   22.0742,   22.9858,   23.1645,   24.3149,   25.1954,   26.1795,   26.9858,   26.3459,   26.2630,   26.2555,   26.3792,   26.9236,   25.7164,   26.7060,   27.7920,   28.4207,   28.8823,   29.2966,   31.1955,   32.0665,   32.1681,   32.0707,   31.9794,   33.4732,   34.0889,   34.9160,   36.4620,   37.9825,   39.0185,   40.8703,   42.3695,
